GFSWCAN_sfc_thetae_000.txt.gz
Theta_e
303 303 303 302 303 303 304 304 305 305 306 306 307 307 306 304 305 305 305 307 298 292 295 296 294 288 292 296 292 296 295 296 295 290 289 288 291 295 296 299 298 297 297 297 301 298 295 313 312 305 312 322 318 319
303 303 303 303 303 303 304 304 305 305 305 306 307 307 306 305 305 305 299 305 306 296 296 301 301 301 300 300 298 299 297 296 296 292 292 292 289 294 295 292 301 296 301 300 301 301 315 317 315 319 319 317 318 321
304 303 303 303 303 303 304 304 305 305 305 306 307 306 305 305 305 305 306 306 300 295 296 298 297 302 304 305 306 296 301 300 301 304 299 294 290 294 290 293 297 301 304 301 302 306 309 312 317 319 322 320 321 323
304 304 304 303 303 303 304 304 305 305 305 306 306 306 306 305 306 305 305 307 303 298 290 296 303 300 304 305 303 304 302 305 304 303 298 294 291 297 293 297 296 300 302 300 301 306 308 309 312 317 320 322 320 321
304 304 304 304 304 304 304 304 304 305 305 306 306 305 306 306 306 307 308 308 308 298 290 293 300 302 303 303 303 304 301 300 298 297 297 294 298 298 298 297 295 303 301 298 297 307 308 309 313 314 319 319 320 320
303 304 304 305 305 304 304 304 305 305 306 305 306 306 304 305 305 305 298 307 308 305 294 288 299 299 301 303 303 302 301 300 298 297 296 299 303 300 295 293 300 303 307 310 306 312 312 316 318 318 317 320 321 322
302 303 304 304 305 305 305 305 305 305 305 305 305 305 306 305 304 299 297 302 305 308 294 290 291 300 302 299 299 299 301 299 298 296 295 296 298 300 296 292 299 303 308 310 311 310 309 312 312 314 318 320 319 322
302 303 303 304 304 304 305 305 305 305 305 305 305 305 306 304 302 300 307 305 306 301 297 288 288 293 301 294 293 300 297 298 298 296 297 295 297 298 292 297 301 302 304 306 307 309 310 314 316 318 318 319 319 320
302 302 303 303 304 304 304 305 305 305 305 305 303 304 305 303 301 303 305 306 308 301 292 290 287 285 300 296 296 298 299 290 299 294 294 297 294 291 295 298 300 302 303 304 306 306 307 310 313 316 318 318 316 317
302 302 303 303 303 304 304 304 305 305 305 303 305 301 298 302 304 305 301 297 296 297 296 290 294 288 291 290 292 291 293 291 288 293 298 293 292 299 300 302 304 305 306 306 304 304 306 308 312 316 317 318 318 318
302 302 302 303 303 304 304 304 304 304 305 302 296 297 303 305 303 299 292 292 294 289 294 295 293 289 295 289 288 294 289 293 286 293 292 291 290 297 302 303 306 308 308 309 310 310 313 314 316 316 317 318 318 319
301 301 302 302 303 304 304 304 304 304 301 300 299 301 302 300 297 291 291 293 291 289 295 294 294 294 293 293 287 289 287 291 285 297 292 289 297 301 304 304 306 308 309 310 311 312 314 316 317 318 320 319 320 322
301 301 302 302 303 304 304 304 303 304 304 304 299 296 296 295 287 285 283 287 288 293 296 294 292 294 295 294 290 287 285 285 289 287 289 293 300 302 302 303 306 309 310 312 311 313 315 316 317 319 320 322 324 323
300 301 301 302 303 303 304 303 304 304 304 297 293 286 288 287 288 288 288 289 292 294 295 294 292 295 296 292 291 285 289 287 284 284 286 294 297 299 301 302 304 305 309 310 309 313 312 313 315 317 319 319 318 320
300 301 301 303 302 303 303 303 303 308 303 295 295 286 288 293 293 295 296 294 298 300 296 296 295 295 292 290 291 288 286 285 285 286 290 297 299 299 299 302 302 305 305 304 306 309 310 312 313 314 316 318 318 319
300 301 303 302 302 302 303 305 308 307 303 298 295 292 296 294 294 296 297 297 301 299 300 299 293 290 289 286 286 284 284 282 284 293 297 299 298 299 300 301 301 301 302 301 303 308 309 308 309 309 309 312 314 316
300 303 302 301 302 303 303 306 305 298 298 294 294 298 297 296 295 297 298 298 302 297 293 293 288 287 290 287 285 286 284 285 290 296 299 302 302 302 303 302 301 301 302 302 303 304 304 305 307 308 307 309 310 314
301 303 302 302 303 305 307 305 301 297 292 297 294 296 298 299 297 297 298 300 298 296 295 292 295 289 286 284 286 286 288 289 295 297 300 303 304 304 305 304 303 303 303 303 304 305 306 305 304 305 308 309 310 313
299 301 301 302 303 303 300 301 302 294 296 298 298 299 299 299 300 300 300 301 301 301 297 295 290 288 288 291 291 293 295 295 295 297 300 303 305 305 305 306 305 305 304 304 304 303 303 304 304 305 307 309 309 311
299 301 301 302 303 304 296 299 304 298 295 297 299 297 298 297 300 299 299 299 298 297 294 292 292 294 293 295 297 297 299 302 301 298 299 303 305 305 306 306 305 306 305 305 304 300 305 304 305 305 306 306 308 307
303 304 303 306 308 304 301 298 298 300 298 297 298 297 297 299 297 297 296 299 296 294 293 296 297 299 301 301 302 305 303 302 299 299 299 301 305 305 305 305 306 307 306 305 304 304 302 304 305 306 306 306 307 308
304 301 306 306 300 299 299 302 297 300 298 297 296 297 296 295 295 295 299 296 295 296 297 298 299 300 300 300 302 304 305 304 303 300 297 299 302 303 303 305 304 304 305 306 306 305 305 306 306 306 306 306 305 306
301 302 302 299 293 293 292 301 294 296 291 292 295 292 294 294 296 299 296 297 297 299 300 301 302 302 302 303 304 304 305 304 302 302 302 302 303 304 304 305 306 305 305 306 308 307 306 296 304 307 307 307 307 307
298 296 292 293 294 289 295 292 296 294 294 292 291 288 291 293 296 295 292 296 297 300 299 300 301 301 301 302 301 302 303 305 304 304 304 302 302 303 304 305 306 307 307 307 308 308 309 308 301 307 307 307 307 306
290 288 291 286 293 288 286 286 288 290 286 288 287 289 292 295 290 290 290 293 295 296 298 299 300 300 299 300 301 302 303 303 303 302 304 305 303 303 303 304 304 305 307 306 305 306 307 308 308 307 307 307 306 306
284 288 287 289 289 287 288 283 284 285 287 285 287 292 294 291 286 284 291 293 294 296 297 298 296 294 298 300 300 300 301 304 305 302 302 303 304 303 302 301 301 302 305 307 306 305 305 306 307 307 307 305 295 306
284 286 292 296 295 292 290 291 292 289 285 285 289 287 288 283 284 289 296 295 294 297 301 301 300 298 296 297 299 301 303 303 302 301 302 302 302 303 302 300 299 300 304 304 306 306 305 305 305 305 306 307 307 307
288 290 286 290 290 292 285 286 286 285 287 291 290 283 283 284 287 295 296 296 296 298 299 301 302 301 300 298 298 299 302 303 304 303 303 302 300 300 301 302 301 287 301 302 303 305 305 305 305 305 305 305 306 306
288 292 291 286 288 288 288 287 287 290 293 291 286 285 286 291 293 293 294 295 296 296 294 296 299 303 301 300 299 297 297 299 299 297 296 297 298 296 298 298 299 300 301 301 286 292 299 302 304 305 305 305 305 305
288 293 288 287 285 284 288 291 290 293 293 292 292 291 290 292 294 296 295 294 293 293 294 296 299 299 299 298 295 294 296 296 295 295 294 294 293 295 296 296 297 298 299 299 299 299 290 299 297 304 302 303 301 302
291 291 288 288 286 289 291 293 293 293 292 291 292 290 289 291 293 295 295 295 295 295 294 295 296 297 296 293 292 293 294 294 293 292 292 294 294 294 294 295 296 297 297 296 296 296 296 295 293 292 291 290 290 291
290 288 287 284 286 291 293 290 290 289 290 289 289 291 290 290 288 291 295 294 293 293 291 293 294 292 294 294 293 292 287 292 292 291 290 291 292 292 293 294 295 295 295 294 293 293 291 290 289 289 289 287 288 288
289 289 289 288 287 286 289 289 287 287 288 289 288 289 289 288 286 291 295 295 294 294 293 291 291 291 291 291 290 289 289 289 285 283 284 283 282 284 291 292 292 293 293 292 292 291 290 290 289 288 288 288 287 286

GFSWCAN_sfc_thetae_003.txt.gz
Theta_e
305 305 305 304 304 304 304 305 305 306 306 307 307 308 307 306 305 306 304 309 301 295 296 297 297 292 295 294 292 298 296 297 297 292 289 289 292 297 296 299 299 298 299 299 300 297 295 312 311 305 313 316 317 316
304 305 305 304 304 304 304 305 305 305 306 306 307 307 307 306 305 306 302 310 309 297 296 303 303 302 300 297 294 298 297 295 296 294 295 294 290 293 294 291 304 298 303 301 303 303 314 314 314 319 319 318 318 319
303 304 304 305 305 305 304 305 305 305 306 306 307 307 307 306 306 306 306 308 305 299 299 299 298 304 308 306 306 296 299 301 301 304 300 296 291 295 290 294 295 302 308 304 306 309 311 314 316 319 319 318 320 320
302 303 304 304 305 305 305 305 305 305 306 306 306 307 306 307 307 306 305 310 307 300 292 298 306 303 306 307 305 306 303 303 303 302 299 296 293 296 292 295 296 301 303 304 305 308 311 313 316 317 318 319 323 323
302 303 304 304 305 305 305 305 305 305 306 307 306 306 307 306 307 307 310 311 309 299 293 295 302 304 305 305 304 305 304 302 299 296 297 295 297 295 296 296 293 300 300 299 301 309 309 311 315 316 317 319 321 320
302 302 303 304 304 304 305 305 305 306 306 306 306 306 306 307 306 304 298 309 307 308 296 291 302 301 302 304 303 303 303 302 300 297 296 299 303 299 293 291 298 300 304 307 305 314 314 316 318 318 317 319 321 322
302 302 303 304 304 304 304 305 305 306 306 306 306 306 305 306 306 300 298 303 305 308 296 292 294 300 302 303 302 301 304 301 299 297 295 296 297 300 294 291 300 302 302 305 311 311 310 312 312 315 317 318 318 322
302 302 303 303 303 304 304 305 305 306 306 306 306 305 305 306 305 300 308 306 306 300 301 290 292 294 302 298 295 300 298 299 298 297 298 295 296 297 291 297 300 302 304 304 305 311 311 312 314 315 318 318 318 319
301 302 302 303 303 303 303 304 305 305 305 305 305 304 307 304 300 303 306 306 308 300 293 295 289 287 301 296 298 298 299 291 299 294 294 296 294 290 295 297 298 301 303 303 305 309 310 309 308 312 314 314 314 315
301 301 302 302 303 303 304 304 305 305 305 306 307 302 297 302 305 307 302 298 297 297 297 293 298 290 294 292 293 296 297 292 290 293 297 292 292 298 299 301 301 303 304 306 302 302 306 306 307 307 311 313 315 315
301 301 302 302 303 304 304 304 305 304 306 305 299 299 305 307 304 300 294 293 295 291 296 297 296 292 297 289 289 292 291 293 287 293 291 291 291 297 301 301 303 304 306 306 307 308 309 309 309 309 309 311 314 316
301 301 301 302 302 304 304 304 304 306 305 302 301 303 305 302 300 293 292 295 293 290 296 295 296 299 296 294 288 290 288 291 285 298 292 289 294 300 302 302 303 305 306 306 308 308 309 310 310 312 315 317 317 318
301 301 301 302 303 304 304 304 303 304 305 308 303 299 298 297 288 287 284 289 290 295 297 296 292 296 298 293 288 287 284 286 291 289 289 295 301 303 306 305 305 306 307 308 307 310 311 311 312 312 313 316 320 320
300 301 301 302 303 303 304 304 304 306 307 301 296 287 292 289 292 293 291 292 296 297 297 295 296 294 296 292 291 285 289 287 285 285 287 293 295 299 302 306 306 305 307 309 310 311 312 312 313 314 315 318 319 320
300 301 301 303 303 303 303 304 304 310 305 297 297 288 291 297 297 298 298 298 299 298 299 298 297 296 293 291 290 288 286 284 285 283 288 290 296 296 298 301 302 300 301 304 309 311 312 314 314 317 322 324 325 325
300 301 305 303 302 303 303 307 311 310 306 299 297 293 297 295 295 296 296 296 301 300 300 300 293 290 288 288 286 285 284 282 284 285 294 295 296 295 297 299 299 299 300 301 302 308 312 313 316 318 319 321 321 321
300 305 302 302 302 302 305 308 308 299 299 296 296 299 296 295 294 296 296 297 301 298 294 294 289 287 292 288 286 286 283 284 286 295 300 301 300 299 299 299 299 298 298 300 303 305 308 312 314 315 314 317 319 320
299 301 302 302 303 306 310 308 303 299 293 299 297 297 299 299 296 298 298 300 299 297 296 293 295 288 286 284 286 287 287 295 298 299 302 304 304 303 303 301 302 302 301 301 302 303 305 308 310 311 313 314 314 316
299 300 300 301 302 304 303 303 305 296 297 299 299 300 299 299 300 300 301 301 301 301 298 297 292 290 290 293 293 295 296 297 296 300 303 305 306 305 304 304 303 303 303 303 303 303 304 306 308 311 311 312 311 312
299 300 302 302 303 305 298 302 307 299 296 299 300 298 298 299 301 300 300 300 300 298 294 292 293 295 296 297 299 299 300 303 303 300 301 303 304 305 305 304 304 305 305 305 304 300 305 305 306 307 309 309 309 309
301 304 303 307 309 306 302 300 299 302 299 297 299 298 297 299 298 297 297 300 297 296 294 297 298 301 303 303 302 305 303 302 299 299 299 301 303 303 304 304 305 305 304 304 304 303 302 304 305 306 307 308 308 308
304 300 305 308 302 301 300 303 299 300 299 298 297 298 296 296 296 296 300 297 296 298 299 299 300 301 301 302 302 306 304 304 304 301 298 300 301 301 302 303 303 303 304 304 305 305 306 306 307 307 308 308 306 308
301 303 304 302 296 295 292 304 296 297 293 295 296 293 294 296 297 300 298 297 298 300 300 301 302 303 302 303 303 304 305 305 302 303 302 302 302 303 303 304 305 304 303 305 307 306 306 298 304 307 308 308 309 309
297 299 296 295 295 290 297 294 298 295 295 293 292 289 292 295 298 294 292 296 298 299 298 300 302 301 301 303 301 301 303 303 303 303 303 303 302 302 303 303 304 305 305 305 306 306 307 307 302 306 307 307 307 306
289 289 292 285 295 291 289 289 290 291 287 289 289 290 292 298 292 290 291 295 296 296 297 299 301 301 300 302 303 301 305 303 301 301 303 304 304 303 302 303 304 305 307 305 305 304 305 306 306 306 307 307 307 307
285 288 287 291 291 289 289 285 287 287 289 287 288 293 296 292 287 287 293 296 296 296 297 298 299 299 300 300 300 302 303 305 304 303 304 305 304 303 302 301 301 303 307 306 305 303 304 305 306 306 306 305 296 307
284 286 294 298 296 294 291 292 293 290 286 285 289 288 289 283 284 292 298 298 299 298 299 299 300 297 298 300 302 303 305 306 305 304 305 305 305 305 304 302 301 302 306 306 306 305 304 304 304 305 304 305 306 307
289 291 288 293 293 294 289 289 287 286 288 292 291 285 284 286 287 296 299 300 298 298 298 299 300 302 300 300 302 302 302 304 305 305 305 305 304 304 304 304 303 289 303 303 304 306 306 304 304 304 304 303 304 306
289 293 293 289 290 291 290 288 288 291 294 292 289 288 289 293 295 295 296 297 298 297 295 295 296 300 302 302 303 302 301 301 299 298 297 298 298 299 301 301 302 303 304 304 285 293 301 303 304 304 305 304 305 306
288 293 290 289 287 286 290 293 292 294 295 295 295 293 293 294 296 298 297 296 295 294 295 296 296 297 299 298 297 299 299 298 297 296 294 294 295 298 298 298 299 300 301 301 301 301 290 299 297 302 300 299 298 300
292 292 290 290 288 290 292 294 295 295 294 293 294 292 290 293 295 297 297 297 297 296 295 295 295 296 299 297 296 293 293 296 295 295 293 296 297 297 297 297 298 299 299 299 299 298 298 297 297 295 296 295 294 293
290 289 289 286 288 293 294 292 292 291 291 291 291 293 292 291 289 293 298 298 296 294 291 293 295 295 297 296 297 297 285 296 295 293 290 292 294 294 296 296 297 298 298 297 297 296 295 295 294 294 292 291 292 291
290 290 290 289 288 287 291 291 289 289 290 291 289 290 290 289 287 293 298 298 296 295 295 296 295 294 293 293 293 293 291 293 287 283 283 283 282 284 291 294 295 296 295 295 295 294 293 292 291 290 290 289 288 288

GFSWCAN_sfc_thetae_006.txt.gz
Theta_e
303 304 305 305 305 306 306 306 306 306 306 306 307 308 308 307 307 305 306 309 301 294 295 298 299 295 296 295 289 293 296 297 295 291 291 290 288 291 294 297 297 299 298 300 301 298 294 311 310 305 316 326 321 318
303 303 303 304 305 305 306 306 306 306 306 306 307 307 308 307 307 306 303 310 309 297 297 303 302 303 301 299 295 297 294 297 296 294 294 294 291 292 291 291 303 294 303 301 303 303 319 317 319 323 323 321 318 320
302 303 303 304 304 305 305 305 306 306 306 306 307 307 307 307 307 307 304 309 307 298 299 301 299 305 307 305 306 295 298 299 299 303 298 296 291 294 287 291 294 301 305 300 302 309 311 314 318 321 320 320 321 321
302 302 303 303 304 304 304 305 305 305 306 307 307 306 306 307 307 306 305 310 305 300 292 297 306 302 309 308 307 302 303 304 303 300 297 295 292 298 292 294 293 297 300 301 302 308 312 314 315 317 318 320 321 321
302 303 303 303 304 304 304 304 305 305 306 307 307 307 306 306 307 307 306 311 309 300 292 295 303 305 306 305 304 305 305 302 298 296 295 293 296 296 297 296 292 297 297 296 299 304 303 313 316 315 319 318 321 320
302 302 303 303 303 303 303 303 304 305 306 306 307 306 306 306 307 305 300 308 311 310 295 291 302 302 304 305 303 302 302 301 299 296 295 297 300 298 292 291 297 299 302 302 300 306 306 308 317 318 318 320 321 319
302 302 302 303 303 303 303 304 305 305 306 306 306 306 306 306 305 301 299 303 303 306 296 291 294 300 303 303 302 300 303 300 299 297 295 296 296 297 294 289 296 300 302 303 304 302 304 309 312 315 317 320 318 320
301 302 302 302 303 303 303 304 305 306 306 306 306 306 305 305 305 303 311 307 305 301 300 291 293 296 303 298 296 303 298 298 298 297 298 295 296 295 290 296 297 298 300 301 302 305 305 308 312 314 317 318 318 317
301 302 302 302 302 303 303 304 305 305 305 305 306 307 307 304 302 306 305 307 307 301 292 293 289 288 301 297 297 300 300 291 299 294 294 296 293 290 294 296 297 299 299 300 303 304 305 304 309 311 313 315 314 316
301 301 302 302 302 303 303 304 305 305 305 306 307 304 299 304 306 307 304 301 299 298 297 292 298 291 297 294 293 295 296 292 289 293 297 293 292 297 299 299 300 301 301 303 301 302 303 305 307 309 309 310 313 314
301 301 301 302 302 303 304 304 304 304 305 306 302 300 306 309 306 302 296 295 297 293 296 298 298 294 299 291 289 293 290 293 287 292 292 290 290 297 302 301 301 302 303 303 306 306 307 308 308 308 308 309 309 313
300 301 301 301 302 303 304 304 304 306 306 302 301 305 307 304 300 293 293 295 293 291 296 296 297 298 298 296 289 290 287 290 285 295 291 288 295 301 303 304 302 304 304 304 305 306 307 308 309 309 309 310 311 311
300 300 301 301 302 303 304 304 304 305 305 309 303 301 298 297 289 288 286 289 291 296 297 297 295 297 299 295 288 288 284 285 289 288 287 289 293 298 301 304 305 304 304 305 304 305 307 308 308 308 309 311 313 315
300 300 301 301 302 304 303 303 304 306 307 302 296 289 293 289 291 292 292 294 297 297 298 298 295 295 297 290 290 285 289 287 285 284 284 290 290 294 298 303 304 305 306 307 306 307 306 306 307 309 309 312 313 314
300 300 301 303 303 302 303 303 304 311 306 298 297 288 292 297 298 298 299 298 301 303 300 299 297 297 295 290 290 289 286 284 285 284 287 288 289 292 294 296 296 297 301 304 308 308 309 308 308 311 313 313 314 315
300 301 304 301 301 301 302 307 311 310 305 300 298 295 298 296 296 297 297 297 301 301 301 299 293 291 290 289 287 284 283 281 284 286 289 295 292 294 295 295 296 297 299 301 304 305 308 311 312 314 315 315 314 318
300 300 301 300 300 301 304 307 308 300 299 296 297 299 298 298 296 297 298 298 302 299 295 294 288 287 292 287 286 285 284 285 288 294 298 300 299 299 299 300 300 299 299 301 302 304 308 314 313 315 316 316 318 321
297 300 300 300 301 303 309 308 303 299 294 298 296 297 299 300 298 298 300 301 300 298 298 295 297 290 287 285 286 290 290 295 298 298 299 301 303 303 302 302 302 302 301 301 303 304 304 306 310 314 313 314 315 318
298 299 299 300 302 301 303 303 305 296 297 298 299 299 299 299 301 301 302 302 302 302 300 297 292 291 292 295 295 296 299 299 299 301 302 304 305 304 303 302 303 303 303 303 303 303 304 305 307 309 310 312 313 315
298 299 300 302 302 303 299 300 306 299 296 298 299 298 298 298 300 301 300 300 300 298 295 293 294 296 296 300 300 300 302 302 301 300 303 304 305 305 304 304 304 304 304 305 305 302 305 305 307 307 307 306 307 308
298 302 303 304 306 306 302 299 298 300 299 297 298 298 297 299 298 297 298 302 297 296 295 297 298 301 303 305 304 305 304 304 302 300 299 300 303 304 304 304 306 305 304 304 303 303 302 305 307 309 308 307 308 310
299 302 301 304 301 301 300 302 299 300 297 297 297 298 296 296 296 296 299 297 296 298 299 298 299 300 301 302 303 305 305 305 304 303 300 300 300 301 302 304 304 303 303 304 304 303 304 305 307 308 308 308 307 309
301 302 301 302 296 294 292 301 296 297 293 294 297 293 294 295 297 300 295 297 298 301 301 301 301 304 302 304 304 304 305 304 302 303 304 303 303 302 302 302 303 302 302 304 304 304 305 297 303 306 307 307 309 308
298 297 294 294 295 290 296 294 298 295 295 293 292 290 291 294 297 294 291 294 298 300 300 300 300 299 302 301 300 301 303 304 303 302 303 303 302 303 302 302 303 305 305 305 305 305 306 307 302 306 306 306 306 306
288 288 291 286 295 292 290 290 292 291 288 290 289 289 292 295 291 290 290 293 296 298 299 299 298 298 298 300 302 300 303 303 302 301 302 303 302 303 303 303 303 304 306 303 303 303 304 305 306 306 306 305 304 304
284 289 288 290 291 290 290 287 288 288 289 288 289 292 295 291 287 286 291 295 297 297 299 298 297 297 298 299 298 300 301 304 303 302 303 303 302 301 300 300 300 302 305 305 304 303 303 303 303 303 303 304 297 305
283 285 292 296 295 294 292 293 293 291 288 286 289 289 289 284 285 290 296 299 297 299 299 299 299 298 298 298 300 301 303 303 304 303 304 304 304 304 303 301 300 302 304 304 305 304 303 302 302 302 302 303 304 305
287 288 285 290 291 294 290 291 289 288 289 292 291 287 286 286 287 294 297 300 300 300 298 298 298 298 298 301 301 300 301 302 303 304 304 304 304 305 304 304 304 290 302 302 303 305 305 303 303 303 302 302 301 303
287 290 289 286 288 291 291 290 290 292 294 292 291 288 290 293 295 296 297 298 298 297 295 295 296 298 298 300 302 302 300 299 298 297 297 296 294 295 301 302 302 303 303 302 286 293 301 301 302 303 302 303 303 301
287 290 288 289 288 288 292 294 293 295 295 294 295 294 294 295 297 299 298 297 296 295 296 296 296 295 294 295 298 299 299 298 298 295 293 294 294 297 298 299 299 300 300 301 300 301 290 297 297 301 299 298 298 296
291 290 288 290 289 292 293 295 295 295 294 294 294 292 291 293 296 298 298 298 297 297 296 295 294 296 298 298 297 296 295 297 297 297 294 295 297 297 297 297 298 299 299 299 298 298 298 297 296 296 296 295 294 292
290 289 288 286 289 294 294 292 292 291 291 291 291 293 292 291 290 294 298 299 297 295 290 294 295 296 298 298 297 297 286 295 295 292 290 291 293 294 294 296 297 297 297 297 297 296 296 295 295 293 292 291 291 290
290 289 290 289 290 289 291 291 290 289 290 292 290 291 291 290 288 293 299 299 297 295 296 297 297 296 296 296 295 294 291 291 286 283 284 283 283 285 292 293 294 296 295 295 295 294 293 292 291 290 289 288 287 287

GFSWCAN_sfc_thetae_009.txt.gz
Theta_e
303 303 303 304 304 305 305 305 305 305 306 306 307 307 308 308 308 304 301 306 298 292 293 296 297 293 292 292 287 292 291 291 290 287 287 288 286 288 287 291 293 293 293 293 292 291 289 306 305 297 301 305 309 308
303 303 303 304 304 304 304 304 304 304 305 306 306 307 307 307 308 307 299 305 307 297 295 300 300 301 300 297 293 295 289 291 294 290 290 291 289 290 289 284 295 293 294 293 294 297 304 308 308 312 312 308 308 311
302 303 303 303 303 304 303 303 303 303 305 306 306 307 307 306 307 306 301 304 303 296 295 296 297 303 304 301 302 292 295 297 296 298 294 293 288 293 286 288 289 295 297 295 297 302 301 307 307 308 313 310 312 313
302 303 303 303 303 303 303 303 303 303 305 306 306 307 307 307 306 306 300 304 302 298 290 292 303 300 307 305 302 302 299 300 299 298 293 292 289 295 289 292 290 294 295 295 297 299 302 303 305 307 315 312 316 314
302 302 302 303 303 303 303 303 304 304 305 306 307 307 307 305 305 305 304 305 306 296 290 291 298 303 305 305 303 303 300 297 294 292 291 289 294 293 294 293 291 296 293 292 293 298 298 298 301 308 311 312 315 316
301 302 302 302 303 303 303 303 304 305 305 306 307 307 306 306 306 301 298 306 306 302 293 287 298 300 301 302 302 300 299 297 295 292 291 293 295 293 289 287 295 298 300 301 296 302 301 301 305 307 304 312 316 317
301 301 302 302 302 303 303 304 304 305 305 306 306 306 307 306 303 298 296 301 303 302 295 289 290 298 301 300 299 298 299 296 295 292 291 291 292 296 289 286 294 297 299 301 302 301 299 302 301 304 304 314 314 317
300 301 301 301 302 302 303 304 304 305 305 306 306 306 307 305 303 300 305 307 304 299 298 288 289 293 300 294 293 298 295 295 294 292 293 291 292 291 286 290 294 296 297 299 300 303 303 304 303 303 304 308 312 312
300 301 301 301 301 302 302 304 304 305 305 305 306 306 306 301 300 302 308 307 304 299 291 291 288 286 300 296 296 297 296 288 294 289 290 291 288 285 291 292 294 295 295 297 299 301 303 301 302 303 304 305 308 310
300 300 301 301 301 302 302 304 304 305 305 306 306 303 299 302 309 308 303 299 298 298 297 290 295 290 296 293 291 291 294 290 285 289 295 289 288 293 295 297 296 297 297 298 295 298 299 301 302 303 304 307 308 310
300 300 301 301 302 302 303 304 304 304 307 305 300 299 304 310 305 301 295 293 295 291 296 295 296 292 300 291 289 291 287 289 285 289 290 288 287 292 297 298 300 302 299 299 300 301 303 302 302 303 306 308 308 309
300 300 300 301 301 302 303 304 303 303 303 301 299 302 305 303 298 293 290 293 291 290 296 294 295 297 296 295 289 289 286 288 283 291 289 286 289 293 294 295 298 301 304 299 300 301 304 305 305 305 306 306 308 309
299 300 300 301 301 303 303 302 302 304 305 307 301 299 296 295 287 287 285 289 289 294 296 295 294 295 296 292 288 287 283 283 290 286 285 286 292 291 291 295 298 301 302 304 304 302 303 304 307 306 306 307 308 308
299 299 300 300 302 302 301 301 303 304 304 301 297 287 291 288 290 290 291 292 296 297 296 297 295 294 296 290 290 285 289 287 284 282 283 288 290 291 292 295 296 296 298 300 303 306 307 303 305 306 307 307 307 306
299 299 300 301 301 301 301 302 303 308 305 298 297 287 290 296 297 297 297 296 298 299 298 296 295 295 291 288 290 287 284 282 284 283 285 289 292 293 294 295 296 297 298 298 301 303 305 306 307 307 306 306 307 309
299 299 301 300 300 300 301 303 309 312 305 300 298 294 297 295 294 296 296 295 299 299 299 297 291 289 288 288 285 283 283 282 284 285 289 293 296 295 297 298 299 299 299 300 301 303 304 305 306 307 310 310 310 311
298 297 300 300 299 300 302 303 309 303 299 297 296 300 298 296 295 296 297 297 300 297 293 293 287 285 290 285 284 285 285 286 290 294 298 299 298 299 300 299 301 300 299 300 301 302 304 307 310 308 307 309 315 317
294 296 299 299 299 299 305 308 304 299 294 298 295 296 298 299 297 297 298 300 298 296 296 293 295 288 285 282 285 288 290 293 296 298 299 300 302 302 301 300 302 302 302 302 303 304 304 304 305 306 308 312 313 313
296 297 298 299 299 296 299 303 304 295 296 298 298 299 298 299 299 301 301 300 301 301 298 295 291 289 290 293 293 294 296 297 296 299 300 302 302 303 303 303 303 303 303 303 303 303 304 305 304 306 309 309 307 310
298 299 299 300 301 300 298 300 306 298 295 298 298 296 297 298 300 301 300 300 299 296 294 292 292 294 295 297 299 298 298 301 299 296 297 301 301 302 301 302 302 303 303 304 304 299 304 305 306 306 305 305 307 306
297 300 300 302 301 300 301 299 298 299 298 297 298 297 296 299 297 297 297 300 296 294 292 295 296 300 301 301 302 302 301 299 299 298 297 296 299 300 300 302 303 303 301 302 302 301 301 303 305 307 306 306 307 308
295 300 300 303 298 300 299 303 298 299 297 296 295 296 294 294 295 295 299 295 295 296 297 296 297 299 300 300 301 302 303 302 301 300 300 299 298 297 298 300 300 301 301 301 302 302 302 303 304 307 307 307 306 306
297 300 298 299 295 292 291 301 295 296 292 293 296 293 293 293 295 300 294 295 296 300 300 299 299 301 300 302 302 301 302 301 300 300 300 300 301 301 299 299 301 300 298 299 303 303 303 297 302 304 306 306 305 305
298 294 292 292 294 288 296 293 299 295 293 291 291 289 291 292 295 292 290 293 297 300 299 299 298 297 299 301 299 299 300 301 300 300 302 301 299 301 301 300 300 301 301 301 301 301 303 304 301 304 303 303 303 304
287 286 288 285 292 291 290 290 291 290 288 290 289 289 291 294 288 288 288 292 296 297 297 298 297 297 295 297 299 300 303 301 300 299 301 301 301 301 301 300 300 300 302 300 300 301 301 302 302 302 303 303 303 302
279 286 286 288 289 289 290 287 287 288 289 288 289 292 293 289 286 285 289 293 296 297 296 296 296 295 294 296 297 297 298 300 301 298 299 301 300 298 297 297 297 298 301 301 302 300 300 301 300 301 302 302 296 303
280 283 289 294 293 292 290 292 292 289 287 287 289 289 287 283 284 289 296 298 297 298 298 297 296 296 296 297 298 299 300 300 300 301 302 302 301 301 300 297 296 298 300 300 303 302 301 301 300 300 299 300 301 301
285 287 283 287 289 290 286 287 288 287 289 293 291 286 285 285 287 293 297 300 300 299 298 296 296 295 295 297 299 299 298 299 300 301 301 302 302 301 299 300 301 290 299 296 300 301 301 301 301 301 299 297 297 299
285 288 288 284 286 286 286 286 286 289 293 291 288 287 289 293 296 296 297 297 299 297 295 293 295 296 296 296 300 299 298 297 295 293 294 293 294 295 299 298 298 300 301 298 287 293 298 298 299 298 298 297 295 295
285 289 286 285 284 284 286 290 291 293 294 294 295 294 293 295 297 299 296 295 294 294 295 295 295 294 293 296 297 297 298 297 295 292 290 290 292 295 296 296 296 297 297 297 297 296 288 295 294 297 295 294 292 288
289 289 286 286 285 288 291 294 294 295 294 294 294 291 291 293 294 296 297 297 296 296 295 294 296 297 297 296 296 293 292 296 296 291 290 293 295 294 293 294 295 296 297 297 296 295 295 294 292 291 290 288 287 286
289 287 286 284 286 291 294 292 292 291 291 291 290 292 291 291 289 293 297 297 296 294 291 294 295 294 296 296 296 294 289 288 287 287 287 287 288 289 291 293 294 296 296 296 295 294 293 290 287 287 286 286 285 285
288 289 289 288 287 288 291 290 289 288 289 288 289 290 291 289 287 292 297 297 296 295 295 294 295 295 295 294 293 289 287 285 283 282 282 282 282 283 287 289 292 294 293 292 291 290 289 287 285 285 284 283 283 283

GFSWCAN_sfc_thetae_012.txt.gz
Theta_e
303 303 304 304 304 304 304 304 304 304 304 304 305 306 307 307 307 303 297 299 298 292 293 294 297 292 292 291 286 290 290 290 291 282 286 287 285 287 285 287 287 289 289 289 290 287 287 303 304 298 302 306 305 305
302 302 303 303 303 303 304 304 304 304 305 304 305 306 307 307 307 306 296 299 303 296 294 298 298 299 298 296 291 291 291 290 290 289 289 290 289 289 287 283 292 287 291 288 293 293 298 302 300 303 307 307 309 306
301 302 302 302 303 303 303 304 304 304 305 305 305 306 307 307 307 305 299 296 299 295 291 291 293 299 303 301 299 289 292 295 295 296 293 289 287 289 285 287 288 292 296 291 292 298 296 300 300 302 303 303 312 314
302 302 302 302 302 303 303 303 304 304 305 305 306 307 308 307 307 305 299 296 299 296 288 288 298 296 303 302 299 299 296 296 295 295 292 291 287 293 287 288 289 292 294 292 294 296 297 298 300 301 302 303 311 314
301 301 302 302 302 302 303 303 304 304 305 306 307 306 306 307 305 302 298 298 299 291 285 287 294 297 300 300 299 299 297 293 292 289 288 287 293 292 293 293 290 295 292 290 289 295 294 296 300 302 301 301 304 312
300 301 301 302 302 302 302 303 303 304 306 306 307 306 306 307 306 296 291 299 301 297 287 283 292 294 297 299 298 297 297 295 292 289 288 290 293 292 287 286 294 297 299 300 296 299 298 299 301 303 302 302 304 311
300 300 301 302 302 302 302 303 304 305 305 306 306 306 306 306 296 293 292 297 301 296 291 287 286 296 299 298 296 294 294 292 291 289 287 288 290 291 286 284 293 296 298 301 303 301 297 299 298 301 303 304 306 311
300 300 301 301 301 302 302 303 304 305 305 305 306 306 306 306 301 295 298 302 300 293 295 287 284 289 298 292 292 296 291 290 290 289 289 287 289 289 285 291 294 296 296 297 301 302 301 303 301 301 304 304 304 306
300 300 300 301 301 301 302 303 304 305 304 305 307 306 301 296 293 296 309 306 298 294 286 287 282 284 297 295 294 293 294 285 290 285 287 288 285 283 289 290 293 296 296 296 298 301 302 301 300 302 302 304 305 306
300 300 300 301 301 301 302 303 304 304 304 307 302 298 293 296 307 306 298 295 293 296 294 287 293 286 295 293 291 291 291 288 284 290 292 285 285 291 293 293 294 295 298 299 296 296 298 298 299 301 302 305 306 308
300 300 300 301 301 301 302 303 303 303 304 297 293 292 297 305 298 294 290 291 294 290 295 294 295 292 297 290 288 290 286 287 283 289 287 287 287 291 294 292 295 296 298 299 300 299 300 301 301 301 302 306 307 307
300 300 300 300 301 301 303 303 302 296 295 296 297 299 297 296 291 288 283 289 289 288 294 290 293 294 293 295 288 289 285 286 282 291 287 286 289 293 294 293 295 296 297 297 299 302 301 302 303 303 303 305 308 306
300 300 300 300 300 302 302 301 301 302 302 300 296 295 289 289 282 285 283 286 286 291 293 292 289 292 293 291 288 286 283 280 290 286 285 287 292 293 295 295 296 298 298 298 299 301 305 307 305 302 304 305 307 305
299 300 300 300 300 302 300 301 301 300 298 295 291 281 283 281 285 288 285 287 290 293 293 291 290 289 294 288 289 283 284 287 279 278 282 288 292 294 295 297 297 297 298 298 299 300 301 304 305 304 304 303 305 305
299 299 299 300 302 300 300 300 301 300 299 293 289 280 282 289 291 292 293 291 292 293 291 289 288 289 284 285 287 281 280 279 283 282 285 291 293 294 296 297 298 298 299 298 300 299 301 303 304 305 308 308 304 305
298 298 299 302 299 299 299 299 300 303 301 296 292 287 290 289 288 290 290 290 292 292 292 290 285 284 282 285 284 282 282 281 285 286 291 294 295 298 299 299 299 300 300 300 300 301 301 301 302 304 306 307 309 313
297 292 299 298 298 299 299 297 302 301 296 292 287 292 290 290 289 290 290 291 292 291 287 288 283 282 284 278 282 286 285 286 289 291 293 295 297 299 300 300 301 302 301 301 302 303 302 303 304 305 304 305 307 309
291 292 297 298 298 297 299 302 300 296 292 292 288 290 290 291 289 290 291 292 292 290 290 288 290 283 281 278 274 285 288 291 292 293 295 296 297 299 300 299 302 302 302 302 303 303 305 304 305 305 305 306 307 309
294 296 298 299 297 293 294 299 299 290 291 292 292 291 291 291 293 292 293 294 294 294 292 290 287 283 283 289 288 289 291 295 293 293 295 298 297 299 299 300 302 301 301 302 302 302 304 305 305 306 307 307 307 307
298 298 298 298 299 295 296 295 299 292 288 291 293 290 289 290 292 293 292 293 292 290 289 287 287 289 290 292 295 293 294 297 294 293 295 298 297 298 300 297 299 300 301 302 303 299 303 304 306 306 305 305 306 307
295 297 298 296 296 295 296 295 293 292 293 292 293 291 290 291 290 290 292 292 291 288 287 290 291 293 295 295 297 297 295 295 296 297 297 293 296 294 295 297 298 299 297 300 301 301 300 302 304 306 307 306 305 306
292 298 293 297 293 295 294 298 294 292 291 291 290 291 287 283 287 289 291 290 290 290 291 291 292 294 295 296 296 297 297 297 297 296 296 297 296 294 295 294 297 296 296 298 300 301 302 302 303 305 304 305 304 303
295 294 291 294 292 289 287 295 290 291 288 288 288 287 287 285 289 293 288 289 291 294 293 294 294 296 295 297 297 296 296 296 294 295 296 296 296 296 297 296 295 295 296 297 298 300 301 295 301 303 304 304 303 303
298 291 289 286 288 283 292 288 290 287 286 284 282 286 287 287 289 285 286 287 290 295 294 294 295 293 294 296 294 294 295 296 295 296 297 297 294 295 297 295 295 296 296 297 297 298 300 301 300 303 303 302 300 301
284 281 281 276 285 287 286 285 286 283 285 286 285 285 285 287 281 284 286 286 290 292 293 293 293 293 291 292 294 294 296 296 296 295 295 296 296 296 295 295 295 295 296 296 296 297 297 299 301 302 301 301 301 300
278 281 280 282 283 284 283 283 284 284 285 284 286 288 286 283 283 283 287 288 290 292 293 293 292 291 290 293 293 292 293 294 295 293 294 295 294 293 293 292 292 293 296 297 298 297 298 298 297 298 299 298 293 300
276 277 282 289 285 287 283 286 286 284 285 283 283 284 282 281 282 287 291 293 293 294 295 295 293 292 292 291 292 293 293 293 294 295 296 297 296 295 293 292 291 293 295 298 298 299 298 297 296 295 295 296 297 297
281 282 279 281 283 283 283 281 284 284 287 290 288 284 283 284 283 290 291 294 295 294 294 293 292 291 289 290 292 294 294 295 296 297 295 295 296 295 297 297 295 288 295 295 297 298 297 297 296 294 293 292 292 293
282 282 284 281 282 282 282 283 284 287 292 290 285 285 287 291 292 291 293 295 296 294 291 289 289 291 295 295 294 293 292 291 292 290 289 286 288 293 297 296 296 296 296 294 285 289 294 295 294 293 292 290 290 290
281 286 281 282 281 280 284 287 286 289 290 290 291 291 291 292 295 295 293 293 293 292 292 290 289 290 293 292 291 291 291 290 289 288 286 286 289 289 290 292 293 294 296 295 295 293 288 292 290 291 289 286 284 284
285 285 282 282 282 285 288 289 289 290 289 288 293 290 290 291 292 295 294 291 293 293 293 292 292 292 292 290 289 289 286 286 286 286 286 286 287 288 289 291 292 293 294 294 293 291 290 288 286 284 283 283 283 282
285 283 282 281 282 287 288 287 286 288 288 288 288 288 287 287 286 289 292 293 293 292 289 292 291 290 293 289 287 286 284 283 283 284 284 284 284 286 287 289 290 293 293 292 291 289 287 284 283 282 281 281 281 280
284 286 285 284 281 283 286 286 284 283 283 281 285 287 286 286 285 288 291 292 293 292 291 291 292 291 290 288 286 283 283 283 282 280 280 279 278 280 283 285 289 291 290 288 287 285 284 283 281 281 280 280 280 280

GFSWCAN_sfc_thetae_015.txt.gz
Theta_e
302 302 303 303 303 303 303 304 304 304 304 305 305 306 306 307 307 303 300 298 297 292 293 295 295 291 292 291 287 288 289 290 290 282 283 285 285 287 285 287 286 285 285 284 286 285 285 299 298 293 296 300 302 307
302 302 302 302 303 303 303 303 304 304 305 305 306 306 307 308 307 306 297 299 302 295 292 297 297 298 297 296 292 290 288 290 290 287 287 289 286 288 286 282 290 285 289 287 290 292 297 299 296 300 300 298 299 300
301 302 302 301 302 302 303 303 303 304 304 305 306 306 307 307 308 306 299 299 298 295 291 288 290 295 300 299 300 288 289 292 294 296 292 291 285 288 282 285 286 291 295 291 291 297 296 298 299 299 300 299 301 303
301 302 302 301 302 302 302 303 303 304 305 305 306 306 306 307 307 305 299 298 298 295 288 287 296 294 300 300 299 297 293 293 293 291 291 291 287 292 287 288 288 290 293 289 291 296 296 299 297 298 300 301 302 304
301 301 301 301 302 302 302 302 303 304 305 306 306 306 306 305 307 300 296 296 298 292 284 286 293 297 298 299 298 297 294 290 289 289 285 285 291 292 292 292 289 294 290 288 288 295 295 296 298 300 299 299 302 303
301 301 301 301 302 302 302 302 303 304 305 306 306 306 307 306 305 294 289 296 297 296 290 281 290 295 298 301 301 299 294 295 294 291 288 288 291 292 288 286 293 296 297 297 294 299 300 300 301 304 300 300 303 304
301 301 301 302 302 301 302 302 303 304 304 305 305 306 307 306 295 292 290 295 301 298 290 287 287 295 298 299 298 297 294 291 290 290 287 287 288 290 287 284 292 295 298 298 300 299 299 299 297 302 302 302 305 306
300 300 301 301 301 301 301 302 303 304 304 304 305 307 306 305 300 294 297 301 300 293 292 287 285 288 297 294 293 295 293 288 288 287 288 286 287 287 284 290 292 293 295 298 298 301 300 300 301 302 303 303 303 304
300 300 301 301 301 301 301 302 303 304 303 304 306 306 300 295 292 295 307 302 298 293 287 288 285 284 297 293 295 292 291 286 291 289 290 289 283 283 290 290 290 291 293 296 300 301 300 300 300 301 302 302 302 303
300 300 301 301 301 301 301 302 303 303 303 305 299 295 290 296 306 304 296 293 294 295 294 289 292 286 293 294 292 289 289 287 284 289 290 288 287 293 295 294 294 294 295 296 294 295 298 299 299 299 300 303 303 305
300 300 300 301 301 301 301 302 303 302 301 294 291 290 295 302 296 292 287 286 288 289 294 293 292 291 296 289 288 290 286 286 279 287 287 287 287 291 296 296 297 296 297 297 297 298 299 301 300 299 300 302 303 305
299 300 300 300 300 301 301 302 302 295 292 294 297 300 296 293 289 286 282 286 286 285 291 289 289 291 294 293 286 288 284 282 280 290 287 285 290 295 296 296 297 298 298 297 298 298 300 301 303 300 300 301 302 305
299 299 300 300 300 300 301 302 300 301 300 301 297 294 288 287 280 282 281 283 286 288 290 289 287 290 290 290 288 286 281 281 286 280 284 287 292 294 296 297 298 300 300 299 299 299 300 301 303 305 302 302 306 305
299 298 300 300 300 301 301 299 300 299 296 293 290 279 282 281 281 283 283 285 289 289 290 289 287 287 287 285 288 280 282 282 281 279 282 288 292 294 296 299 299 299 300 300 300 300 300 300 302 305 306 304 303 303
298 299 299 298 301 301 299 299 300 297 296 292 288 279 282 287 288 289 290 289 291 291 288 287 287 287 282 284 287 281 280 272 278 282 287 291 293 294 296 298 299 299 300 300 301 301 300 300 300 301 304 305 306 305
298 298 295 300 300 299 299 298 298 300 299 296 291 286 287 287 287 288 288 288 290 289 289 288 284 283 282 285 279 281 281 279 283 286 291 292 292 293 296 298 298 300 301 301 302 302 303 301 300 301 303 304 305 306
297 291 296 298 298 299 298 294 298 300 297 292 287 291 288 287 287 288 288 290 290 289 285 286 282 282 283 277 279 285 283 286 290 291 292 292 291 293 297 298 299 301 300 301 302 303 303 305 303 301 301 303 305 305
292 293 297 298 297 296 295 297 297 296 291 291 288 289 290 290 288 288 290 290 290 288 288 286 287 281 277 278 274 284 287 289 293 292 292 293 293 295 297 296 299 300 300 301 302 302 303 303 304 303 304 305 305 305
295 296 297 298 297 292 290 295 298 290 290 291 290 291 291 291 291 291 291 291 292 291 291 288 285 281 281 286 286 288 289 290 290 291 293 294 294 295 297 297 298 298 299 300 301 301 302 304 304 305 306 307 305 304
298 297 298 298 298 292 292 292 297 290 286 290 290 289 289 289 291 291 291 291 290 289 288 286 286 287 288 290 291 291 292 293 293 291 293 293 295 293 294 293 294 296 296 298 301 298 302 302 304 304 304 303 304 304
295 295 297 295 294 293 291 291 291 290 291 290 291 290 290 289 289 288 290 292 289 286 285 288 289 291 292 294 294 294 293 293 292 293 293 292 294 293 293 294 294 294 294 296 297 300 300 301 302 304 304 304 304 304
293 297 294 295 291 293 289 291 290 292 288 289 288 289 286 283 286 287 290 289 289 289 289 289 290 292 293 294 295 294 295 295 294 294 294 293 293 293 293 293 292 293 293 295 296 297 300 303 301 303 303 303 303 304
294 293 291 290 290 288 286 294 290 290 286 286 285 285 284 282 287 291 288 290 291 292 292 291 292 294 294 295 295 295 295 295 293 293 294 293 294 295 293 293 293 292 292 294 295 297 298 295 300 302 302 302 302 302
295 290 287 286 287 283 290 286 286 284 282 282 280 283 284 285 287 284 285 288 289 291 293 293 293 292 293 294 294 294 293 293 293 294 294 294 293 293 294 293 293 293 293 294 295 297 298 300 297 302 301 300 300 300
286 283 283 279 285 286 285 285 284 281 284 284 283 283 283 286 280 283 285 287 288 290 292 293 291 291 292 292 293 294 295 293 293 293 293 292 293 293 293 294 293 292 294 295 295 296 296 297 298 299 298 298 298 297
278 279 279 281 282 282 283 282 283 283 283 283 283 285 282 282 282 282 285 287 286 288 291 292 291 290 291 294 292 292 293 293 294 292 292 292 292 292 291 290 290 291 293 295 296 295 295 295 295 295 294 295 292 296
275 276 281 287 283 285 282 284 284 281 283 282 280 282 282 281 281 285 288 290 291 293 293 293 292 291 291 290 291 292 292 293 294 294 295 294 293 293 292 291 290 292 294 296 297 297 295 293 292 292 292 291 291 293
281 282 280 280 282 281 282 281 282 281 283 286 285 283 283 283 282 289 289 292 292 293 293 293 293 292 290 290 292 293 293 297 297 295 293 292 293 293 293 293 293 287 292 290 295 296 294 293 291 290 289 288 288 289
282 282 283 280 281 281 282 282 282 285 289 288 284 284 287 291 292 292 293 294 294 293 291 289 288 291 292 292 291 290 291 291 289 287 286 284 285 287 289 291 294 296 294 291 285 288 291 290 290 289 288 287 287 288
282 284 280 280 280 280 282 286 285 287 288 287 288 289 289 291 295 296 294 291 291 291 291 290 289 291 290 290 288 287 286 286 288 288 285 285 286 287 288 288 289 291 293 293 291 291 287 288 285 286 285 283 282 281
283 283 281 279 280 284 287 288 287 287 286 285 287 286 286 290 293 295 291 290 291 291 291 291 291 293 291 289 287 284 282 282 284 285 285 285 285 285 286 287 289 291 293 292 290 288 287 286 284 281 281 280 280 279
281 281 281 280 281 285 286 284 283 284 286 285 285 286 289 289 287 288 290 291 291 290 287 291 290 289 288 286 284 284 282 282 282 282 283 283 283 284 285 286 289 291 291 289 287 286 284 281 280 280 280 279 279 279
283 285 284 283 281 283 283 282 281 281 281 279 284 285 284 285 284 286 289 290 289 290 290 291 292 291 289 288 285 283 283 282 280 279 279 279 278 279 281 283 287 288 287 285 284 283 282 280 279 279 279 279 278 278

GFSWCAN_sfc_thetae_018.txt.gz
Theta_e
302 302 302 302 302 302 303 303 304 304 305 305 305 306 307 307 308 303 296 299 297 291 290 292 293 290 292 291 287 290 288 289 288 284 283 283 283 287 285 287 286 285 284 282 283 281 283 297 296 289 293 296 297 298
302 302 302 302 302 302 302 303 303 304 305 305 305 306 307 307 308 306 297 298 300 294 291 293 296 297 295 294 292 293 291 290 292 286 286 287 285 286 286 282 291 285 289 286 289 290 298 299 296 299 298 296 297 297
300 301 302 302 302 302 302 303 303 304 304 305 305 306 307 307 307 306 299 299 297 293 291 287 289 292 297 297 299 290 289 294 292 296 291 288 285 288 282 284 286 291 294 290 289 294 294 296 300 299 299 297 299 300
300 301 302 302 302 302 302 302 303 303 304 305 305 306 307 306 305 306 299 298 297 294 287 286 296 295 301 302 299 299 296 295 295 295 291 290 287 292 287 287 288 290 293 289 289 293 295 298 299 299 299 300 300 301
300 301 301 302 302 302 302 302 302 303 304 305 306 306 306 306 306 301 295 296 296 292 286 287 293 298 298 301 300 300 297 294 292 291 289 285 292 292 292 290 288 291 289 287 286 293 293 295 299 301 299 299 300 300
301 301 301 301 301 302 302 302 302 303 304 305 305 305 306 306 304 293 288 294 299 299 292 285 292 294 297 300 301 300 293 294 294 293 291 288 290 290 286 282 291 293 296 295 293 298 298 299 300 302 299 300 301 301
301 301 301 300 302 302 302 302 303 303 304 304 304 304 306 306 294 291 289 294 301 299 291 286 287 294 297 297 297 297 296 291 293 291 286 286 288 289 284 284 291 293 294 294 299 299 296 299 297 301 301 302 303 303
301 301 301 301 301 301 302 302 302 303 303 303 303 306 307 306 301 294 296 303 298 292 290 286 285 289 297 293 293 293 292 289 287 286 287 287 286 286 285 291 292 293 293 295 297 300 299 301 300 300 301 301 301 301
302 301 301 301 301 301 301 301 302 303 303 302 304 306 298 294 292 294 306 303 295 291 285 289 285 283 296 294 294 290 289 286 290 289 291 289 284 284 290 292 291 293 292 292 295 297 298 299 299 299 299 300 300 301
302 302 302 301 301 301 301 301 302 302 302 303 298 294 289 294 304 304 295 291 294 295 293 288 293 286 293 293 291 286 288 286 284 289 292 287 287 293 295 294 295 296 295 296 293 293 294 295 298 300 300 300 301 302
303 302 302 301 301 301 301 301 301 302 299 293 291 290 295 301 295 290 286 284 286 284 290 291 289 286 295 289 287 289 285 284 282 287 287 286 286 289 294 296 298 298 298 298 298 297 297 298 298 299 301 302 301 302
303 302 301 301 300 300 301 301 302 292 290 292 294 297 298 291 288 285 281 284 285 283 288 287 288 289 293 292 287 286 284 281 279 288 287 284 289 295 296 297 299 300 300 299 299 298 299 299 300 301 302 304 303 302
302 302 301 301 300 300 301 302 301 300 299 300 296 294 287 286 278 282 280 282 282 287 289 288 286 289 291 287 285 283 274 279 283 278 283 287 292 294 296 297 299 300 301 301 301 301 301 301 301 301 302 305 306 305
302 302 301 301 301 301 301 300 300 298 294 292 289 283 284 281 281 281 282 284 287 287 288 287 285 285 285 283 287 279 281 279 272 272 280 288 292 293 294 296 298 299 300 300 301 302 302 301 300 302 302 304 305 304
301 301 300 300 300 300 300 300 300 294 293 291 286 280 284 288 288 288 288 287 289 289 287 285 285 285 281 283 284 280 278 270 276 280 287 289 291 291 292 294 296 298 300 300 301 302 302 303 303 301 302 303 303 304
301 299 295 298 299 300 299 297 296 295 295 293 290 285 287 286 287 288 288 287 289 287 288 286 283 282 281 279 277 281 280 269 276 284 288 290 290 291 292 293 295 298 300 300 301 302 302 302 303 303 302 302 303 304
299 293 296 298 299 299 298 294 295 297 294 292 287 289 287 286 287 288 288 289 289 288 284 284 283 281 281 275 274 284 282 281 285 288 289 290 290 291 292 294 296 297 297 298 300 302 302 304 304 304 301 302 303 304
295 294 298 298 298 296 293 295 294 294 291 291 286 287 288 289 288 288 289 289 289 287 287 285 286 280 275 276 273 278 284 287 288 289 291 292 292 292 294 294 295 296 296 296 298 301 302 302 302 301 302 305 305 305
297 297 299 299 297 291 288 292 295 288 290 289 289 288 288 288 289 290 289 289 290 290 290 288 285 281 280 283 285 286 286 287 288 290 291 293 293 292 293 293 294 294 295 296 297 299 301 302 302 303 302 302 302 305
300 299 298 298 297 291 290 290 296 290 286 289 289 287 287 287 288 288 288 288 289 288 286 285 285 286 286 289 290 290 290 290 289 289 290 292 293 293 293 292 292 293 294 295 297 296 301 301 302 303 302 300 300 301
295 295 296 296 294 293 291 289 290 289 289 288 290 288 288 287 286 286 287 289 287 286 285 287 288 290 290 291 292 292 291 292 291 291 291 291 294 293 292 293 293 293 292 292 294 296 297 299 301 303 302 301 301 302
293 296 294 295 290 292 289 291 287 290 288 288 287 288 285 281 284 286 287 286 286 288 288 288 290 291 291 291 292 293 293 293 292 292 292 292 292 292 292 292 291 291 292 292 293 294 297 299 300 302 302 301 301 300
294 293 290 289 288 289 287 293 289 289 283 284 284 284 283 282 285 288 284 286 288 291 290 290 291 292 293 294 295 294 295 293 292 292 293 292 293 293 293 292 292 291 291 293 294 295 296 293 298 300 301 301 300 299
294 289 286 286 285 282 288 286 287 283 282 283 282 283 283 284 286 283 283 285 288 289 290 290 291 290 292 292 291 292 292 292 292 293 292 292 291 292 293 293 292 292 293 293 294 295 296 296 294 298 298 297 297 296
285 284 284 281 284 285 284 284 284 280 283 285 284 283 282 284 280 282 283 285 286 287 288 290 289 290 291 291 292 292 293 293 292 291 292 291 292 292 292 292 292 292 293 294 294 294 294 295 294 294 295 294 294 294
279 279 280 281 282 282 283 282 282 282 283 283 283 284 280 281 281 282 283 286 285 285 287 289 289 288 289 292 291 292 295 295 293 291 291 291 292 291 290 290 289 290 293 294 295 294 293 293 292 291 291 291 289 293
274 274 280 285 283 285 281 282 282 280 283 282 281 281 281 281 281 284 286 288 288 290 291 290 291 290 291 292 293 293 292 293 293 293 293 292 292 292 291 289 289 291 293 296 296 294 292 291 290 289 288 289 289 290
280 281 278 280 281 282 281 280 281 281 282 284 284 282 282 282 281 286 288 290 290 290 291 289 290 290 290 290 290 292 293 295 294 292 291 290 290 290 291 292 292 286 293 294 294 293 292 290 289 288 287 287 288 289
281 281 281 280 281 279 280 281 281 283 287 288 284 282 285 289 290 290 291 294 293 290 289 288 289 290 289 289 289 290 292 291 290 287 287 285 285 287 288 290 292 294 293 290 285 287 288 288 287 287 286 286 287 288
279 282 280 280 279 279 282 284 284 288 289 289 288 287 288 289 290 292 291 292 292 290 291 290 290 290 288 288 286 285 285 285 288 287 285 285 285 286 287 288 289 292 294 293 291 289 284 286 284 285 283 282 282 283
282 283 281 280 280 283 285 288 289 286 285 285 286 284 285 286 289 291 289 290 291 291 290 290 291 291 289 287 286 285 285 285 286 286 286 285 285 285 286 287 288 290 291 290 288 286 284 283 282 281 281 281 280 280
280 281 280 279 279 283 287 284 282 283 285 284 283 286 286 287 285 286 289 289 290 290 289 291 290 288 288 286 285 284 283 283 283 284 284 284 284 285 286 287 290 290 288 287 285 283 282 281 280 280 280 279 279 279
279 280 280 281 278 280 284 284 283 282 283 282 284 285 285 285 284 287 291 290 289 288 288 288 287 287 287 287 285 284 283 282 280 280 279 279 279 280 284 286 287 286 285 283 283 282 281 280 279 279 279 279 279 278

GFSWCAN_sfc_thetae_021.txt.gz
Theta_e
301 301 302 301 302 303 303 303 303 304 304 304 304 306 306 307 308 306 302 302 297 292 292 294 294 291 292 291 287 291 289 292 290 285 285 285 285 288 287 289 288 287 285 285 287 286 286 301 298 294 297 301 301 302
301 301 301 302 302 302 303 303 303 303 304 304 304 305 306 307 308 307 300 302 302 294 292 299 297 298 297 296 292 292 291 291 293 287 288 287 286 287 287 284 293 286 291 288 290 290 297 299 299 302 301 301 302 303
302 301 301 301 302 302 302 302 303 303 304 304 305 305 306 307 307 306 302 301 299 293 294 294 294 298 300 299 301 289 294 295 295 296 291 288 286 289 284 285 285 291 294 291 291 293 295 298 300 301 302 302 303 305
302 302 302 302 301 302 302 302 302 303 303 304 305 305 305 306 306 305 301 303 299 294 288 292 298 298 302 302 300 298 296 297 296 296 292 291 288 293 288 288 289 291 293 291 291 294 295 298 298 300 300 303 303 305
303 303 302 302 302 302 302 302 302 303 303 304 305 305 305 305 305 306 303 304 303 295 290 292 298 299 302 302 301 299 297 295 294 292 292 290 293 292 294 293 288 293 291 290 290 295 293 294 299 300 300 301 304 303
303 303 303 303 302 302 302 302 302 303 303 303 304 304 304 305 304 301 296 300 301 299 292 287 297 297 300 302 301 300 299 296 295 294 294 295 295 294 289 289 292 294 295 297 295 299 298 299 301 302 300 302 304 304
303 304 303 303 303 303 302 302 303 303 303 304 304 304 306 306 302 297 296 300 301 301 293 288 289 297 299 301 301 300 298 298 296 295 294 293 294 294 291 287 293 295 296 297 298 300 298 299 298 302 302 302 304 305
304 304 304 303 303 303 302 302 302 303 303 303 303 305 306 305 303 301 303 303 303 299 296 287 290 293 299 295 294 299 296 296 295 294 295 292 294 293 288 293 294 295 296 296 298 299 299 300 300 302 303 303 303 303
304 304 304 304 303 303 302 302 302 303 303 302 303 305 303 300 298 300 305 305 303 297 292 290 286 286 299 297 296 295 295 291 296 291 292 292 288 287 290 291 292 293 293 296 297 298 299 299 300 301 301 302 302 303
304 304 304 304 303 303 303 302 302 303 303 301 302 299 295 298 304 306 300 296 296 296 294 289 294 288 294 294 292 291 292 288 287 290 294 288 288 293 294 294 295 297 297 298 296 294 296 297 299 300 300 302 303 305
303 303 304 303 303 303 302 302 302 303 298 295 292 294 298 302 300 296 293 291 293 291 295 295 294 291 297 291 289 292 289 289 285 289 288 288 287 292 297 296 298 300 301 300 300 300 300 300 299 300 301 302 304 305
303 303 303 303 303 303 302 302 302 297 295 294 294 297 297 297 293 289 288 290 291 290 294 294 295 295 295 296 291 292 287 289 282 291 288 286 291 297 297 296 298 300 301 300 302 302 302 303 303 302 303 303 304 306
302 303 303 303 303 302 302 302 302 300 300 299 295 293 293 292 286 286 284 287 288 293 295 295 293 295 293 294 289 290 285 285 290 288 287 290 296 297 297 297 298 300 302 301 302 303 304 304 305 305 304 305 306 306
302 302 302 303 302 302 300 301 301 299 295 292 291 286 287 287 288 290 291 292 295 293 294 294 293 294 294 290 290 285 287 287 284 283 285 293 297 297 298 299 299 299 300 300 301 301 302 303 304 306 307 306 305 305
302 302 302 302 301 299 300 301 300 298 293 290 293 286 288 293 293 294 294 294 296 296 294 292 292 292 291 288 289 286 283 282 283 287 293 298 299 298 298 299 299 300 301 301 302 301 302 303 303 304 307 308 307 306
302 301 298 299 299 300 300 299 297 297 294 292 293 291 292 290 291 292 293 294 297 294 294 293 290 288 287 287 284 282 282 281 288 289 297 299 298 299 299 300 301 301 302 302 303 303 304 303 302 303 304 306 308 307
301 297 298 299 299 300 300 295 296 296 294 295 293 296 294 293 293 294 295 295 296 295 292 292 288 287 288 285 283 286 284 290 294 298 299 299 298 298 299 300 301 301 302 302 303 303 302 303 305 303 302 303 305 307
297 299 300 299 299 298 295 296 294 295 293 296 294 295 293 295 295 295 296 296 295 294 293 292 293 289 287 284 286 289 291 295 297 298 299 300 300 300 299 300 300 300 301 302 303 303 303 303 302 302 303 303 303 303
299 300 300 300 299 294 289 292 295 289 293 296 295 294 294 295 296 297 297 296 297 297 296 294 291 290 291 292 293 295 296 296 298 300 300 301 301 300 299 300 300 301 301 302 303 303 304 304 303 305 304 303 300 301
300 300 300 299 297 291 289 291 297 293 290 295 294 293 294 295 296 295 296 295 295 295 292 291 292 295 295 298 299 299 300 300 299 298 299 301 301 301 300 300 300 301 302 302 303 297 303 302 304 304 305 303 301 299
296 296 296 296 294 291 290 290 290 292 294 292 295 294 294 293 293 293 294 295 292 292 291 295 296 298 300 300 300 301 300 300 299 300 300 299 302 301 301 301 301 302 301 301 301 302 301 302 301 302 305 301 304 301
294 295 294 295 290 291 289 292 289 291 289 292 292 293 291 291 291 292 293 292 293 294 295 297 298 299 298 297 299 300 302 301 301 300 294 297 300 300 301 300 299 299 300 301 301 301 302 303 300 301 301 301 300 299
295 293 291 290 287 287 287 294 288 291 286 287 290 289 289 289 291 293 290 292 294 297 298 298 299 299 299 300 300 300 301 301 301 301 300 301 302 302 301 300 301 300 300 301 302 301 301 294 299 299 298 300 301 299
294 289 287 285 285 283 289 288 291 290 289 288 288 287 288 290 291 289 288 292 295 297 296 297 297 297 299 298 299 300 301 301 301 301 301 301 300 302 302 302 302 301 301 302 302 301 301 301 296 298 297 298 297 296
285 284 284 282 286 286 284 285 287 286 286 288 287 287 289 290 288 287 287 291 294 294 296 298 297 297 297 298 300 300 300 300 300 299 300 300 301 301 301 301 299 299 301 303 301 300 299 300 299 298 296 294 293 296
280 283 283 282 283 283 285 284 285 286 286 286 287 289 289 287 285 285 288 290 291 292 293 294 295 296 296 298 299 299 299 302 301 298 300 300 301 300 298 297 297 299 301 303 301 298 297 297 296 295 293 292 289 293
279 279 284 288 287 286 285 287 288 286 285 284 287 286 286 282 283 288 291 293 294 295 295 296 296 296 296 298 300 302 302 301 301 301 301 300 300 300 299 297 296 298 300 300 298 298 296 295 294 293 291 291 290 291
283 283 280 284 283 286 284 284 284 284 286 289 288 285 284 284 286 292 294 296 296 297 297 296 295 297 298 300 300 299 299 300 299 299 298 297 297 298 299 300 300 286 298 298 297 297 295 294 293 291 290 290 290 290
282 284 284 281 283 283 284 284 284 288 291 290 287 286 288 292 295 295 297 297 298 297 295 295 296 296 296 297 298 300 299 298 296 294 294 294 294 295 297 299 300 299 297 293 284 289 291 292 291 291 290 289 289 289
281 284 282 282 281 280 284 287 287 290 291 292 292 291 291 293 296 297 296 295 294 294 295 296 295 294 294 295 294 293 294 296 296 296 294 294 294 295 295 296 298 299 298 296 293 291 285 289 287 290 288 288 287 287
285 284 282 282 281 285 287 289 290 290 289 289 291 289 288 291 294 292 292 292 293 295 295 294 294 295 294 293 293 292 291 293 294 294 295 294 294 294 294 295 296 297 298 295 293 291 289 288 288 286 286 285 284 284
284 282 282 279 281 286 288 286 287 286 287 287 286 289 289 288 287 288 289 289 289 289 288 291 293 293 293 292 291 290 287 290 290 290 290 291 292 292 293 295 296 296 294 292 290 289 288 287 286 285 284 283 283 282
282 283 283 282 282 282 286 285 285 284 285 285 286 288 288 287 283 284 288 288 287 287 286 287 288 289 289 289 288 286 285 285 283 282 282 282 283 286 292 293 292 291 289 288 287 287 286 285 284 283 283 282 281 280

GFSWCAN_sfc_thetae_024.txt.gz
Theta_e
303 303 303 302 302 303 303 303 303 304 303 304 305 305 305 308 308 308 305 308 300 293 295 297 296 293 293 293 288 293 292 294 292 286 287 287 287 290 289 289 288 287 286 286 287 289 289 303 303 299 301 307 308 309
304 304 304 304 303 303 303 303 303 303 304 304 304 305 305 306 308 307 302 308 306 295 296 302 302 302 300 300 294 294 292 291 292 289 291 288 286 290 290 286 294 289 292 291 291 290 297 304 302 306 306 306 307 308
305 305 304 304 304 303 303 303 303 303 304 304 304 305 305 305 306 306 304 305 302 295 297 300 299 302 304 302 303 289 294 296 295 299 292 291 286 288 286 288 288 292 295 292 293 295 295 298 303 305 306 306 308 310
305 305 305 304 304 304 303 303 303 303 304 304 305 305 305 305 306 306 304 306 302 297 290 298 305 303 304 303 301 299 295 297 297 297 294 293 290 294 290 290 291 294 295 293 294 296 297 299 300 302 303 305 306 310
305 305 305 305 304 304 304 304 304 303 303 304 304 305 305 304 305 305 307 308 306 297 293 296 303 304 305 303 302 301 297 295 295 294 293 293 295 295 297 293 290 293 291 290 291 297 295 296 300 302 303 302 304 308
304 305 305 305 305 304 304 303 304 304 304 303 304 304 304 305 305 306 301 307 308 301 293 289 303 301 304 305 303 303 302 298 298 298 296 298 299 296 291 291 294 297 299 298 296 301 301 302 303 303 301 303 305 307
304 304 304 304 305 305 304 304 304 304 304 304 304 304 305 306 306 303 301 305 304 302 294 292 297 303 304 305 308 304 303 304 301 300 298 298 296 298 293 289 294 297 297 299 302 302 300 303 301 303 303 306 306 309
304 304 304 304 304 304 304 304 303 304 303 304 303 303 307 306 305 304 308 304 305 301 299 290 296 298 305 299 300 305 300 302 301 298 299 297 297 297 291 294 294 296 296 298 299 301 302 303 304 304 305 305 305 306
304 304 304 304 304 304 304 304 303 303 303 303 303 305 307 306 305 305 305 305 307 300 293 295 290 288 304 298 298 301 302 294 302 295 294 295 292 289 291 292 293 295 295 297 299 301 302 301 302 304 305 305 305 305
303 304 304 304 304 304 304 303 303 303 303 303 304 304 302 305 304 306 301 298 297 299 298 293 299 292 299 297 295 296 300 297 293 296 298 292 293 297 296 296 297 298 299 300 298 297 300 301 302 303 304 305 306 307
302 303 303 303 304 304 304 304 303 303 303 302 298 297 301 304 304 302 296 295 297 294 298 298 299 295 301 293 291 296 295 298 292 294 293 294 291 296 300 301 301 302 301 301 301 302 303 303 301 304 305 306 307 307
300 302 303 303 303 303 304 303 303 302 301 298 297 299 298 297 299 294 295 297 295 293 299 298 299 300 300 301 294 297 291 295 288 298 293 289 295 299 300 301 302 303 302 301 302 302 305 306 306 306 307 307 308 309
300 301 302 303 303 303 303 303 302 301 301 301 295 292 294 298 288 289 287 292 293 297 299 299 297 301 299 300 296 294 286 290 297 293 291 296 298 300 301 301 302 304 304 304 302 302 303 304 306 307 307 309 311 310
300 302 302 303 303 303 302 300 301 302 299 295 291 287 292 291 293 295 295 297 300 299 300 300 299 298 299 295 296 285 294 295 289 286 289 297 300 301 303 303 302 302 303 304 304 304 304 303 303 306 306 307 308 310
299 301 302 302 301 300 301 301 301 301 299 292 294 287 292 297 300 300 301 300 301 304 301 299 299 298 296 293 294 292 288 286 288 290 298 301 302 303 303 303 303 303 303 303 304 303 302 303 304 305 306 306 306 308
298 300 302 300 299 301 301 302 303 301 297 293 295 294 298 296 296 298 298 298 303 302 303 301 296 293 292 294 287 286 285 283 288 295 301 303 302 303 304 304 304 304 304 304 305 304 305 303 303 305 305 303 303 303
297 298 300 300 301 301 301 300 300 294 293 294 295 300 297 297 296 297 299 299 304 300 295 297 289 289 296 291 289 290 286 290 299 301 304 304 303 303 304 304 304 304 304 304 305 305 304 307 306 306 302 303 304 306
295 300 301 301 301 299 301 299 297 295 291 297 296 298 300 300 299 299 301 302 300 298 298 294 298 292 289 287 291 293 298 301 303 302 302 305 305 304 304 304 304 304 304 305 305 305 305 305 305 305 307 306 304 304
297 299 300 301 300 295 291 295 298 291 293 298 300 301 300 300 302 302 302 302 303 303 301 297 292 291 293 296 296 297 299 300 299 302 304 305 306 305 304 304 304 304 304 304 305 304 305 304 304 307 306 306 304 303
297 299 300 298 298 292 291 294 299 294 292 298 300 299 299 299 301 301 301 301 300 299 295 293 294 296 297 299 301 300 301 304 303 300 301 303 305 305 304 305 306 305 304 304 303 299 304 304 304 303 305 304 302 300
296 299 297 299 295 292 290 294 294 294 295 294 298 299 298 300 298 298 298 301 297 295 294 296 297 299 302 302 303 304 303 304 302 302 302 301 305 305 305 305 305 306 303 303 302 301 301 303 302 304 305 304 304 302
294 296 296 296 291 291 290 296 294 296 293 294 295 297 294 294 295 296 299 296 295 297 299 299 300 300 300 300 302 305 305 305 306 304 294 298 302 303 304 305 304 303 303 303 302 302 302 304 303 305 305 305 302 302
296 295 292 292 287 287 288 296 291 293 290 292 294 291 293 294 297 299 294 296 298 301 301 300 301 302 301 302 303 305 306 305 304 304 304 304 305 305 306 306 306 302 302 303 304 303 303 295 301 303 304 304 304 301
296 291 286 285 286 285 291 289 291 291 293 292 291 289 292 295 298 294 290 294 298 302 300 300 301 300 301 302 301 302 304 306 305 305 306 304 303 304 304 305 305 306 305 305 305 304 304 303 296 302 302 301 300 299
285 285 284 281 286 285 285 286 287 289 287 290 289 290 292 296 291 290 289 294 298 298 299 300 300 300 299 300 302 303 306 305 303 303 304 304 304 302 301 303 304 305 306 304 304 302 302 302 301 300 300 298 295 295
281 285 282 283 284 284 286 284 286 287 288 288 288 292 296 291 287 287 291 296 297 298 298 299 299 299 299 300 300 301 304 306 305 303 303 303 302 301 300 299 299 300 307 307 305 301 300 300 299 298 297 295 290 294
278 281 287 291 289 288 286 289 290 289 286 286 289 289 289 284 285 291 296 299 299 300 300 300 299 300 300 301 303 305 306 307 305 304 305 304 304 304 302 299 298 302 306 304 303 301 300 299 298 297 296 295 293 292
283 285 282 286 286 288 284 285 285 285 287 291 292 287 286 286 289 296 299 301 300 300 300 300 301 301 302 303 305 305 305 305 306 305 304 303 304 304 303 304 304 287 303 303 303 302 300 299 298 296 295 294 293 292
282 286 286 283 284 285 285 284 285 288 291 290 287 286 288 292 297 298 299 300 300 299 297 297 298 301 302 304 306 305 305 303 301 298 297 297 298 299 303 303 303 303 302 298 283 290 295 296 296 295 294 294 294 293
283 287 283 283 281 281 286 288 287 291 291 291 292 292 291 293 298 300 298 298 297 296 297 298 299 298 298 299 300 301 304 304 303 300 297 297 299 301 302 302 302 302 301 300 297 294 283 292 290 295 294 293 293 291
286 286 283 283 282 286 288 290 291 291 291 290 291 290 290 291 293 291 290 291 295 295 294 294 297 300 299 298 299 299 298 301 302 301 300 302 301 301 301 301 302 302 301 300 298 297 295 294 294 292 290 289 289 289
285 284 283 280 283 288 290 288 288 287 288 288 288 290 290 289 288 286 287 288 288 289 287 288 290 291 294 295 295 296 290 298 297 296 297 298 298 299 299 300 300 300 299 298 296 295 294 292 291 290 288 287 287 287
284 284 284 283 283 283 287 286 286 286 288 288 288 289 289 288 281 285 289 288 286 286 285 287 289 291 291 290 290 289 289 291 286 283 285 284 285 290 297 297 297 297 295 295 294 293 291 290 289 288 287 286 285 284

GFSWCAN_sfc_thetae_027.txt.gz
Theta_e
306 306 306 306 305 305 305 304 304 304 304 304 304 305 305 306 307 306 306 312 302 296 299 301 300 296 295 293 289 296 293 295 296 288 288 288 288 290 290 291 291 290 288 291 292 291 288 303 305 301 303 308 310 311
305 306 306 306 305 305 305 305 305 305 305 304 304 305 305 306 306 307 303 310 309 298 299 305 305 306 303 300 294 293 293 292 296 291 293 290 289 290 289 285 293 288 290 289 292 290 297 302 302 305 307 306 310 311
306 306 305 306 306 306 305 305 305 305 305 305 304 305 305 305 306 305 306 307 303 298 301 303 300 307 308 305 305 290 293 295 296 299 295 291 288 292 287 288 288 293 296 293 296 295 296 301 304 304 307 307 310 312
306 306 306 305 306 306 306 305 305 305 305 305 305 305 305 305 305 305 304 307 303 300 292 300 308 305 309 308 304 301 296 298 297 299 296 294 292 298 291 291 290 293 295 292 293 297 298 299 303 305 307 308 309 311
305 305 305 305 306 306 305 305 305 305 305 305 306 306 306 304 305 305 308 309 308 302 296 298 306 307 306 308 306 304 298 295 294 295 297 295 299 296 298 296 294 298 292 291 290 296 298 299 304 306 306 306 309 309
305 305 305 305 305 305 305 305 305 305 305 305 305 304 304 305 304 305 301 310 310 308 295 293 306 304 305 306 306 306 305 299 298 297 299 299 302 299 294 292 295 299 301 300 296 301 301 304 306 307 307 307 309 309
304 304 305 305 305 305 305 305 306 305 305 305 305 305 304 307 308 306 303 307 309 307 297 294 297 304 307 305 305 303 307 302 300 300 300 301 300 299 296 289 296 298 299 301 303 302 300 301 301 305 307 309 309 310
304 304 304 304 305 305 305 305 305 305 305 305 304 304 306 307 307 306 309 306 309 304 300 292 297 299 308 299 296 305 300 303 304 300 301 298 301 299 295 293 294 297 299 300 301 302 302 305 306 305 307 309 309 309
302 303 303 304 304 304 305 305 305 305 305 304 304 304 307 307 305 305 306 305 309 304 295 296 294 292 305 300 301 299 303 295 305 300 301 299 295 290 293 295 295 297 297 298 302 303 303 303 304 305 306 307 307 308
301 301 302 302 304 304 304 305 305 305 304 304 305 306 302 304 303 306 303 298 299 300 300 297 303 296 302 299 296 298 301 297 294 300 304 299 295 299 300 302 302 300 300 300 298 299 302 301 303 305 305 307 308 308
299 299 299 302 303 304 304 304 304 304 303 307 303 302 305 306 305 303 296 294 296 294 300 301 301 298 305 295 294 300 296 298 293 297 297 295 293 297 300 300 302 303 304 301 302 303 305 306 304 304 306 308 308 309
299 300 301 302 302 303 304 304 303 304 302 299 299 301 302 299 298 293 295 298 297 295 301 298 300 302 303 304 295 296 293 297 289 300 297 292 297 300 302 301 302 303 304 303 303 302 304 305 306 306 306 307 309 312
298 299 300 301 302 303 304 304 301 302 303 303 296 292 294 298 289 290 289 294 295 299 300 301 298 303 302 301 296 294 288 290 300 295 293 296 298 299 301 302 303 304 304 304 304 304 304 304 305 307 307 308 309 309
297 298 299 300 301 302 301 302 302 302 302 297 296 289 293 292 295 297 297 297 302 301 300 301 299 299 300 295 296 290 295 298 290 288 289 298 299 301 303 304 303 303 303 303 304 305 304 302 304 305 304 304 306 304
297 297 298 300 301 300 301 302 302 303 302 297 296 288 293 298 300 301 301 302 303 303 302 299 299 300 297 294 296 292 289 287 290 291 300 303 303 303 303 303 304 304 304 303 304 304 305 306 305 306 305 305 305 305
297 297 302 301 300 301 302 303 304 304 302 298 297 296 301 299 298 299 300 299 303 303 304 301 295 293 292 295 290 289 288 286 291 300 301 305 304 305 305 305 304 304 304 304 304 305 304 305 305 306 307 306 305 304
297 299 301 301 301 301 302 300 302 296 295 296 296 301 301 300 300 301 301 300 304 301 296 296 291 290 299 292 290 295 289 294 301 300 302 305 305 305 306 305 305 305 304 305 305 305 306 306 307 306 306 306 306 306
294 300 300 299 300 299 300 299 299 297 292 297 297 300 303 304 303 303 303 303 301 300 299 294 298 292 291 289 292 297 302 302 302 302 303 305 305 305 305 305 304 305 305 305 306 305 306 305 305 304 306 306 305 305
295 297 297 298 300 296 294 297 299 293 297 300 301 303 303 304 306 305 304 304 304 303 300 298 293 293 294 297 297 298 300 301 300 301 303 306 306 305 305 305 305 305 305 305 305 304 305 306 306 306 305 306 304 305
295 297 298 299 298 293 291 295 301 296 295 299 301 301 302 302 304 304 304 304 302 300 297 295 296 298 298 300 302 303 302 304 303 301 301 303 305 306 305 305 303 305 304 305 305 300 304 305 305 305 305 303 301 302
295 298 298 298 297 296 292 294 294 298 298 297 300 300 299 302 301 302 301 303 299 297 296 299 300 302 304 304 305 304 304 304 302 302 301 301 303 305 304 305 305 303 303 304 302 302 301 304 304 306 305 303 303 304
295 297 296 297 294 293 291 296 296 298 296 296 296 297 296 296 297 299 302 299 298 300 301 301 302 303 302 303 304 305 305 305 305 302 299 301 301 302 303 305 303 301 302 304 303 302 302 304 304 305 304 305 302 303
296 294 293 293 288 288 287 297 290 293 290 293 296 293 294 296 298 303 297 299 300 304 303 303 304 305 303 305 305 305 305 304 302 303 303 304 303 305 304 305 306 302 301 303 304 302 302 297 301 303 303 303 303 302
295 292 287 286 286 284 290 288 293 292 293 292 291 290 293 295 298 296 293 297 300 303 302 303 304 302 303 303 302 302 303 305 303 304 304 304 302 303 304 304 305 304 305 304 304 306 302 302 296 303 302 301 301 299
286 285 286 282 287 284 285 287 288 289 287 289 289 290 292 296 292 292 291 295 297 300 303 303 302 301 300 301 302 303 305 303 302 301 304 306 303 304 303 302 303 305 305 303 304 302 301 302 302 301 301 299 298 297
279 286 283 285 285 285 285 284 286 287 288 287 290 292 295 292 289 288 293 297 298 299 301 302 301 300 300 301 301 302 303 306 305 302 303 304 304 304 300 300 300 301 305 306 304 302 300 300 301 300 300 297 289 296
277 282 287 292 289 289 287 289 290 288 286 286 290 290 290 286 286 292 298 301 300 300 305 304 303 300 300 301 302 304 305 305 304 303 305 307 305 306 303 300 298 302 304 304 304 303 301 300 301 300 299 299 298 296
283 284 281 285 286 288 284 285 285 285 286 292 291 287 286 287 290 296 297 302 301 304 304 303 302 301 302 303 304 304 303 303 306 307 306 305 305 305 303 304 306 288 303 304 304 303 303 301 300 299 298 297 297 296
284 286 286 283 285 285 286 285 286 289 291 289 286 285 287 291 294 296 298 300 302 299 298 298 299 301 301 303 304 304 304 304 301 300 299 298 299 300 303 304 304 303 304 302 283 291 298 298 299 298 297 298 297 296
284 287 284 284 282 282 286 288 287 291 292 292 293 292 291 293 297 299 298 297 298 297 298 299 299 298 297 299 300 302 305 305 304 301 299 297 298 302 303 304 303 303 303 302 300 296 284 294 290 298 297 297 296 295
287 287 284 285 284 286 289 291 292 292 292 291 292 290 290 292 292 289 288 290 295 296 293 292 294 296 299 298 298 298 299 304 304 304 302 303 303 302 303 303 303 302 302 300 300 299 297 297 297 295 294 293 291 292
287 285 284 283 285 289 291 289 289 288 289 288 288 291 291 291 287 286 288 288 287 287 287 288 288 289 291 296 297 297 290 297 297 297 300 303 303 303 304 304 303 302 300 299 298 298 297 296 295 294 292 290 290 289
286 287 286 285 285 285 288 287 287 286 288 288 288 290 290 287 282 286 290 290 288 286 286 288 290 292 291 290 291 291 290 292 288 284 285 285 285 291 300 301 301 301 299 298 297 295 294 293 293 291 290 289 288 287

GFSWCAN_sfc_thetae_030.txt.gz
Theta_e
307 306 306 306 306 306 307 306 306 306 306 306 307 306 305 306 306 305 304 310 303 297 299 301 302 298 298 296 289 293 291 295 295 290 289 287 287 289 289 290 289 290 288 289 291 287 283 298 301 296 301 307 308 311
306 306 306 306 305 305 306 306 306 306 305 306 306 307 306 306 306 306 300 309 312 300 299 305 305 307 305 303 296 294 291 292 294 290 292 291 288 289 289 285 295 288 290 287 291 289 296 300 300 303 305 306 308 309
306 307 306 306 306 306 306 306 306 306 306 305 306 307 307 306 306 305 301 305 304 298 301 303 302 308 310 307 308 294 294 296 295 299 293 293 287 292 286 288 288 293 296 291 292 294 296 299 302 305 306 306 309 310
306 306 306 306 306 306 306 306 306 306 306 305 306 307 306 306 306 304 301 307 304 299 293 300 310 305 311 310 308 306 301 300 298 298 294 294 291 299 290 292 292 294 296 293 292 296 298 299 302 304 305 307 308 311
305 305 305 306 306 306 306 306 306 306 306 306 306 307 307 306 305 305 305 308 308 300 294 297 304 309 310 309 306 305 303 297 295 295 295 294 299 297 299 294 292 296 295 292 290 297 298 298 302 305 305 306 308 309
304 304 305 305 305 305 305 305 306 306 306 306 306 306 306 305 305 306 301 310 311 306 297 293 305 306 307 308 306 304 304 299 299 297 297 302 304 299 292 289 295 297 299 300 296 301 301 303 304 304 304 306 309 309
303 303 304 304 304 304 305 305 306 306 306 306 305 306 305 305 306 305 302 304 309 310 297 294 298 306 307 307 306 304 306 304 302 301 301 301 301 302 296 289 296 298 299 300 302 301 300 301 300 304 306 307 309 311
302 302 302 303 303 303 304 305 305 306 306 306 306 305 305 306 306 305 310 306 309 306 302 292 295 299 308 301 299 306 300 303 303 301 301 299 300 298 292 296 299 298 298 300 301 303 303 304 305 305 306 307 307 308
300 300 301 301 301 302 303 304 305 305 305 305 305 305 306 306 305 305 306 306 310 305 296 295 293 291 305 302 302 302 303 297 304 299 299 300 295 292 295 297 298 300 298 298 301 303 303 303 304 304 305 305 305 307
299 300 299 300 300 302 303 304 305 305 305 304 305 305 302 303 306 307 303 300 298 299 299 295 300 298 301 300 299 298 301 298 293 299 301 298 295 300 301 302 302 301 300 301 299 299 301 302 303 304 305 306 307 307
298 298 299 300 301 302 303 304 304 304 304 306 302 300 306 307 305 303 297 294 296 294 298 300 300 298 304 298 297 299 296 297 292 296 294 294 293 298 301 301 302 304 304 303 302 303 305 304 303 304 305 307 308 309
298 298 298 299 300 301 302 303 304 303 303 300 299 302 304 300 298 294 293 298 296 295 300 299 299 303 303 304 298 298 294 296 290 300 295 291 296 301 301 301 302 304 303 304 304 303 304 304 305 306 305 305 307 310
297 298 298 298 299 300 301 302 302 302 303 302 297 294 294 296 289 290 289 294 294 299 300 300 298 302 303 301 296 295 290 291 300 294 292 295 300 300 301 302 302 304 303 304 304 305 304 304 303 303 303 305 306 307
296 297 298 298 299 301 302 302 302 303 301 297 293 287 291 291 295 296 297 298 301 301 299 299 299 299 301 297 297 290 294 297 289 288 288 299 300 302 303 303 302 302 303 303 303 305 304 305 304 305 305 304 304 303
296 297 298 299 301 301 301 302 302 302 300 297 297 288 293 299 301 302 303 302 303 303 301 299 299 300 297 295 296 293 289 287 290 291 298 303 303 304 304 303 303 303 303 303 304 304 304 305 305 305 305 305 304 303
296 298 300 301 301 300 300 302 303 302 299 297 297 296 300 299 300 301 301 300 304 302 303 300 296 293 294 295 291 290 288 286 291 301 301 305 304 305 305 304 304 303 303 304 304 304 304 304 304 305 305 305 304 304
295 296 300 299 299 299 301 300 301 297 296 294 295 301 299 299 299 301 303 303 306 301 297 297 292 292 297 293 291 296 290 296 301 301 303 305 304 304 306 304 304 304 304 304 305 305 305 305 306 306 304 305 305 305
294 298 298 298 298 298 301 300 298 296 291 295 293 296 299 301 301 303 305 306 304 300 299 296 299 293 292 289 292 298 302 302 302 303 303 304 305 304 304 305 303 304 304 306 305 305 306 305 304 303 304 305 304 305
295 296 296 296 297 295 294 296 298 291 294 297 299 301 301 302 304 305 306 306 306 305 301 298 294 293 294 298 298 300 301 302 301 302 304 306 306 304 305 304 304 304 305 306 305 303 306 306 305 305 304 303 303 303
297 297 297 297 298 294 291 294 301 294 292 297 299 299 300 300 303 304 305 305 303 302 297 296 295 298 299 301 303 302 304 305 304 302 302 304 306 306 305 304 305 305 304 305 305 299 305 304 304 306 305 303 302 302
296 296 298 299 296 295 294 294 293 296 296 295 297 298 298 300 299 301 302 304 301 299 297 300 302 303 305 305 305 307 304 305 303 302 302 302 304 306 304 305 305 304 303 303 303 301 302 303 303 306 305 304 304 303
295 298 295 297 292 292 292 295 293 295 294 294 295 296 295 294 295 297 301 299 298 300 302 302 302 303 303 304 304 307 306 306 306 304 300 300 303 304 304 305 304 304 303 303 303 302 304 304 303 303 302 304 302 301
296 296 292 291 288 288 287 295 289 291 289 291 294 292 293 296 297 301 297 299 299 303 303 304 305 306 305 306 306 306 306 306 303 304 304 304 305 304 306 305 306 304 302 302 305 303 304 295 301 302 302 303 302 301
296 290 289 287 287 284 290 289 292 290 291 290 289 288 291 293 297 295 292 297 300 302 302 303 304 303 304 304 303 303 304 306 304 304 305 303 304 303 306 305 304 305 304 303 304 304 304 303 297 302 302 300 300 300
284 285 287 283 288 284 284 285 286 288 286 288 288 288 291 294 292 291 292 295 298 299 302 304 303 301 300 301 302 304 307 305 303 303 305 305 305 304 306 305 305 304 304 302 302 302 302 302 302 301 301 299 298 298
279 284 284 284 285 283 284 282 284 285 286 286 288 291 293 291 287 287 292 296 299 301 302 301 300 300 301 302 301 302 305 306 306 304 304 306 305 303 303 300 300 301 304 303 302 301 300 300 299 299 297 295 289 296
278 280 285 290 289 288 286 288 289 287 285 285 289 290 289 285 286 292 298 296 297 302 304 302 303 302 301 301 303 304 305 306 306 305 306 307 307 306 305 302 300 303 305 303 302 301 300 300 299 299 299 299 298 296
283 284 280 284 285 287 283 284 284 283 285 290 290 286 286 286 286 292 296 297 297 300 301 303 303 302 301 301 303 303 304 305 306 306 307 307 306 306 306 305 304 290 303 304 302 302 301 300 300 299 298 298 297 297
283 286 285 282 284 285 285 284 285 288 290 289 286 285 287 291 294 296 298 300 300 299 297 297 299 301 301 301 302 302 302 304 302 300 300 299 299 301 303 304 302 303 303 300 285 293 298 299 299 299 298 298 298 297
284 287 283 284 282 282 285 288 287 291 292 291 292 291 292 293 295 296 296 296 296 295 297 298 299 299 298 299 300 301 304 303 303 301 298 300 299 302 302 303 302 302 303 301 299 296 285 294 292 297 297 297 296 295
288 287 285 285 284 287 289 291 292 291 291 290 291 290 289 291 292 291 289 291 293 293 293 292 292 291 293 292 294 297 296 296 297 297 296 302 303 303 304 304 304 303 303 301 300 298 296 296 298 296 295 294 293 292
287 286 285 283 285 290 291 289 289 289 289 289 289 291 291 290 285 286 288 288 287 286 286 287 288 288 290 290 292 294 289 292 293 292 293 296 298 302 304 304 303 303 302 301 301 299 298 297 296 295 294 292 291 291
287 287 287 286 286 286 288 288 287 286 288 288 288 289 287 285 281 285 290 290 288 286 287 288 289 290 290 289 290 292 290 292 288 285 285 285 286 289 299 301 301 301 301 300 299 298 297 295 294 293 292 291 289 288

GFSWCAN_sfc_thetae_033.txt.gz
Theta_e
307 307 307 307 307 307 306 306 307 306 306 306 307 307 307 307 306 303 300 302 298 296 297 299 299 295 295 294 290 292 289 290 288 283 284 285 283 287 287 289 289 287 286 285 287 286 282 296 297 293 298 303 306 306
306 306 306 307 307 306 306 306 306 305 307 306 306 307 307 308 308 306 297 302 308 300 297 303 303 303 301 300 295 293 290 291 290 288 287 288 286 286 286 283 292 286 289 286 287 287 296 299 298 302 303 303 304 306
306 307 306 306 306 306 306 306 305 305 306 306 306 307 307 308 306 305 300 300 300 298 297 298 299 305 307 305 304 291 294 295 293 296 291 291 286 290 284 285 288 292 296 290 291 294 295 298 300 301 303 304 306 307
306 306 306 306 305 305 305 305 305 304 305 306 306 306 307 307 307 305 299 300 301 299 291 294 306 302 309 307 304 303 298 299 297 295 291 290 288 295 290 291 290 293 295 292 292 295 297 299 300 302 304 304 306 307
305 304 303 304 305 305 305 305 305 304 305 306 306 306 306 306 306 304 302 302 303 299 291 294 300 305 306 305 304 302 300 296 294 293 293 291 296 293 295 292 290 294 292 289 289 295 295 296 302 304 302 302 305 306
303 302 302 303 303 303 304 304 304 305 305 306 306 305 306 305 306 300 299 304 305 306 295 289 300 300 306 306 304 302 302 298 295 295 295 296 299 294 289 288 294 295 298 297 294 299 299 301 302 303 301 303 305 307
301 301 302 302 302 302 303 303 303 304 305 306 306 306 306 306 303 298 299 304 307 307 296 291 293 303 306 305 304 302 303 300 299 299 295 295 295 298 290 287 295 296 297 298 300 299 297 301 298 302 303 304 305 308
300 300 300 300 301 300 301 301 303 304 305 305 305 306 305 305 304 301 306 308 307 304 300 290 290 295 306 299 297 303 298 300 299 296 297 295 295 294 287 293 295 299 298 298 300 301 301 302 303 304 304 304 303 305
299 299 299 300 300 301 301 302 303 304 304 305 305 305 304 302 303 304 308 308 306 302 293 293 288 288 304 298 299 298 300 292 300 296 296 294 291 286 292 294 295 295 295 298 300 302 303 303 303 304 304 305 305 306
298 298 299 299 299 300 301 302 303 304 304 304 304 302 299 301 308 308 303 299 298 298 298 291 296 292 298 298 295 294 297 293 290 295 298 292 291 297 299 299 299 299 299 299 296 297 300 301 302 303 303 305 306 307
298 298 298 298 299 299 300 301 302 303 304 303 299 298 301 308 302 301 295 293 294 291 295 295 295 292 303 295 292 295 291 293 288 292 293 290 289 294 298 300 301 301 302 301 299 300 302 301 302 303 303 305 305 306
297 297 297 297 298 299 299 300 301 301 299 298 297 300 301 298 296 292 292 295 294 292 297 296 298 300 299 300 293 293 290 292 287 297 292 287 294 298 298 300 300 301 301 301 301 301 303 302 303 303 303 302 303 304
296 296 297 298 298 299 300 302 302 303 302 302 296 293 292 293 287 287 286 291 293 299 300 300 296 299 299 298 293 291 287 286 296 289 288 292 298 298 299 301 301 301 300 303 303 303 305 304 304 303 302 303 303 303
296 296 297 298 298 300 302 302 302 301 299 295 293 286 288 287 291 292 293 296 301 301 299 298 297 297 297 294 294 287 291 291 285 283 285 294 298 301 302 302 300 300 301 301 304 303 304 304 303 303 302 302 301 300
296 296 297 300 301 300 300 301 301 301 297 293 295 287 290 295 298 299 301 300 302 302 299 297 297 297 294 293 294 291 286 284 284 283 291 296 299 301 300 301 301 300 300 300 302 300 301 303 303 303 303 302 301 300
296 296 298 299 298 298 299 300 300 300 297 295 294 292 296 295 296 299 300 300 304 302 302 299 295 292 292 292 289 287 285 280 286 292 298 300 300 302 301 302 302 301 301 300 303 302 302 303 302 303 304 304 301 300
295 294 300 298 298 298 299 297 298 295 293 293 292 297 296 295 295 297 299 301 303 301 295 297 292 291 294 290 288 289 286 288 296 298 300 302 300 303 302 302 304 302 302 301 302 303 303 303 302 302 299 300 302 300
292 296 298 298 297 296 298 299 295 295 290 292 289 292 294 296 295 297 300 303 303 301 299 295 298 292 288 287 288 292 296 299 301 299 301 302 303 303 303 301 305 303 301 301 301 304 302 302 300 298 299 301 300 299
295 296 297 298 297 292 291 294 296 289 291 294 295 296 297 298 300 301 301 304 304 305 301 298 294 291 291 296 296 298 299 300 298 300 300 302 304 302 303 304 304 302 301 302 302 302 301 301 300 300 299 298 297 297
296 297 298 299 297 292 288 290 299 294 290 294 294 293 295 296 299 300 300 303 301 300 297 295 294 296 296 299 300 299 300 302 301 300 299 301 304 304 303 301 301 301 301 302 301 301 302 302 303 301 299 297 296 295
295 297 298 298 296 294 291 290 291 294 295 292 295 294 294 297 296 296 296 299 299 298 296 299 299 301 303 303 304 303 303 302 300 301 300 300 304 305 303 303 304 302 301 300 301 300 299 297 301 301 300 298 297 297
293 296 294 295 290 291 291 293 290 293 290 291 290 290 289 289 291 292 296 293 293 298 300 300 302 302 302 302 303 304 305 304 304 301 299 299 301 301 301 302 300 300 300 300 300 300 299 298 299 302 299 298 297 296
296 295 292 291 285 287 285 293 287 289 286 288 291 288 289 290 293 298 293 296 296 299 300 302 303 304 303 304 306 305 305 304 302 301 301 302 303 304 304 303 303 300 299 300 301 301 299 295 295 300 299 299 298 296
296 289 285 285 285 282 289 286 290 288 289 287 286 285 288 290 294 291 289 292 296 300 300 302 304 301 303 303 302 302 303 304 302 302 303 301 301 302 303 304 303 303 303 301 301 301 301 299 297 298 298 297 296 295
282 282 284 280 287 284 282 283 284 284 282 285 284 285 287 291 286 287 287 291 296 298 301 302 301 301 300 300 301 302 305 303 301 299 303 303 303 303 304 303 302 302 302 302 300 300 300 299 299 298 297 295 295 294
278 283 282 283 284 282 282 280 282 282 285 284 285 289 290 287 285 285 290 292 294 294 296 296 296 299 299 300 300 300 302 304 305 301 302 304 303 302 301 300 298 299 303 301 301 300 299 298 298 296 294 292 289 294
277 279 284 287 285 285 283 284 285 283 282 281 284 285 286 283 284 287 293 294 292 294 297 299 298 296 299 299 301 302 303 304 303 304 304 305 306 306 304 301 300 300 301 301 301 301 299 298 298 297 296 295 294 293
283 283 279 282 283 284 281 282 282 281 283 287 287 284 282 282 284 291 294 295 296 296 295 297 299 299 299 299 299 301 301 302 304 304 304 305 306 306 305 302 300 289 300 300 300 300 300 299 298 298 296 294 293 293
282 284 284 281 282 282 283 282 282 286 289 287 284 284 286 291 293 293 296 297 300 297 294 295 296 298 298 300 301 298 301 301 300 298 297 297 298 301 301 299 300 300 296 292 286 294 298 298 298 297 297 295 294 293
282 286 282 282 281 280 284 287 286 289 290 290 290 289 290 291 289 291 290 291 291 291 292 292 292 291 292 293 294 295 295 295 295 296 295 295 297 301 302 300 301 300 298 296 293 291 286 293 292 295 295 294 291 288
286 286 284 284 283 286 288 290 291 291 291 290 291 289 288 286 287 288 288 289 289 289 288 288 288 289 288 288 290 291 290 292 293 294 293 297 298 299 301 302 301 300 299 297 295 294 293 293 293 293 293 292 291 289
285 284 284 282 284 289 291 289 288 288 288 289 288 290 290 287 282 285 287 287 286 285 285 286 286 286 289 290 291 292 288 290 289 289 291 293 293 295 300 303 302 301 300 299 299 295 294 294 291 291 290 290 290 288
287 287 287 286 285 286 289 288 287 286 287 287 287 287 285 282 279 284 288 289 286 284 285 287 289 289 290 291 291 291 289 290 288 286 286 286 286 288 294 297 299 300 299 298 298 297 295 293 291 290 289 287 286 284

GFSWCAN_sfc_thetae_036.txt.gz
Theta_e
307 307 307 307 307 307 307 307 307 307 306 305 306 307 307 307 308 304 297 298 294 291 293 295 296 292 293 290 287 291 288 286 286 283 284 284 282 284 285 288 287 286 285 284 284 284 280 295 296 292 295 299 301 302
306 306 306 306 307 306 306 306 306 306 306 305 306 306 306 307 307 306 297 298 299 294 294 299 300 301 300 299 293 294 289 290 288 287 286 287 285 286 286 281 291 285 288 285 285 285 292 297 297 300 302 300 302 303
306 306 306 306 306 305 305 305 305 306 306 305 305 305 306 307 307 306 300 300 296 291 292 293 294 300 303 302 303 293 288 290 289 294 286 289 286 289 284 283 288 291 295 290 290 292 295 298 300 302 303 302 303 304
305 305 305 304 303 304 304 304 304 305 305 304 304 305 306 306 307 306 300 300 295 295 290 291 301 298 304 302 302 299 294 294 295 295 290 289 287 293 287 289 289 288 291 289 291 294 295 298 300 302 302 304 303 304
304 303 303 302 301 302 302 303 303 304 304 304 305 306 307 306 306 305 301 301 298 294 290 291 298 300 300 302 302 299 295 295 294 291 291 290 295 294 293 289 289 292 292 289 287 293 293 295 299 302 301 302 303 303
301 301 301 301 301 302 302 302 302 302 301 303 304 305 305 306 306 300 295 301 301 299 294 289 294 296 299 302 301 299 297 297 295 294 294 296 300 293 287 285 291 294 297 298 295 298 298 299 301 302 302 303 304 304
300 300 300 300 301 301 301 301 301 302 302 303 304 304 305 305 303 295 294 300 305 304 296 289 288 297 300 300 301 296 298 296 297 297 294 292 292 292 286 285 292 295 298 298 300 298 297 299 298 302 304 305 305 308
299 299 299 299 299 299 300 300 301 302 303 304 304 305 305 305 303 298 300 304 304 301 297 288 287 291 299 294 293 299 295 297 295 293 293 292 291 290 284 290 293 296 296 297 299 301 301 302 304 304 304 305 305 305
297 298 298 298 298 299 299 299 300 302 303 303 304 305 301 298 298 303 309 307 305 300 292 291 282 281 301 297 297 293 293 287 297 292 292 293 287 282 289 291 294 295 293 295 299 301 302 302 302 303 302 303 303 304
297 297 297 298 298 298 299 299 300 301 302 304 302 298 298 300 308 307 301 298 297 297 297 292 291 287 294 294 294 290 290 288 286 291 295 289 286 293 295 296 296 297 297 297 294 296 298 298 301 301 300 301 303 303
296 296 297 297 297 298 299 300 300 301 303 295 292 294 298 304 300 298 294 290 291 290 292 290 291 287 296 291 291 291 287 288 282 288 292 288 285 293 296 298 300 299 298 298 299 301 299 300 298 298 299 301 301 302
296 296 296 297 297 298 299 301 302 299 296 295 296 299 297 294 293 291 289 292 292 289 291 290 291 292 295 296 288 289 285 288 283 294 290 286 291 295 296 300 299 299 299 299 300 301 302 302 301 299 299 299 299 301
295 295 296 297 298 299 301 302 302 302 300 300 296 293 291 291 285 286 281 288 291 294 295 295 293 296 294 295 290 286 282 281 289 281 283 287 294 296 296 299 299 301 300 301 301 302 303 304 302 299 298 299 299 299
295 296 296 297 299 301 300 299 300 298 296 293 291 285 286 283 287 287 287 289 296 298 298 294 295 292 293 290 292 285 288 287 280 276 280 290 295 298 300 300 299 299 300 301 303 302 300 300 300 300 298 299 298 298
295 296 297 299 298 298 298 298 299 293 292 290 291 284 286 290 292 293 295 295 298 300 297 293 292 292 289 290 291 287 284 278 277 276 284 293 297 299 299 298 298 299 298 300 301 300 300 300 300 299 299 298 298 298
295 295 297 299 298 298 297 297 295 294 293 291 290 287 289 289 290 292 293 296 301 300 300 294 289 288 288 287 285 285 280 279 280 284 292 296 298 299 298 298 298 299 298 298 300 301 301 300 299 298 299 298 298 297
295 291 296 298 298 298 298 292 293 292 289 290 288 291 290 290 290 292 293 294 300 298 294 296 289 287 289 284 282 285 283 284 288 291 296 299 299 301 300 300 300 300 298 299 300 301 300 300 298 298 296 297 297 297
290 292 296 297 297 294 293 296 292 291 287 289 286 287 288 289 289 291 294 296 297 297 296 293 296 289 284 283 281 288 290 293 295 296 297 299 300 301 301 299 300 300 298 299 302 302 301 297 296 295 296 296 295 296
292 293 296 297 296 292 287 290 293 285 287 288 289 290 290 292 295 296 296 297 298 300 298 294 292 287 287 290 291 293 295 297 295 296 298 299 298 301 302 301 300 299 298 300 300 301 300 298 297 295 295 294 292 293
296 297 297 297 297 289 288 287 292 288 286 287 288 288 288 289 293 293 295 295 295 296 295 294 291 291 292 293 295 296 297 299 297 296 297 298 299 299 299 299 298 298 296 297 299 297 298 298 297 296 295 293 293 292
293 293 296 294 291 290 288 286 285 288 289 287 289 287 286 289 289 290 290 293 290 291 292 295 295 296 297 296 297 297 297 298 297 299 297 296 299 301 301 300 299 297 298 297 297 298 299 298 296 295 295 293 293 292
290 295 290 291 287 288 286 288 286 287 285 285 286 285 282 282 283 285 288 287 288 290 293 295 297 298 299 297 298 298 299 300 299 299 297 297 298 298 299 298 297 298 296 297 297 297 298 299 298 297 295 294 293 293
294 292 289 289 285 282 282 289 285 286 283 285 286 284 284 284 286 289 286 288 290 294 297 296 297 300 299 301 302 300 300 299 299 299 299 301 301 301 299 299 299 298 297 296 299 297 295 295 294 296 295 294 293 291
295 288 285 283 282 277 286 284 286 285 285 282 282 281 283 284 288 285 284 285 292 295 295 296 297 298 299 298 297 299 301 299 297 297 300 300 299 299 300 301 302 300 299 298 298 296 297 298 295 297 296 294 292 290
280 275 282 273 282 282 281 282 282 281 281 282 282 282 282 285 280 282 283 288 291 292 294 296 296 295 295 297 297 296 298 298 295 294 297 299 300 299 299 302 301 302 300 300 298 297 296 297 295 295 295 293 291 290
272 279 275 280 280 280 280 279 280 279 280 281 283 286 285 282 282 282 286 289 289 290 291 294 294 293 294 296 297 298 297 298 298 297 297 300 301 300 299 298 297 298 299 302 300 298 297 296 294 294 293 291 288 290
272 273 279 284 280 280 279 281 281 279 280 280 281 281 281 281 281 285 289 291 291 292 294 296 296 294 294 297 298 300 302 299 299 299 301 302 299 302 302 300 299 300 301 301 301 300 297 296 294 293 292 292 292 290
280 281 277 279 279 280 278 279 279 279 280 284 284 281 279 281 283 287 288 293 295 295 295 295 294 295 295 296 294 295 296 299 301 301 301 300 301 302 301 302 303 291 300 302 301 300 299 297 295 294 293 291 290 290
280 283 282 279 280 280 280 279 280 282 285 285 280 281 285 288 287 286 288 290 291 291 290 289 289 292 293 294 295 293 292 293 294 293 292 292 294 296 300 300 301 298 296 296 288 295 298 297 297 295 293 292 291 290
281 284 281 281 279 278 282 284 283 285 286 286 287 286 288 286 285 287 286 286 286 286 287 289 289 289 288 289 289 291 291 291 291 291 291 291 293 298 300 301 301 299 296 295 294 291 288 292 291 293 292 291 289 287
284 284 282 282 281 283 285 287 287 288 287 286 287 285 284 284 286 285 284 285 285 286 285 286 287 287 287 287 288 287 287 290 290 290 291 294 295 297 299 299 302 301 296 294 294 295 293 293 292 291 289 287 287 287
283 283 283 281 282 285 288 285 284 285 285 285 285 286 287 283 280 282 284 284 284 283 284 286 285 286 289 290 290 290 287 288 287 287 288 289 292 296 297 298 300 299 296 295 293 293 292 291 289 289 288 287 286 286
283 285 286 285 284 282 284 283 282 283 283 283 283 282 281 279 276 281 285 286 284 284 285 287 288 288 288 288 289 289 289 290 288 286 285 285 285 286 293 295 295 295 295 294 294 292 291 290 289 288 285 284 283 282

GFSWCAN_sfc_thetae_039.txt.gz
Theta_e
307 307 307 307 307 307 307 306 305 305 306 306 306 306 306 306 307 305 299 299 296 290 291 291 292 289 291 292 288 288 286 286 284 282 282 281 283 285 285 287 287 285 284 284 284 282 278 291 292 292 294 299 299 301
307 307 306 306 306 306 305 305 304 305 304 304 305 305 305 305 307 306 298 300 301 294 292 295 295 297 297 296 294 292 286 286 287 284 283 286 284 286 285 279 291 284 288 284 284 284 289 290 294 301 302 300 299 301
306 306 306 305 305 304 303 303 302 302 303 304 304 304 304 305 306 305 301 301 297 292 290 290 291 296 299 299 301 288 287 289 290 295 290 288 285 288 284 284 287 289 293 289 288 291 293 296 300 301 301 301 302 304
305 305 304 303 303 302 302 302 302 302 302 302 303 303 305 306 306 306 300 300 297 293 286 288 299 295 301 300 301 298 293 292 295 295 290 289 287 293 288 289 289 291 291 289 290 293 294 297 298 300 301 302 302 305
302 302 301 301 301 301 302 302 302 301 301 302 302 303 304 305 305 304 302 301 301 293 288 288 295 298 298 298 299 299 294 296 293 290 290 289 295 293 294 287 288 291 291 288 287 294 294 295 299 302 301 301 303 305
300 300 300 300 300 300 300 300 301 301 301 302 303 303 303 304 305 301 293 299 301 298 291 287 293 295 297 299 300 298 297 296 295 293 293 293 295 295 288 282 289 291 295 297 294 298 297 298 301 304 302 304 306 307
299 299 299 298 299 299 299 299 300 300 301 301 302 302 303 304 302 296 292 300 302 300 292 289 285 294 299 300 298 295 298 297 296 296 292 290 291 295 287 281 289 293 296 296 298 299 297 299 299 304 304 306 307 306
298 297 297 297 298 298 298 298 299 300 300 301 302 303 304 304 303 298 300 303 303 299 298 288 286 288 297 295 294 297 295 298 297 296 291 290 290 288 283 288 291 294 294 296 299 301 301 302 304 302 303 304 303 303
297 297 297 297 297 297 297 298 299 300 302 302 304 305 300 297 295 301 309 307 303 300 291 290 284 278 297 298 298 295 295 291 296 292 292 293 286 282 286 289 291 292 291 293 297 300 299 299 299 299 299 301 301 301
296 296 296 297 297 297 297 299 300 302 303 304 300 299 297 299 304 307 301 298 297 298 297 291 293 285 290 293 291 292 290 287 288 289 295 290 290 291 292 293 294 295 296 295 293 294 297 297 297 298 298 299 300 301
296 296 296 296 297 297 298 300 302 303 301 292 290 291 297 302 299 297 293 291 289 289 291 291 289 288 292 287 289 293 286 286 286 290 291 289 284 291 295 295 297 297 296 296 295 296 299 299 297 296 297 298 298 298
295 295 296 296 297 298 299 301 302 294 291 292 293 298 297 291 290 290 289 291 290 287 290 289 289 289 290 295 291 287 284 286 283 293 289 284 290 293 295 297 297 297 298 297 297 298 302 301 298 296 297 297 297 298
295 295 296 296 297 299 301 300 300 300 298 297 295 292 291 290 285 285 281 286 290 294 295 296 293 291 292 291 288 285 283 281 287 279 281 285 292 294 296 297 297 298 299 298 298 299 300 299 298 297 296 297 297 298
295 295 296 297 299 298 298 298 298 296 293 291 290 283 285 282 283 285 286 289 295 298 297 296 295 293 291 289 288 283 287 284 277 276 279 287 292 296 300 299 297 297 298 299 300 300 298 298 297 297 296 296 295 295
295 295 296 297 298 298 298 298 298 292 289 287 289 283 284 287 288 292 295 294 297 299 299 296 293 293 289 289 289 285 283 277 278 277 281 290 294 296 297 298 298 298 298 297 299 299 298 298 297 296 296 295 295 295
295 295 294 297 296 297 297 296 293 291 291 288 287 286 287 286 287 289 291 292 297 298 297 296 290 288 288 286 284 284 279 276 279 282 289 293 296 296 298 299 298 299 298 297 298 299 299 297 296 296 296 295 294 294
295 287 295 296 296 297 297 291 291 291 286 286 285 289 289 287 287 288 290 290 292 293 293 294 287 288 290 285 281 282 281 284 286 288 292 295 296 298 299 300 300 299 298 296 299 299 298 297 296 295 293 294 294 293
288 290 296 296 296 294 290 292 291 288 285 287 283 285 285 287 286 288 289 291 292 295 296 292 296 290 286 284 281 285 287 290 292 294 295 296 297 300 300 298 300 299 298 297 299 298 296 295 293 292 292 293 293 293
291 292 296 297 295 292 285 287 291 284 284 286 287 287 287 288 290 292 292 294 296 296 297 294 291 289 286 289 289 291 291 294 294 297 297 299 300 299 300 300 299 298 297 299 298 298 296 295 294 292 292 290 290 291
296 296 296 297 295 290 285 286 290 288 283 286 287 286 285 286 288 289 289 292 293 295 292 291 291 292 291 293 293 295 295 297 296 294 296 296 297 298 298 298 298 297 298 298 300 296 296 295 294 293 292 290 289 288
292 291 294 291 288 289 286 284 284 285 287 285 287 284 283 285 285 283 284 288 288 288 290 294 294 296 298 300 298 296 296 298 297 296 295 295 296 298 298 298 297 295 297 296 297 296 296 296 294 293 292 290 289 289
288 294 288 289 285 286 284 286 284 286 284 284 283 283 281 280 282 284 285 284 285 287 290 293 294 295 296 297 299 298 298 296 297 296 296 297 296 296 297 297 296 296 296 297 298 297 297 296 295 294 293 291 290 289
293 293 290 287 284 281 279 286 282 285 282 284 285 283 283 283 285 288 284 285 289 294 294 295 296 297 296 298 298 298 298 297 295 297 297 298 300 300 297 297 298 297 295 295 297 297 297 293 292 294 292 291 290 289
294 286 282 282 284 276 283 282 285 284 285 281 280 280 282 283 286 283 282 286 291 293 293 294 295 294 296 297 296 296 298 298 297 295 297 297 297 298 299 299 299 299 299 298 297 295 297 296 293 293 293 291 289 288
279 275 281 275 280 281 280 281 282 280 278 280 280 281 282 285 281 282 283 287 289 290 291 294 294 294 293 295 297 297 299 298 295 294 295 298 297 297 297 299 300 301 299 298 295 296 297 296 295 294 293 291 289 287
274 277 276 279 278 279 279 276 278 278 278 279 281 285 284 282 282 283 286 287 289 290 290 290 290 290 292 294 293 294 295 298 297 295 295 298 299 298 297 297 296 296 300 301 298 297 296 296 295 294 292 289 287 288
272 274 279 282 280 279 277 279 279 277 278 279 281 281 282 280 280 284 287 288 288 292 293 292 291 290 290 292 293 294 295 296 296 298 299 299 300 301 300 298 297 299 300 302 300 298 297 295 295 294 292 291 290 289
280 281 278 279 280 280 278 278 279 278 280 283 282 280 279 281 279 284 286 287 289 291 290 291 291 292 292 292 293 292 293 294 297 299 300 300 300 300 300 298 295 289 299 301 301 300 299 297 295 294 292 291 289 288
280 281 282 279 279 279 279 279 279 281 283 282 279 279 282 284 284 284 286 286 288 288 287 287 288 290 291 292 294 293 291 291 290 290 290 290 293 295 299 300 299 296 294 296 289 296 299 297 295 295 294 292 290 288
280 283 281 281 279 279 281 283 282 286 286 284 284 286 283 283 283 285 284 284 284 284 286 288 288 288 287 288 288 289 291 289 289 288 288 289 291 295 298 298 298 298 295 295 295 293 287 291 290 292 291 290 288 285
283 283 282 282 281 282 285 285 285 286 285 285 288 285 282 282 284 284 284 284 285 286 286 286 286 287 286 287 286 285 285 288 288 288 288 290 292 295 296 297 297 297 297 294 293 295 294 293 292 291 289 288 287 285
281 282 282 281 282 284 285 283 282 283 284 283 285 287 284 281 278 281 284 284 283 284 285 285 284 284 286 287 288 289 286 287 286 285 285 286 287 289 293 295 294 295 296 295 295 296 294 293 290 290 288 287 287 286
280 283 284 284 283 284 285 283 281 283 281 278 279 281 280 276 273 280 284 284 283 283 284 285 285 286 287 287 286 286 286 286 285 284 284 284 284 284 287 292 293 291 290 290 292 292 291 290 289 289 288 286 284 283

GFSWCAN_sfc_thetae_042.txt.gz
Theta_e
307 307 307 307 307 307 306 305 304 304 304 303 303 304 306 305 306 303 301 300 296 291 292 294 292 288 288 288 286 289 288 286 284 282 282 282 282 285 284 286 285 284 283 282 283 281 278 291 289 287 293 299 299 299
307 307 306 306 305 305 304 303 302 302 302 303 303 303 304 305 305 305 298 301 301 294 292 297 297 298 296 294 291 292 289 290 289 287 285 285 279 285 285 281 289 281 286 284 284 283 291 293 291 295 296 298 299 300
306 306 305 304 303 302 302 301 302 302 302 302 302 302 303 303 305 305 300 301 297 292 292 289 289 294 296 296 298 289 287 292 291 295 290 289 284 288 283 285 287 288 292 288 288 291 292 295 296 299 301 299 302 302
304 303 302 302 301 301 301 301 301 301 301 301 301 303 303 304 304 304 300 301 298 293 286 287 296 294 300 296 295 296 293 294 295 295 290 288 286 292 288 289 288 290 292 290 289 293 294 295 297 299 301 302 302 306
301 301 300 300 300 299 300 299 299 300 300 301 301 302 302 303 304 303 301 302 301 293 287 288 293 296 297 297 297 297 296 295 294 291 290 289 293 293 293 290 287 291 291 289 287 294 293 294 298 301 301 302 303 305
300 299 299 299 298 298 298 298 299 299 300 301 301 301 301 302 303 299 293 299 302 299 290 286 291 294 295 296 298 296 296 296 295 293 293 293 296 294 290 283 287 290 295 296 294 298 298 299 302 304 303 304 305 304
298 298 298 298 297 298 298 298 299 299 300 300 301 302 302 302 300 295 293 299 302 300 290 288 286 294 298 297 297 296 298 296 296 295 294 288 292 295 289 281 287 290 294 295 299 299 297 300 299 302 303 305 305 305
298 297 298 297 297 297 297 298 298 300 301 302 303 304 303 304 302 298 301 303 303 297 296 288 285 287 296 293 291 296 294 296 294 295 295 291 290 287 284 287 289 291 294 296 298 299 299 300 300 299 301 302 301 301
297 297 297 297 297 297 297 298 299 301 303 303 304 304 300 298 296 298 306 307 303 297 291 289 283 279 292 294 298 297 297 292 297 294 290 293 288 282 286 287 289 291 291 293 296 298 298 297 297 297 298 299 298 299
296 297 296 296 296 297 297 298 301 303 302 300 296 298 296 298 303 304 302 297 295 295 296 291 291 284 289 288 288 291 291 288 286 290 296 291 286 290 291 291 292 293 295 295 293 293 295 294 294 295 296 297 297 297
296 296 296 296 296 297 297 299 301 300 297 289 286 290 294 301 297 296 292 291 289 287 289 290 291 290 292 285 285 291 288 286 285 285 291 288 285 289 293 294 295 296 296 296 296 299 299 296 294 294 296 297 297 296
295 295 295 296 296 298 299 300 299 292 289 290 290 294 296 292 289 289 287 291 288 285 290 289 289 289 289 291 291 290 286 285 283 290 287 284 287 293 294 295 295 297 297 297 297 298 298 296 295 295 295 295 297 297
294 295 295 295 297 300 299 299 298 298 296 294 294 291 290 289 283 283 280 286 287 292 296 296 293 293 290 291 289 283 282 282 285 279 281 284 289 293 294 296 297 297 298 297 297 298 298 297 296 295 294 295 296 297
295 295 295 296 297 298 298 298 298 296 288 287 288 282 284 281 283 282 283 286 293 296 295 297 295 294 292 288 286 283 285 282 276 276 279 285 290 294 296 296 297 296 297 297 299 298 297 296 295 295 294 294 294 293
295 295 296 296 297 297 297 298 298 291 288 284 287 280 282 285 286 289 293 293 295 297 297 296 295 294 291 289 288 284 283 277 276 277 280 287 292 295 295 296 296 296 297 297 298 297 296 296 295 294 294 293 294 293
296 295 294 296 296 296 297 296 292 289 289 286 285 284 287 287 285 287 289 289 292 294 295 295 291 289 288 287 284 283 278 273 278 280 287 289 293 294 295 297 296 298 298 297 298 298 297 296 294 293 293 293 292 293
295 287 294 295 296 297 296 292 289 288 285 284 283 287 286 284 285 285 286 287 289 288 288 292 287 287 291 285 282 281 279 281 285 287 289 292 294 295 296 297 298 298 297 296 298 297 295 295 294 293 291 292 291 292
289 289 295 296 295 293 292 290 289 286 283 284 283 283 285 286 286 286 287 288 288 290 294 291 293 289 286 284 284 287 291 290 290 291 292 294 297 297 298 297 298 298 296 297 298 296 295 293 292 290 291 291 291 290
290 292 296 296 295 290 285 285 290 283 283 284 285 286 287 286 288 290 290 290 291 293 292 292 288 288 288 290 290 293 293 292 293 293 295 297 297 298 299 298 299 297 296 298 296 295 295 294 292 291 290 290 288 289
296 296 295 296 294 286 284 283 289 284 281 284 286 285 285 286 287 287 288 288 289 292 291 290 289 291 291 293 296 295 295 294 294 293 293 296 297 298 298 297 297 297 296 297 297 294 294 293 292 291 290 289 288 288
292 290 293 291 286 286 284 282 281 282 283 282 286 283 283 284 283 283 283 286 285 285 287 291 291 293 295 295 297 296 295 296 295 295 296 294 296 297 297 297 297 296 296 298 297 295 294 294 293 292 290 289 289 288
287 293 290 289 284 284 282 284 282 283 282 282 282 283 281 281 282 283 285 284 286 289 291 291 292 294 294 294 296 297 298 297 296 296 294 296 298 296 297 296 295 295 297 298 298 297 296 294 294 293 291 289 289 288
292 292 289 287 283 280 278 284 282 284 281 282 283 281 282 282 284 287 282 287 290 293 293 294 295 295 294 297 298 298 298 296 294 294 295 296 301 299 298 297 297 296 295 297 299 297 296 292 291 292 291 290 289 288
292 287 282 281 282 278 282 281 284 284 284 279 278 279 281 282 286 282 282 287 289 292 291 292 293 293 294 294 294 295 296 297 295 296 296 296 296 299 299 299 299 299 300 298 298 297 295 295 292 292 291 290 289 287
280 274 280 271 278 279 279 280 279 278 277 278 279 280 282 286 282 283 283 286 289 290 290 290 290 290 290 291 293 293 295 295 293 293 296 298 295 295 296 297 299 299 299 297 296 297 296 295 294 293 292 290 288 287
273 276 275 278 277 277 276 276 276 276 277 278 280 284 284 282 281 280 282 282 285 288 288 288 287 288 289 291 290 290 292 295 295 295 296 298 298 297 295 296 296 298 301 300 298 298 297 296 294 293 291 289 287 287
273 272 278 281 280 279 278 278 278 276 277 278 280 281 281 278 278 281 285 285 284 287 289 290 289 289 289 290 292 292 293 294 294 296 300 299 299 299 297 296 296 298 300 301 300 299 298 296 295 294 292 291 290 289
279 280 277 279 280 280 278 278 278 278 279 281 281 279 279 278 276 281 284 286 286 288 288 289 290 290 290 291 292 291 290 292 295 295 298 297 298 299 299 300 300 290 298 301 301 301 299 298 297 295 293 291 289 290
279 281 281 278 279 279 279 279 279 279 281 280 279 280 281 281 282 282 284 285 287 287 286 286 288 290 290 290 291 291 289 287 286 286 286 287 290 293 298 299 300 300 297 296 289 294 299 298 298 297 295 293 291 290
279 281 278 280 279 279 282 283 281 284 283 283 285 283 281 281 283 285 284 284 284 285 286 287 287 286 286 286 286 287 288 286 286 284 284 285 287 292 295 295 296 296 298 295 295 292 286 293 292 294 292 290 288 287
281 282 281 279 280 282 285 286 287 287 286 284 287 285 280 281 283 283 282 283 285 285 284 283 284 285 284 284 283 283 282 285 284 285 285 286 288 289 290 293 294 293 294 294 293 294 295 294 294 292 290 289 287 286
281 281 281 281 280 283 285 284 283 284 284 282 280 286 283 279 277 279 282 281 281 281 282 283 282 282 284 285 284 284 283 283 282 282 283 284 284 286 288 290 292 291 291 292 295 295 294 294 291 292 291 289 287 287
280 281 283 283 279 281 282 283 283 279 280 278 278 280 278 276 274 279 283 283 281 280 280 281 283 285 283 283 282 282 282 282 281 281 281 281 283 282 283 286 287 287 287 287 288 292 293 292 290 290 289 288 287 286

GFSWCAN_sfc_thetae_045.txt.gz
Theta_e
307 307 307 307 306 305 304 303 302 302 302 303 303 302 303 304 305 305 301 303 296 291 293 295 295 291 290 289 284 291 290 292 291 287 285 285 283 286 285 288 287 285 284 284 285 282 280 295 291 285 290 293 294 300
307 307 306 305 303 303 302 301 301 301 301 301 301 302 302 303 302 304 298 304 302 294 293 300 300 300 298 296 291 292 291 291 292 289 289 288 285 287 286 282 292 285 288 285 284 286 294 295 292 296 296 296 298 299
307 306 304 302 302 301 301 300 300 300 300 300 301 301 302 303 304 303 301 303 299 293 293 294 293 299 300 299 300 289 294 296 293 297 291 289 286 289 284 287 288 292 295 289 289 292 293 295 297 297 298 300 301 302
304 303 302 301 300 300 299 299 299 299 299 300 300 301 301 301 303 304 300 304 299 294 287 292 300 297 302 300 299 299 297 297 297 296 291 290 288 292 289 290 289 293 294 290 290 293 295 296 297 299 300 302 303 306
302 301 300 299 299 299 298 298 298 299 299 300 300 300 301 301 301 302 301 301 302 294 288 290 297 300 301 300 297 297 295 293 295 293 290 289 294 292 294 293 291 296 293 289 289 295 294 295 300 302 301 301 303 303
300 299 299 299 299 298 298 298 298 298 299 300 301 302 302 302 302 300 294 300 302 300 291 286 297 297 300 301 297 295 294 294 295 294 293 295 299 294 290 289 295 296 297 298 294 299 300 300 302 302 302 302 303 303
298 298 298 298 298 297 297 298 298 299 300 301 302 303 303 303 301 295 293 299 303 301 291 288 290 297 299 301 300 297 298 297 297 296 294 294 296 296 293 289 294 297 298 299 301 300 296 298 297 300 301 303 304 303
297 297 297 297 297 297 297 297 298 299 301 303 303 303 303 304 302 297 301 303 302 296 295 288 290 293 300 298 295 300 296 297 297 296 298 295 296 293 291 296 296 298 299 300 300 300 299 299 298 299 300 301 299 299
296 297 297 297 297 297 297 298 298 300 303 301 301 303 303 301 296 299 305 307 302 297 290 290 288 287 297 300 301 299 299 292 298 294 296 296 292 290 295 295 296 298 298 298 300 300 299 297 297 297 298 298 297 297
296 296 296 296 296 296 297 298 300 301 300 299 297 297 296 300 302 303 300 296 294 295 294 290 294 289 295 295 294 296 294 292 289 294 298 293 292 299 299 298 300 300 301 301 299 298 297 296 295 295 297 298 298 298
296 296 296 296 296 297 298 300 300 299 297 293 288 290 295 299 300 298 292 291 291 289 293 293 293 290 297 291 292 296 292 292 288 292 292 289 290 297 300 299 301 302 303 302 302 302 300 299 296 295 296 297 298 298
295 295 295 296 296 297 300 299 299 296 294 293 292 295 295 293 292 290 288 291 288 287 293 292 292 293 296 297 294 292 291 291 285 293 292 286 294 299 299 300 302 303 303 303 303 301 301 300 298 297 296 296 297 297
295 295 295 295 296 297 299 298 298 298 298 295 292 290 290 290 283 282 281 287 288 293 296 295 293 293 294 295 293 291 288 288 292 289 288 293 298 299 300 302 302 304 304 303 303 302 301 300 299 297 296 296 296 296
296 295 295 296 296 296 297 297 297 297 292 286 287 282 284 282 285 287 288 290 296 297 295 295 293 290 295 291 293 288 291 291 286 284 287 296 298 300 301 302 303 303 303 303 303 302 300 299 298 297 296 296 294 293
296 296 296 296 296 296 297 297 297 295 290 283 286 280 284 289 290 291 293 294 296 298 296 295 296 296 291 288 292 290 287 285 287 288 293 297 299 301 301 301 303 303 304 303 304 302 300 299 297 296 296 295 294 293
296 295 294 296 296 296 297 297 295 292 288 284 283 282 287 287 289 291 292 291 296 297 295 296 292 290 289 289 287 288 287 285 290 292 296 298 300 301 302 303 303 304 304 304 304 302 301 299 297 296 296 295 293 292
295 291 293 295 296 297 296 292 291 287 284 284 284 288 288 287 287 289 291 292 295 292 290 295 288 287 291 287 287 290 288 293 295 296 297 298 301 302 303 303 303 305 304 305 304 302 300 300 298 297 295 295 293 292
291 293 295 296 296 295 293 292 288 286 282 285 284 287 290 291 290 290 292 293 292 293 294 292 296 290 287 286 289 294 295 298 299 299 299 300 302 303 303 304 303 304 304 305 304 302 301 299 297 296 296 295 293 292
294 295 296 296 295 290 286 287 289 283 285 287 289 290 290 290 292 292 293 294 294 295 294 294 291 289 291 295 294 297 299 300 299 301 301 303 303 303 304 304 304 304 304 305 304 302 302 300 298 298 297 296 294 293
296 295 295 295 295 288 284 286 291 286 283 286 289 288 289 288 290 291 291 292 291 292 291 290 291 292 293 295 296 296 298 299 299 298 301 303 304 303 304 304 304 305 304 305 303 298 301 299 299 298 298 296 295 292
293 292 294 293 290 289 286 286 285 286 287 286 288 287 285 287 286 287 288 290 290 290 289 290 291 294 296 297 298 298 299 299 299 300 301 301 304 305 304 304 305 304 303 304 302 300 298 299 298 298 297 296 295 293
291 293 291 291 286 286 285 289 285 287 285 285 285 287 285 285 286 288 290 290 289 289 291 291 293 294 294 296 297 298 298 299 300 300 297 298 303 304 304 304 303 302 303 304 303 302 302 300 299 298 297 295 295 294
293 292 290 288 283 283 281 288 284 285 282 284 286 283 284 285 287 291 288 289 288 292 292 292 292 294 294 296 296 296 296 295 295 297 300 301 302 304 304 304 304 304 303 304 305 304 302 295 295 297 296 296 295 293
293 287 283 282 282 280 285 283 286 284 284 281 279 279 282 284 289 287 285 286 287 291 289 290 290 291 292 292 291 292 294 295 295 296 300 300 300 303 304 305 304 305 307 307 305 303 300 299 294 296 296 295 295 294
279 277 280 273 281 279 279 281 280 280 277 279 278 280 283 286 283 283 280 281 284 285 286 288 288 288 288 290 291 291 293 293 292 294 298 299 301 302 303 305 305 305 305 303 303 302 300 299 298 297 296 295 294 294
271 278 277 279 281 280 280 277 277 278 279 278 280 284 284 282 281 279 281 282 283 285 285 286 286 286 287 289 289 289 290 292 293 294 296 298 298 300 301 301 302 303 305 306 304 302 300 299 298 296 295 294 289 293
273 276 281 285 284 283 280 282 282 280 278 278 281 281 282 279 277 280 284 285 284 285 287 288 288 287 287 288 290 291 291 290 291 294 298 298 298 299 299 298 298 302 305 305 304 303 301 300 299 298 297 295 294 294
280 281 278 281 281 283 279 280 279 278 280 284 283 279 278 277 276 281 284 286 286 287 288 289 289 289 289 289 289 288 287 288 291 294 296 294 294 295 295 298 300 289 302 305 305 305 303 301 300 299 298 296 295 295
280 283 283 280 281 281 281 280 280 283 285 284 282 281 280 281 283 283 284 286 287 287 286 285 286 288 288 288 288 288 286 285 283 284 285 285 286 288 291 293 295 297 300 301 288 296 303 303 301 300 299 298 297 295
281 285 281 281 279 280 283 285 284 287 289 288 286 283 282 283 284 285 284 284 284 283 284 285 285 284 283 283 284 286 287 285 283 281 281 282 284 287 290 291 292 293 294 298 299 298 287 297 294 299 296 296 294 294
285 284 282 282 281 285 287 289 289 288 288 288 288 284 281 282 283 284 283 284 284 284 283 283 283 283 282 282 282 282 282 284 284 283 284 285 286 286 288 289 291 292 293 295 299 297 297 298 299 297 293 292 292 291
284 283 282 281 283 287 289 288 287 286 286 284 283 284 283 281 278 281 283 283 283 282 282 283 282 281 283 283 283 284 282 283 283 282 282 282 283 283 285 287 290 290 291 292 293 297 298 298 298 296 293 292 292 292
284 284 284 284 283 283 286 285 284 281 282 281 280 280 280 279 276 281 285 284 282 281 281 283 284 284 284 282 282 282 282 282 282 281 280 280 281 281 282 285 288 287 287 286 286 286 286 290 291 292 292 291 289 288

GFSWCAN_sfc_thetae_048.txt.gz
Theta_e
307 307 307 307 305 303 303 302 302 301 301 301 302 302 302 303 303 302 302 308 300 293 294 296 297 293 293 291 286 292 292 296 295 291 290 289 287 289 287 290 289 287 286 285 287 284 282 296 293 286 294 294 295 296
307 307 306 304 303 302 301 301 300 300 300 300 301 301 302 302 303 303 298 306 308 297 294 302 302 302 299 298 293 292 292 293 294 291 292 293 288 290 288 285 295 288 290 287 286 287 296 297 294 295 296 295 296 298
307 306 304 302 302 301 300 299 299 300 300 300 300 301 301 302 302 303 302 305 303 295 295 298 299 305 306 304 304 291 294 298 298 298 292 291 286 292 288 290 291 294 296 291 290 295 295 297 298 299 299 298 300 302
306 304 302 301 300 300 299 299 299 299 299 300 300 301 301 301 301 301 300 304 302 296 288 296 305 303 307 306 304 303 303 304 303 298 292 291 289 296 291 295 292 295 296 294 291 295 297 297 298 300 300 301 300 304
303 302 300 300 299 299 299 299 298 299 299 300 301 302 302 302 302 302 300 301 302 295 290 293 300 305 306 306 303 303 301 299 296 293 292 289 293 294 295 295 295 298 295 291 290 295 296 296 299 299 298 299 300 302
301 300 299 299 299 298 298 298 298 298 300 300 302 302 302 303 303 301 294 302 303 301 291 287 302 301 304 305 304 302 300 297 294 294 294 296 300 296 290 292 297 299 301 302 296 301 299 300 299 299 298 300 302 302
299 298 298 298 298 298 298 298 298 299 299 300 302 303 303 303 303 295 297 300 304 302 292 288 292 303 303 304 300 299 300 298 296 294 293 296 298 297 293 292 298 299 301 302 303 301 298 299 296 298 298 301 302 301
298 297 298 298 298 297 298 298 298 299 300 302 302 302 302 303 302 298 303 304 303 297 295 288 291 298 304 300 298 301 296 296 297 296 298 299 300 299 291 299 299 300 301 301 302 302 301 301 298 297 299 299 298 299
297 297 297 297 297 297 297 298 299 301 300 301 301 300 304 301 296 301 305 306 302 297 290 290 288 291 302 302 305 301 300 292 299 293 295 301 297 293 298 298 299 300 300 300 302 302 301 299 297 296 297 297 296 297
296 296 296 296 296 297 297 299 300 300 300 300 300 300 298 299 301 303 300 296 294 294 293 290 296 291 299 298 299 299 298 293 291 297 302 296 295 301 303 302 304 302 303 303 300 298 299 298 296 296 296 297 297 298
296 296 296 296 296 297 297 299 299 299 300 296 291 292 298 301 301 298 293 292 291 288 292 293 294 291 300 293 294 300 295 296 290 295 295 292 293 301 303 303 304 304 304 304 304 303 302 300 297 296 296 297 297 298
296 295 295 296 296 296 297 299 298 297 294 295 295 297 296 295 294 290 289 293 292 290 296 295 297 295 297 302 297 298 291 296 288 300 294 291 298 302 302 302 304 304 304 304 304 303 302 301 298 297 298 296 297 298
296 296 295 296 296 297 297 298 298 297 298 298 292 289 290 291 284 283 283 286 289 296 297 296 293 294 295 298 296 294 291 292 300 293 292 297 302 304 303 304 304 306 305 305 304 304 303 301 300 298 297 296 297 297
296 296 296 296 297 296 297 297 297 297 295 290 287 283 285 285 286 290 290 291 296 298 295 296 295 292 295 293 294 291 295 296 290 288 290 298 301 304 304 305 304 304 304 304 304 303 301 300 299 299 298 297 295 295
296 296 296 296 296 296 297 297 297 297 293 286 287 281 286 292 293 293 294 295 297 298 297 295 296 293 287 287 292 294 291 288 291 292 298 301 305 305 304 304 304 304 305 305 305 303 301 300 300 299 298 297 295 294
295 296 297 295 295 296 297 297 297 293 290 288 286 284 288 288 289 289 290 291 296 295 295 295 292 290 289 291 289 290 289 288 294 300 301 304 306 305 305 306 306 305 305 306 306 304 302 301 300 300 299 298 295 294
295 295 294 295 296 297 297 294 291 287 285 285 287 291 289 289 289 291 291 292 295 293 290 294 289 287 290 287 287 295 292 299 301 302 304 305 307 306 307 306 306 306 306 307 306 305 302 302 303 301 298 297 296 294
295 297 295 296 297 296 297 296 290 287 282 287 286 288 290 291 290 291 293 295 295 294 294 291 296 291 289 287 291 296 299 303 304 305 305 307 308 308 307 307 307 307 306 307 307 305 304 301 301 301 301 300 299 297
295 296 296 296 296 293 289 291 293 285 287 289 290 290 291 292 294 295 294 295 297 296 294 294 291 290 291 294 293 296 298 299 301 304 305 308 309 308 308 308 308 307 307 308 308 306 305 303 302 302 302 300 298 299
295 294 295 295 295 292 285 290 295 288 285 288 290 290 290 291 293 294 294 294 293 292 291 290 290 290 292 293 295 296 297 300 300 299 303 308 308 309 309 309 308 308 308 308 308 301 305 302 303 303 302 300 299 298
294 295 294 295 295 294 290 289 288 290 289 288 290 290 289 292 291 291 292 295 293 290 289 291 291 293 296 298 299 298 297 298 298 301 302 302 306 308 310 310 310 308 307 307 306 304 301 304 302 302 302 301 300 299
295 293 295 295 290 289 289 293 289 290 287 289 289 289 287 288 289 290 294 290 288 287 289 290 291 292 293 294 295 297 297 298 299 301 299 300 303 306 308 310 308 307 307 307 307 306 306 305 303 303 302 300 299 299
293 294 293 291 285 286 285 294 286 287 284 285 288 285 287 288 290 294 287 287 287 289 290 289 291 292 293 294 295 295 297 296 296 297 300 302 306 307 308 309 308 308 307 308 309 308 307 298 299 302 301 301 300 298
293 289 284 285 286 282 288 286 290 286 286 284 283 282 285 287 290 288 283 285 287 289 288 288 289 289 291 292 290 292 293 294 295 295 298 298 300 305 308 309 309 309 310 310 310 308 308 305 299 302 301 301 300 300
283 281 284 278 286 282 281 282 282 283 279 282 281 282 285 288 284 284 282 284 286 287 287 288 288 288 287 289 290 290 292 291 289 290 296 297 298 304 307 310 309 309 310 310 309 308 307 305 304 303 302 301 300 300
277 281 281 282 284 282 284 278 279 280 282 280 283 287 289 286 282 280 283 284 284 285 286 285 286 286 287 288 287 287 288 289 289 290 294 295 294 293 297 303 305 308 311 310 310 308 306 305 304 303 302 299 291 299
277 279 285 289 288 287 285 287 287 284 280 280 284 284 285 279 279 283 287 287 285 287 289 289 288 287 287 288 288 289 290 289 288 291 295 294 294 293 293 292 293 295 303 308 310 309 307 306 305 304 303 302 301 301
285 285 281 285 285 287 281 282 281 280 283 288 286 281 278 278 279 285 286 288 288 290 289 289 289 289 289 289 290 289 289 290 290 291 294 293 292 292 291 294 295 288 298 306 309 310 309 308 306 304 303 302 301 302
284 288 287 283 283 283 283 283 284 288 290 288 284 283 283 285 286 285 287 288 288 287 286 286 287 289 290 290 290 290 288 287 285 284 284 285 285 287 290 291 292 293 295 300 290 292 306 307 307 305 303 303 303 302
285 289 285 283 281 283 287 290 289 291 291 290 290 287 284 284 285 288 287 286 285 284 285 286 287 286 285 285 286 287 288 287 286 284 282 282 284 288 290 290 292 293 294 295 301 304 288 300 296 303 301 301 301 301
289 288 284 285 284 289 291 293 293 293 290 289 290 287 284 283 285 286 285 286 286 286 285 284 285 285 284 283 283 284 284 287 287 287 286 287 288 288 288 290 291 293 294 294 296 297 298 300 302 302 302 301 300 295
287 285 285 282 286 291 293 291 290 288 287 286 285 286 285 284 281 283 284 284 283 282 282 283 283 283 286 286 286 286 284 286 285 285 284 285 286 286 288 289 291 291 292 292 290 291 294 296 297 298 298 298 296 293
286 286 286 285 285 284 288 287 285 284 284 284 284 284 283 282 278 283 286 286 284 283 283 284 286 287 287 286 286 286 285 286 284 282 282 282 282 283 285 287 289 289 288 287 288 288 286 285 286 287 289 290 291 290

GFSWCAN_sfc_thetae_051.txt.gz
Theta_e
306 307 307 307 306 304 303 302 301 301 301 301 301 302 302 302 303 303 302 306 301 295 298 300 301 295 294 294 289 295 294 296 296 291 291 291 290 292 291 292 291 289 287 287 288 285 282 298 294 287 294 296 296 297
306 307 307 305 304 303 302 301 300 300 300 300 301 301 301 301 302 303 299 305 310 299 298 304 303 303 300 299 296 295 294 293 296 294 293 294 291 294 292 286 297 289 293 289 289 290 299 300 297 298 299 297 297 298
306 307 306 304 302 302 301 300 300 300 300 300 300 301 301 302 302 302 299 302 302 297 298 300 300 307 309 307 306 292 295 299 299 302 295 291 289 296 289 292 293 297 300 294 293 296 297 299 299 301 300 299 300 300
306 307 304 302 301 300 300 300 299 299 300 300 300 301 302 303 303 302 300 302 303 298 292 298 307 304 307 307 306 306 304 305 305 302 294 291 289 298 293 295 295 298 299 295 295 298 297 297 299 299 299 298 299 300
306 305 302 301 300 300 299 299 299 299 299 300 301 301 302 303 303 303 302 304 304 296 292 294 301 307 308 308 305 304 303 301 297 294 292 290 295 295 296 298 296 300 296 294 292 299 297 297 299 299 296 296 297 298
305 302 301 300 299 299 299 299 299 299 300 300 301 301 302 303 303 300 295 305 304 303 292 287 304 303 306 306 304 302 301 299 297 293 293 297 301 297 291 291 300 301 302 302 299 302 301 300 300 299 295 296 298 300
303 301 299 299 299 299 298 298 299 299 300 301 302 302 302 302 302 297 298 300 303 303 292 289 293 302 307 306 305 302 303 299 297 294 292 295 299 298 295 292 300 301 302 302 303 302 299 299 296 298 297 296 299 300
300 299 298 298 298 298 298 298 298 299 301 302 302 302 302 302 302 299 304 304 305 298 295 289 292 298 307 302 297 302 297 296 296 295 297 297 299 298 293 300 302 301 302 302 301 303 301 301 300 298 297 296 297 298
299 298 298 297 297 297 298 298 299 301 301 301 302 302 303 302 297 301 306 306 303 297 290 290 290 293 304 301 306 302 302 292 299 293 295 298 297 294 299 301 300 302 302 301 302 301 301 299 296 296 294 295 295 297
298 297 297 297 297 297 297 298 299 300 301 301 302 301 300 303 300 303 301 298 294 294 292 289 297 292 299 298 298 301 301 296 291 297 302 298 297 303 304 303 304 303 304 304 299 298 298 297 296 296 295 296 297 297
297 297 296 296 296 297 297 298 298 299 301 300 296 295 300 302 300 299 294 293 291 288 292 294 296 292 299 294 294 300 297 297 291 298 296 295 297 301 304 304 304 305 305 305 303 302 301 298 297 296 295 295 296 298
297 296 296 296 296 297 297 297 298 298 297 295 295 298 298 295 293 290 289 293 292 290 296 295 296 298 298 301 297 299 295 297 290 302 295 293 297 303 303 302 304 304 305 305 303 301 300 299 298 297 297 296 295 297
297 296 296 296 297 297 297 297 297 298 298 300 295 290 290 292 284 285 284 289 290 298 300 301 298 295 296 298 297 298 291 293 301 295 294 297 301 303 303 304 304 305 305 305 303 301 300 300 299 297 297 297 296 297
296 296 296 297 297 297 297 297 297 298 297 293 289 285 288 287 289 292 291 292 296 296 295 297 295 293 295 293 296 291 297 300 292 289 291 299 302 303 304 305 305 304 305 304 303 302 300 300 300 298 298 298 296 295
296 296 296 297 297 297 297 297 298 300 295 289 289 282 287 292 293 293 296 296 298 298 298 296 297 294 288 286 288 293 291 289 292 293 300 302 305 305 304 306 305 304 304 305 304 302 301 301 300 298 298 298 295 295
295 295 297 295 295 296 297 299 300 297 292 290 288 286 290 289 289 290 291 294 298 295 296 297 293 291 289 288 287 290 289 288 296 302 302 305 305 307 307 306 306 305 306 306 305 303 302 302 301 300 298 297 295 293
294 297 294 295 296 297 298 297 293 289 289 287 288 292 291 290 289 290 292 292 296 295 290 293 288 290 289 286 287 295 292 296 301 305 307 308 308 308 307 305 307 306 306 307 306 304 303 304 304 302 299 299 298 294
296 298 296 296 297 299 299 297 293 291 285 290 288 290 291 292 291 292 293 295 295 293 293 289 293 289 288 288 289 290 295 298 300 302 306 308 309 309 308 307 306 307 307 308 307 306 304 303 302 301 302 301 301 300
296 298 296 295 296 296 293 293 296 287 290 291 292 293 293 293 295 295 295 295 295 296 294 293 290 289 288 291 289 291 296 298 297 300 304 309 309 309 308 308 308 307 307 308 308 306 305 304 303 303 302 301 300 301
295 295 294 295 295 295 288 293 298 290 288 291 293 291 292 292 294 294 295 295 296 294 291 289 288 289 290 293 296 296 298 298 297 297 300 304 306 309 310 308 308 308 308 309 308 302 306 304 304 303 302 301 300 300
293 296 295 296 298 296 293 293 291 294 292 290 292 292 291 294 294 294 295 297 294 290 287 288 288 292 294 296 296 297 296 297 297 298 299 301 305 307 309 309 311 308 306 307 305 304 303 304 304 305 303 302 301 301
297 294 298 296 294 292 292 296 292 293 292 291 291 292 291 291 291 291 293 288 286 288 288 288 289 290 292 293 294 296 296 297 299 299 297 299 304 306 308 307 304 306 307 307 307 306 307 307 306 305 303 301 301 302
294 295 296 294 288 289 287 297 289 290 286 288 290 288 289 290 292 293 288 288 289 291 291 290 291 292 292 294 294 295 293 293 295 295 296 298 302 305 307 308 305 308 306 307 310 307 307 298 302 305 303 303 301 300
292 292 288 288 288 285 291 289 293 290 289 287 287 284 287 289 294 290 285 287 289 290 289 289 289 289 290 291 290 290 291 290 290 292 296 295 295 298 304 307 311 310 310 308 309 310 309 308 301 305 304 303 302 302
285 283 286 282 289 285 284 284 284 286 282 285 284 286 288 294 288 285 283 285 287 287 288 288 288 288 287 288 288 289 291 289 287 288 293 293 292 294 296 299 309 312 311 313 307 308 308 309 306 306 305 304 303 302
280 284 284 286 287 285 286 281 282 283 284 283 286 291 293 289 283 281 284 286 286 287 287 287 287 286 287 288 288 288 289 291 289 289 292 292 290 288 289 290 292 295 300 306 310 308 308 308 307 306 305 302 293 302
279 282 289 294 293 290 288 289 290 288 282 283 287 286 288 280 280 283 288 288 287 288 290 290 289 288 288 289 290 291 292 293 292 291 295 293 292 290 288 287 288 291 294 302 305 308 308 308 307 307 306 306 305 304
287 289 285 288 288 291 284 286 284 283 286 291 289 282 280 280 281 285 287 289 289 289 289 290 290 290 291 291 291 291 291 292 293 294 295 295 294 292 291 291 292 288 293 298 301 306 305 306 308 308 307 306 305 306
288 291 291 286 287 287 286 286 287 291 293 291 287 286 284 287 287 287 288 290 290 289 287 287 288 290 290 291 291 291 290 288 287 285 284 285 286 289 291 292 292 292 295 295 292 294 298 300 305 308 308 306 307 306
288 292 288 287 284 285 289 291 290 293 293 293 292 289 286 286 289 292 290 290 288 287 288 288 288 288 286 286 287 288 290 290 288 285 282 283 286 290 291 292 293 294 295 295 294 297 293 298 299 306 305 303 301 301
292 291 289 288 287 290 292 293 294 295 294 293 293 289 286 285 286 288 288 288 287 287 286 285 286 287 286 285 285 286 286 289 288 288 288 289 290 289 290 291 293 294 294 292 292 292 293 294 295 300 303 300 299 297
290 288 288 285 287 292 293 290 291 290 290 289 288 288 286 285 283 284 286 286 285 284 283 285 284 285 287 288 289 289 284 288 286 285 286 287 288 289 291 292 293 293 292 291 289 287 286 288 289 289 291 293 295 295
289 289 288 288 288 286 290 289 287 287 287 286 287 287 287 285 281 284 288 288 286 286 285 287 288 287 288 288 288 288 287 289 285 282 283 283 283 284 287 289 291 291 289 289 288 287 285 284 284 284 285 285 286 287

GFSWCAN_sfc_thetae_054.txt.gz
Theta_e
306 306 307 307 308 306 304 303 302 301 301 301 301 301 301 301 302 302 301 307 301 295 296 298 299 297 297 295 289 295 294 294 296 291 291 291 290 292 291 293 291 290 288 288 289 285 282 297 296 287 293 296 296 297
306 306 307 307 306 304 303 302 301 301 300 301 301 301 302 302 302 302 297 304 306 300 297 302 303 303 302 301 297 296 294 293 294 293 293 293 290 293 291 286 297 290 294 289 289 292 300 302 298 299 299 297 298 297
306 306 307 307 305 303 302 301 301 300 300 300 300 301 302 302 303 303 299 301 300 296 297 299 299 306 309 308 309 295 296 298 298 303 295 293 288 295 288 290 293 296 300 295 295 297 298 300 300 300 300 298 299 299
306 306 307 306 304 302 301 301 300 300 300 300 301 301 301 302 303 303 300 303 300 296 290 295 306 303 307 308 307 305 302 303 303 299 294 293 290 297 292 295 293 297 297 295 295 298 299 299 299 298 298 298 296 297
306 306 307 305 303 301 300 300 300 300 300 301 301 301 301 302 303 303 302 302 303 296 290 293 300 303 308 308 306 306 304 301 298 294 293 291 296 295 297 296 295 299 293 293 293 299 299 297 298 299 297 296 295 295
306 306 306 303 301 300 300 300 299 299 300 300 301 302 302 302 302 299 296 304 304 303 292 286 300 300 305 306 303 303 301 300 300 295 293 295 300 297 291 292 299 302 302 302 298 301 302 300 300 300 298 296 296 296
305 306 304 301 300 299 299 299 299 299 299 301 302 302 302 302 301 296 296 299 303 302 292 287 292 302 305 304 305 303 302 299 297 295 292 293 295 297 293 289 299 302 304 303 302 303 299 299 296 298 298 296 297 298
305 304 301 300 299 299 298 298 299 299 300 301 302 302 302 303 301 298 303 304 306 298 296 287 290 296 306 301 300 305 299 298 297 294 295 294 299 298 290 297 300 303 302 302 302 302 301 300 299 297 298 296 295 296
304 302 300 298 298 298 297 298 298 299 300 302 302 302 302 301 298 303 306 306 305 298 289 289 288 291 305 303 303 300 300 291 298 291 293 297 295 292 298 301 301 301 301 300 301 301 300 297 296 296 296 293 293 295
302 300 298 298 297 297 297 298 298 298 300 301 301 301 297 301 300 303 301 297 294 294 292 288 295 290 296 296 296 300 300 295 291 295 300 294 295 302 302 304 305 303 303 302 299 297 296 295 295 296 294 293 294 296
301 299 298 297 297 297 297 298 298 299 299 298 295 294 299 304 299 297 293 292 292 288 291 292 294 291 299 293 294 300 297 299 291 296 295 295 295 299 306 305 306 306 305 304 302 300 299 297 296 295 295 294 295 296
299 298 298 297 296 297 298 298 298 297 296 294 294 298 299 296 293 290 291 294 293 291 297 296 297 299 299 302 297 300 295 297 290 300 295 292 298 302 304 304 305 306 305 302 301 299 299 298 298 297 296 294 295 296
299 298 297 297 297 297 297 297 297 298 298 300 295 292 292 292 285 285 285 289 290 294 295 294 288 300 298 301 295 297 292 292 301 294 292 296 302 304 304 304 306 306 304 303 301 300 300 299 299 297 296 296 295 295
298 297 297 297 297 297 297 297 297 298 297 293 290 283 287 287 289 291 290 292 295 297 296 296 294 294 295 291 293 291 296 298 291 289 290 295 301 304 305 305 305 304 305 303 301 301 300 299 298 299 296 295 295 294
297 297 297 297 297 298 297 297 298 299 296 290 290 283 288 292 292 292 294 293 294 297 296 294 295 297 292 287 290 289 291 289 291 292 298 303 305 305 305 306 305 305 304 303 302 300 300 300 299 297 298 295 294 293
296 296 296 297 295 296 297 298 299 298 294 291 289 287 290 290 290 291 291 291 294 295 296 297 293 292 289 289 287 287 289 288 292 298 303 306 306 307 307 307 306 306 305 304 303 302 301 300 300 300 299 296 294 293
296 295 297 296 296 297 297 298 296 291 290 288 289 293 292 290 290 291 292 292 296 293 291 293 288 287 290 288 287 285 284 287 295 295 301 306 306 305 307 308 307 307 306 306 305 303 303 303 302 301 299 298 296 294
294 295 297 296 297 299 299 297 294 292 287 291 289 291 293 293 292 293 294 295 294 292 293 290 294 288 286 284 285 286 291 295 297 298 302 305 306 307 307 307 308 308 307 307 306 305 303 304 302 299 301 300 299 296
296 298 296 295 296 296 293 294 296 288 291 293 293 294 294 294 296 296 297 298 298 297 294 293 289 285 285 289 289 290 294 294 294 298 299 302 305 306 306 308 308 308 308 308 305 304 303 305 304 303 301 300 299 298
295 295 295 295 295 296 291 293 298 291 289 292 294 292 293 294 297 298 298 297 297 294 290 286 284 286 288 290 292 292 294 294 294 295 297 301 304 303 307 307 306 308 308 309 307 302 305 303 302 302 301 300 299 299
294 297 295 296 296 297 294 293 292 294 293 291 293 293 293 297 294 292 292 296 291 287 285 287 287 289 292 295 296 295 293 294 294 296 294 295 300 303 308 309 306 307 305 307 304 304 303 304 304 303 301 299 300 300
297 296 298 296 294 293 292 296 293 294 292 292 292 293 292 292 292 292 294 290 288 289 289 289 289 290 292 292 293 294 292 292 295 294 294 295 296 299 302 307 308 304 306 305 307 306 305 305 305 303 301 301 300 301
295 296 296 294 289 289 286 296 290 292 287 289 291 288 290 292 293 296 289 290 289 292 291 290 290 292 291 292 293 292 292 289 288 290 293 292 294 297 300 303 304 305 304 305 308 308 307 298 302 303 302 301 299 299
296 294 289 288 288 286 292 290 292 291 290 288 288 286 289 292 295 291 285 287 289 290 289 289 289 288 291 290 288 290 291 290 289 290 293 291 290 290 295 296 299 301 299 305 309 308 308 307 301 304 303 301 301 300
287 284 287 284 290 287 286 286 287 287 284 286 285 286 290 293 288 286 284 285 286 286 287 289 289 288 287 288 289 289 292 291 289 287 291 291 289 288 289 292 294 296 296 296 301 306 305 304 306 305 304 303 302 301
280 285 285 286 287 286 287 284 284 285 286 284 287 291 293 290 284 283 285 287 286 287 288 288 287 287 287 290 288 288 290 293 293 290 291 291 290 287 287 286 287 289 293 295 298 301 304 306 305 306 305 302 292 301
280 282 289 294 292 291 289 290 290 288 284 284 288 287 288 281 282 284 289 289 287 289 290 290 289 288 289 289 290 290 291 293 293 293 295 295 293 293 290 288 287 290 292 295 296 299 301 304 305 306 306 305 304 303
286 289 286 289 289 291 287 287 286 285 287 290 289 284 283 282 283 287 287 290 290 291 290 290 291 291 290 290 290 291 291 292 292 292 294 294 294 294 293 293 294 287 293 294 294 296 299 301 302 304 306 306 305 305
288 292 292 288 289 288 288 287 287 290 294 292 288 286 286 288 288 288 290 291 292 291 289 288 289 290 290 291 291 291 291 289 287 285 285 286 287 290 293 294 295 295 295 294 290 290 293 294 299 306 306 305 305 307
289 293 290 289 287 286 289 292 292 294 294 294 291 289 287 287 289 292 290 289 288 287 288 288 289 288 286 287 287 288 290 289 287 286 284 285 287 290 292 293 294 295 295 293 291 292 290 294 293 299 302 304 304 303
293 292 290 289 288 291 293 295 295 294 294 293 294 289 286 285 287 289 288 288 288 287 286 285 286 287 286 286 286 286 286 288 287 286 287 288 288 289 291 292 292 293 294 293 291 289 289 289 290 290 290 292 296 301
291 290 289 286 288 293 294 292 292 291 290 289 288 289 286 285 283 285 287 287 286 285 284 285 285 285 288 289 289 289 285 288 286 285 284 285 286 287 289 291 292 291 290 290 289 288 287 286 286 286 286 286 287 289
291 290 290 289 289 288 290 290 289 288 288 288 288 288 288 286 281 284 288 289 288 287 287 288 288 289 289 289 289 289 287 288 285 283 284 283 282 283 286 287 289 289 287 286 286 286 285 284 284 284 283 283 283 284

GFSWCAN_sfc_thetae_057.txt.gz
Theta_e
305 306 306 306 307 308 306 304 303 302 301 301 301 301 301 301 301 299 296 299 296 292 293 296 296 292 292 292 289 291 289 291 289 287 287 288 286 289 286 290 287 284 285 283 283 280 275 296 295 286 291 294 296 297
305 306 306 307 307 308 305 303 302 301 301 301 301 301 301 301 302 302 294 300 301 294 293 298 298 298 296 295 293 294 291 291 292 288 289 289 285 287 287 280 292 282 289 287 287 286 296 298 295 297 297 295 297 294
305 306 306 307 307 307 304 303 301 301 301 301 301 301 301 302 302 302 298 299 297 293 293 293 293 299 303 301 301 292 293 296 293 298 293 291 286 288 281 284 287 292 295 289 289 295 296 298 298 298 298 296 296 297
305 306 306 307 307 306 303 302 301 301 301 300 301 301 302 301 302 302 297 299 297 293 287 290 300 296 300 300 301 302 300 300 299 298 293 290 288 292 286 290 288 291 295 292 291 295 296 297 297 297 297 298 298 297
305 305 306 306 307 305 302 301 300 300 300 300 301 301 302 302 303 301 298 299 299 292 287 289 295 298 300 300 301 304 300 298 293 293 291 289 293 291 291 292 289 295 292 290 287 296 295 295 298 299 297 296 296 295
304 305 306 306 306 303 301 300 300 300 300 300 301 301 302 303 302 297 292 301 303 301 292 285 295 295 298 300 301 301 300 298 298 294 292 293 295 292 288 286 293 298 300 302 296 301 299 299 300 300 297 296 296 295
305 305 306 306 304 301 300 300 300 300 300 300 301 301 302 302 299 292 293 298 302 302 292 287 288 297 301 302 301 298 301 298 296 295 292 292 292 294 290 286 293 297 301 303 303 298 296 298 295 298 297 297 296 296
305 305 306 305 302 300 299 299 299 299 299 300 300 300 301 302 301 296 300 303 303 298 295 286 287 291 303 297 295 303 298 297 296 294 294 292 294 294 289 293 297 301 302 302 300 298 296 297 297 296 298 295 293 294
304 305 305 302 300 299 298 298 298 299 299 301 301 302 300 299 296 300 306 307 304 298 289 288 285 283 299 298 299 299 299 290 296 291 292 293 292 288 293 296 300 298 299 298 298 297 296 295 295 295 294 293 292 294
304 305 303 301 299 298 298 298 298 299 300 301 299 298 295 300 306 305 300 296 293 294 292 286 291 287 292 291 292 295 296 292 289 291 297 290 290 298 299 300 302 302 300 298 293 293 294 293 294 294 294 293 293 295
304 304 301 299 298 297 297 298 299 299 300 297 291 290 295 303 297 294 292 290 290 286 290 289 291 289 297 289 289 294 292 294 288 292 292 290 291 298 303 301 304 302 301 298 297 296 296 295 295 295 294 294 295 294
304 302 300 299 297 297 297 298 298 296 294 293 292 295 297 295 292 288 289 293 290 289 293 291 292 292 296 300 293 294 292 293 288 298 293 289 295 301 302 303 303 303 300 297 298 297 297 297 297 296 295 295 294 295
303 300 299 298 297 297 297 298 298 298 298 297 292 291 291 290 283 284 283 287 288 294 295 295 292 293 296 296 293 292 290 288 297 290 289 290 297 302 302 302 304 305 301 299 298 299 298 297 298 296 294 295 295 293
301 299 298 297 297 297 297 298 298 297 294 292 290 280 285 286 289 290 290 290 292 294 292 294 293 292 295 291 290 287 293 294 288 285 288 292 298 301 304 304 304 301 301 299 299 299 297 296 296 296 295 294 294 292
299 298 297 297 297 298 298 298 297 297 294 289 290 281 287 291 291 291 291 290 292 293 292 291 291 295 291 287 290 288 287 286 287 286 291 294 297 304 304 304 303 304 301 299 299 298 298 297 296 296 295 294 294 292
298 297 295 297 298 298 298 296 297 298 293 290 289 286 289 289 288 289 290 289 294 292 293 293 290 289 288 287 286 285 285 282 285 289 294 296 301 303 303 304 304 305 303 300 300 300 300 299 298 296 295 294 293 292
296 293 298 298 297 296 296 295 296 291 289 288 288 291 290 291 289 290 292 292 295 292 289 291 286 285 289 285 284 285 283 285 288 292 297 298 301 303 304 304 304 306 304 302 301 301 301 301 300 298 295 294 293 292
293 298 299 298 296 296 297 295 293 290 287 290 288 291 293 293 292 293 294 296 294 292 291 289 292 285 283 281 282 286 288 291 292 293 296 299 301 302 304 305 306 306 305 304 303 302 301 299 297 296 297 296 294 293
297 297 298 297 295 294 293 293 296 288 290 292 293 294 294 295 297 297 297 298 298 298 294 291 285 283 283 287 286 287 289 290 289 292 296 297 298 299 303 305 306 305 304 304 302 299 300 300 298 297 296 296 295 294
295 296 296 296 294 294 290 292 298 291 288 292 293 292 294 294 295 295 295 296 293 290 286 284 283 285 287 288 291 291 291 290 290 291 291 293 295 298 299 304 304 305 305 304 303 299 299 297 298 297 296 295 295 294
294 296 296 294 293 294 294 293 291 293 292 290 293 293 293 295 292 291 291 293 288 285 284 286 287 290 292 292 293 292 290 289 289 290 290 290 293 295 297 300 302 304 304 305 303 303 299 298 297 297 296 295 296 297
296 298 296 295 292 293 292 295 292 294 291 292 292 292 291 291 291 290 291 288 286 288 289 288 289 289 289 290 290 291 291 290 290 290 291 291 290 291 292 296 296 300 301 302 304 304 304 300 298 297 296 295 295 296
296 296 294 294 289 288 286 295 289 291 287 289 291 288 290 291 291 294 288 289 289 291 289 289 289 290 290 290 291 291 291 290 289 289 291 290 290 290 291 293 295 293 292 296 303 307 306 294 295 298 297 296 295 294
295 292 289 288 288 283 290 288 292 291 290 288 287 285 288 290 294 290 284 286 288 289 288 288 288 287 288 289 288 289 290 291 290 291 291 290 288 288 290 290 292 293 292 294 298 302 305 304 297 298 297 296 296 296
285 284 287 284 289 286 285 287 287 286 284 287 285 286 288 293 287 286 283 284 286 286 287 288 287 287 287 287 288 289 290 290 290 289 291 291 289 289 289 290 291 292 293 291 294 296 300 304 304 303 299 298 297 296
280 285 284 284 286 285 286 284 284 284 285 285 286 289 292 289 284 282 284 286 286 287 287 288 287 287 287 289 287 287 288 291 291 289 291 292 290 288 287 287 288 289 293 293 293 294 296 299 304 304 303 298 291 297
281 282 287 291 291 290 288 289 289 287 284 283 287 287 287 281 281 283 288 288 287 288 289 289 288 288 289 288 289 290 291 291 290 290 295 294 293 292 290 288 288 291 293 293 293 293 294 295 298 302 303 305 299 298
284 286 283 287 289 291 287 287 286 285 286 289 289 285 283 283 282 287 288 290 290 290 290 290 290 290 289 289 290 290 288 288 289 290 290 290 290 291 292 293 294 287 293 292 291 292 292 293 295 297 302 304 301 300
286 289 290 287 288 288 288 287 287 289 292 290 288 286 285 286 288 289 289 290 291 290 288 287 288 289 289 289 290 290 287 285 283 281 281 282 283 285 290 291 291 292 293 291 288 287 289 290 292 293 300 305 305 304
287 292 289 288 287 286 289 291 290 293 293 291 288 287 286 288 290 292 290 289 288 286 287 287 287 287 286 286 286 287 287 285 284 282 280 280 282 285 287 289 289 289 291 290 288 288 287 289 290 293 293 294 296 297
291 291 289 289 288 290 292 294 295 294 293 291 290 286 284 284 286 288 288 288 287 287 286 285 285 286 286 285 285 284 284 285 285 284 283 284 284 284 286 288 289 288 288 287 286 286 285 285 285 286 287 288 290 291
290 289 288 286 288 293 294 292 291 290 289 287 285 286 285 284 281 284 287 288 286 284 284 286 285 285 287 288 288 287 284 284 283 283 283 283 283 284 285 286 288 286 285 284 284 284 283 283 282 283 282 283 285 287
289 290 291 289 288 289 291 290 288 287 287 285 285 286 286 284 279 283 287 289 288 287 287 288 288 288 289 288 288 287 286 285 283 281 281 280 280 281 282 283 286 285 283 282 282 282 281 280 280 280 280 280 280 281

GFSWCAN_sfc_thetae_060.txt.gz
Theta_e
305 305 306 306 306 307 308 307 305 303 302 302 302 302 302 302 301 298 292 294 290 289 290 292 292 288 288 286 283 287 288 287 285 286 287 287 284 287 285 288 286 283 279 282 284 281 277 295 294 288 291 293 292 294
305 305 305 306 306 307 307 306 304 302 302 301 301 301 302 302 301 301 292 295 296 290 289 294 294 295 293 292 289 289 290 290 291 287 288 286 282 284 285 279 290 281 285 285 286 281 291 295 294 296 294 293 295 296
305 305 305 306 306 307 307 305 304 302 301 301 301 301 302 302 302 300 294 294 291 291 289 288 288 294 296 296 296 287 287 292 291 294 287 289 285 285 280 282 286 289 291 286 289 292 294 296 297 297 297 295 296 295
305 305 305 305 306 306 307 305 303 302 301 301 301 301 301 302 302 302 294 294 292 291 284 286 296 293 297 297 295 297 296 296 297 296 291 289 287 289 286 289 286 289 290 290 289 294 294 296 297 297 297 297 296 296
304 305 305 306 306 307 306 304 302 301 301 301 301 301 301 302 303 300 296 295 296 291 285 286 292 294 295 294 294 297 296 296 295 292 291 288 292 289 287 287 285 291 289 288 289 294 293 293 297 298 296 297 297 295
304 304 305 305 306 306 305 303 301 301 301 301 301 301 301 301 302 293 287 299 299 298 289 284 289 291 295 296 295 297 297 296 296 294 292 292 292 291 286 283 291 293 297 299 295 299 298 299 299 299 298 296 296 296
304 304 305 306 306 306 304 302 301 300 300 300 300 300 301 300 296 290 287 295 301 296 290 284 285 291 295 298 298 296 297 296 296 295 292 292 292 292 289 285 291 293 296 298 302 301 297 297 294 297 296 297 296 295
304 304 305 305 306 304 302 301 300 300 300 300 300 300 301 301 299 294 296 300 300 294 293 284 282 286 295 293 294 302 296 297 296 294 294 291 293 292 287 291 293 298 301 301 301 297 295 296 295 295 297 295 293 293
304 304 305 305 305 302 300 299 299 299 299 300 301 302 298 294 293 295 307 304 302 296 288 288 284 280 292 290 292 298 297 290 296 291 291 292 290 286 290 292 299 300 298 298 297 296 295 294 294 294 295 293 291 293
303 304 305 305 303 300 298 298 298 299 299 301 298 295 293 299 307 304 299 294 293 293 292 287 290 286 289 288 286 287 294 291 287 290 295 289 289 294 297 297 301 301 301 296 291 292 292 292 293 294 293 293 293 293
304 304 305 305 301 299 298 297 298 298 299 292 287 287 290 298 293 289 287 289 289 286 289 288 289 288 293 288 288 288 285 291 288 290 291 290 289 294 301 303 302 303 298 295 295 295 294 294 294 294 293 294 293 293
304 305 305 303 300 298 297 297 297 293 291 292 291 293 291 291 288 285 284 291 288 287 291 288 289 291 291 298 293 290 288 293 286 294 291 287 291 299 300 302 303 301 296 295 296 295 295 296 296 295 294 293 293 293
304 305 303 300 299 298 297 298 297 297 297 295 290 288 287 287 278 283 282 284 284 289 291 290 287 288 292 294 289 290 286 286 294 289 288 290 293 296 297 301 302 301 298 297 296 296 296 295 296 295 293 294 294 292
304 304 301 299 298 298 297 297 297 296 293 289 288 277 283 283 285 286 284 284 287 288 285 286 286 286 291 290 290 286 289 290 287 284 285 290 290 293 297 302 301 299 296 297 298 297 296 295 295 295 294 293 293 291
303 301 300 298 298 297 297 297 297 294 292 288 287 276 283 287 286 286 286 284 286 287 285 284 285 287 287 286 288 288 286 281 284 283 286 289 291 297 302 303 302 300 296 296 297 297 296 296 294 293 294 293 293 292
300 298 295 297 297 298 298 297 295 294 292 288 287 283 285 284 283 283 284 284 287 287 288 288 287 286 285 286 284 282 281 280 283 286 288 290 293 297 301 301 303 304 300 296 297 298 298 297 294 293 293 293 292 292
296 292 296 296 298 298 297 293 294 291 288 288 284 287 284 284 283 284 286 287 289 286 283 286 285 285 288 283 280 284 281 284 286 288 290 293 292 295 300 303 304 305 304 299 299 298 297 297 296 294 291 292 292 291
293 294 299 298 297 294 295 293 292 290 285 286 284 285 286 287 287 288 289 290 289 287 286 286 289 282 280 279 280 284 287 289 289 290 292 292 294 295 298 299 304 305 303 302 298 297 297 297 294 293 292 292 292 292
295 297 299 299 295 294 292 292 292 286 287 287 288 288 288 289 290 290 290 291 291 291 289 286 282 281 282 286 285 287 287 287 286 288 292 293 294 294 296 299 302 303 302 303 298 295 294 295 296 294 294 293 291 291
298 299 299 298 295 292 291 290 294 287 284 287 287 286 288 287 288 288 288 288 287 285 282 283 283 285 286 288 290 288 288 289 288 287 288 290 292 293 293 296 296 300 304 304 302 297 294 293 293 293 294 293 292 290
294 295 297 294 291 292 291 290 287 288 287 285 287 288 287 287 285 285 284 286 284 283 283 286 286 288 290 291 291 290 289 289 288 288 288 288 290 290 291 293 295 295 296 299 301 303 295 293 293 293 293 294 293 292
293 297 292 293 291 293 289 291 288 289 286 286 286 287 287 285 284 283 285 282 282 284 285 287 287 288 289 288 289 290 290 290 291 291 291 290 288 288 289 290 291 291 292 293 294 303 302 295 294 294 293 292 292 292
297 295 292 293 288 286 284 290 286 287 284 286 287 285 285 285 286 288 281 281 287 288 285 288 288 289 288 289 290 290 290 289 289 290 289 289 289 290 290 290 291 291 290 291 294 300 303 294 294 293 293 292 292 291
296 291 289 287 286 282 289 286 288 287 286 284 284 284 285 285 288 285 280 283 285 287 287 287 287 286 288 288 287 287 288 289 289 291 290 289 287 288 289 290 291 292 292 292 294 296 299 300 298 295 292 293 293 292
283 282 283 280 287 285 285 285 286 285 284 285 284 284 285 286 280 281 278 281 281 285 286 287 286 287 286 287 287 287 289 288 287 288 291 290 288 288 288 290 291 292 293 291 291 293 294 296 298 301 299 294 293 293
277 283 281 284 284 284 284 283 284 284 284 284 284 287 287 282 279 277 281 281 279 285 286 286 286 285 286 287 285 283 284 286 288 287 290 290 289 287 287 287 287 289 292 292 291 291 292 293 294 296 300 298 289 293
278 280 284 289 287 287 285 286 286 284 284 283 283 285 284 279 278 281 285 284 282 287 288 288 287 286 285 286 287 286 283 284 284 286 290 286 286 286 286 286 286 288 292 291 290 290 289 290 292 294 295 298 297 294
283 285 281 284 285 287 285 285 285 284 284 286 285 284 280 277 280 286 286 286 285 288 288 288 288 287 287 286 287 282 281 282 283 284 284 284 285 285 285 287 288 285 289 289 289 289 288 288 290 292 293 295 301 295
284 286 286 284 286 286 286 285 285 286 288 286 284 282 280 285 287 285 283 285 288 287 285 285 285 285 287 286 284 280 280 279 278 277 277 277 278 280 283 286 286 286 287 287 286 286 286 286 288 289 293 296 303 301
284 288 284 287 285 284 286 288 286 287 287 285 285 285 284 283 284 287 285 284 282 281 281 282 282 282 282 281 281 279 280 279 278 277 275 276 277 281 282 284 284 284 284 284 284 284 285 286 286 287 288 290 292 295
288 287 286 286 286 288 289 290 289 288 286 284 285 281 279 281 284 285 283 283 282 282 283 283 284 282 281 280 279 278 276 279 279 280 279 279 280 281 282 283 284 283 282 283 282 281 282 282 282 282 282 283 285 288
286 285 285 283 283 288 290 289 286 284 282 280 278 281 280 279 276 277 285 284 281 280 281 283 283 281 283 282 282 281 279 279 279 279 279 279 278 280 281 281 284 283 282 280 280 280 279 279 280 280 279 279 280 282
283 285 285 285 281 285 288 287 286 286 283 281 280 281 281 278 277 280 285 286 284 283 280 284 283 284 284 283 283 282 281 281 280 278 278 277 277 277 278 278 281 283 281 279 278 278 278 277 277 277 278 278 278 279

GFSWCAN_sfc_thetae_066.txt.gz
Theta_e
306 306 306 305 305 305 306 306 306 307 307 305 304 302 302 301 302 297 292 292 290 287 288 289 289 285 285 283 279 281 281 285 282 277 283 284 283 285 281 284 283 279 281 278 282 280 275 293 292 286 288 293 296 296
306 305 305 305 305 305 305 305 306 307 307 305 304 302 301 301 302 301 292 294 294 290 287 291 292 293 291 289 284 283 280 281 283 279 279 279 276 279 280 277 287 279 285 281 284 281 288 291 292 294 295 295 297 297
307 306 305 305 305 305 305 305 306 307 307 305 304 302 301 301 302 301 295 294 293 289 286 284 285 290 293 293 293 282 282 286 286 291 290 284 280 285 281 279 282 286 288 284 284 288 289 291 294 296 299 298 299 298
306 306 306 305 305 305 305 305 306 306 307 305 303 302 301 301 302 301 296 296 295 290 283 283 293 291 295 293 292 292 288 289 289 293 290 287 284 286 284 283 282 286 287 284 284 289 291 294 296 297 298 299 298 297
306 306 305 305 304 305 305 305 306 307 307 305 303 302 301 301 301 299 296 295 297 289 282 284 290 291 295 295 293 291 289 285 286 289 289 287 289 288 289 288 285 288 286 285 285 292 291 293 296 299 296 296 294 293
305 305 305 304 304 305 303 304 306 307 306 305 304 302 301 300 300 293 288 294 294 295 287 282 286 288 290 291 292 288 289 289 289 291 291 292 295 291 286 283 288 290 294 295 292 297 297 298 300 298 293 293 293 293
305 304 303 303 305 304 302 303 305 306 306 303 302 301 300 300 297 291 286 294 299 296 287 283 281 287 290 291 292 295 290 292 290 291 291 292 293 292 288 285 291 294 296 297 299 299 295 295 292 295 295 295 297 295
305 304 303 303 304 303 302 303 305 306 303 302 301 300 301 301 300 294 296 300 299 293 290 284 281 284 290 286 286 293 294 295 295 294 295 292 293 292 286 291 292 295 299 299 300 299 294 294 294 294 296 295 291 292
304 304 303 303 303 302 302 303 305 303 300 299 300 301 298 296 292 293 303 303 299 294 287 286 283 279 289 287 286 288 297 290 295 291 291 292 290 286 290 289 291 295 296 298 300 294 292 292 293 293 294 293 291 289
304 304 304 303 303 302 302 302 303 299 298 299 297 294 291 293 300 304 298 293 293 292 291 285 289 283 286 287 288 289 288 289 287 290 294 289 287 293 292 291 293 294 296 297 291 291 291 291 292 292 293 292 291 291
304 304 303 303 302 302 302 303 299 298 297 291 286 287 290 297 294 289 284 288 289 286 289 288 288 285 289 286 286 291 284 287 286 290 288 285 286 289 291 291 293 295 298 299 295 294 293 293 293 293 292 292 291 291
304 304 304 303 302 302 303 299 298 294 291 290 289 293 292 290 287 283 282 289 287 284 289 286 284 286 289 290 290 291 288 290 286 293 289 284 287 290 290 290 292 296 301 299 296 294 295 295 295 294 292 291 291 291
304 304 303 303 302 303 300 298 297 297 297 294 290 288 287 286 279 281 280 282 281 285 287 285 283 285 285 291 289 289 287 286 292 285 284 286 288 289 289 290 294 299 302 300 297 296 295 295 295 294 292 291 289 291
304 303 303 303 303 302 299 298 298 297 293 289 287 280 283 281 283 283 282 282 284 285 285 283 282 282 283 284 288 284 289 288 280 278 280 285 287 287 289 292 294 296 300 302 297 296 295 294 294 294 293 292 291 290
303 303 303 303 302 300 298 297 298 295 291 288 288 279 282 286 285 285 285 284 285 284 283 282 283 283 286 286 286 283 279 272 278 277 283 286 288 288 290 291 292 295 301 300 296 295 295 295 294 293 294 293 292 291
303 302 300 302 300 298 297 297 295 293 291 289 286 283 285 282 281 282 283 284 286 285 286 286 285 284 282 282 277 278 272 275 277 283 286 288 289 289 289 291 293 296 301 302 296 296 295 294 293 293 294 293 293 292
300 294 301 300 298 297 297 293 292 290 287 286 283 286 283 282 282 282 284 286 287 284 283 283 278 281 282 271 277 280 278 282 284 286 288 289 289 289 289 291 293 295 299 300 296 296 295 294 294 292 291 292 293 293
293 299 300 297 296 296 293 292 291 289 284 285 283 284 284 284 283 286 288 288 287 284 284 283 284 280 277 272 274 283 285 286 288 288 288 290 290 291 291 291 293 294 296 297 298 294 294 293 291 291 291 292 293 293
297 298 298 297 295 292 289 289 290 285 286 286 286 286 287 287 287 287 288 287 287 287 285 282 279 275 280 285 283 283 285 286 286 287 288 290 291 290 291 291 292 293 293 294 295 295 293 293 291 290 292 291 291 292
299 297 298 296 295 291 289 289 293 286 283 286 286 286 286 286 286 285 285 285 283 282 281 278 279 284 284 287 284 284 288 288 287 286 286 288 289 290 290 290 291 292 292 293 294 294 295 292 292 291 290 290 290 289
295 295 296 294 290 290 289 289 287 287 286 285 287 287 284 285 284 283 283 284 282 280 280 280 283 286 289 286 285 288 288 288 287 288 286 285 288 289 289 290 291 291 290 291 291 293 295 296 293 292 291 290 291 291
293 296 291 292 288 289 287 290 287 287 284 285 286 287 284 283 282 282 283 281 280 280 281 282 285 288 288 287 287 288 288 288 289 290 289 287 285 286 287 289 290 288 288 289 290 291 293 296 295 292 292 291 290 290
294 293 290 289 287 286 285 290 285 285 282 283 286 285 284 283 283 285 279 279 278 282 283 287 288 288 288 289 289 288 288 287 287 289 287 285 287 287 287 289 289 288 286 288 290 291 292 291 294 295 292 292 291 291
296 290 287 286 285 282 288 284 285 284 284 282 283 283 284 283 285 281 279 279 280 283 283 285 287 286 285 287 285 282 282 283 283 286 287 283 283 283 284 285 286 287 287 288 288 289 290 291 291 295 297 293 292 291
283 282 284 279 285 283 283 283 283 282 281 283 284 283 284 285 279 278 278 277 280 281 284 286 286 286 283 285 284 280 281 280 280 280 281 282 281 282 282 283 284 285 285 285 286 287 288 289 290 292 294 295 293 291
277 282 281 283 283 282 283 281 282 282 283 282 283 286 285 281 280 279 278 279 279 281 284 285 285 283 281 281 278 278 278 279 280 280 280 280 280 279 279 279 280 281 284 285 285 285 286 286 287 289 290 291 290 292
276 279 283 288 286 286 283 285 285 282 282 281 283 283 283 278 278 277 279 280 281 283 286 287 286 285 281 278 278 278 278 278 280 281 281 280 280 281 280 279 279 281 283 283 283 283 284 284 285 286 287 290 292 294
283 284 281 283 283 284 283 283 283 282 282 285 285 282 282 280 278 281 282 283 285 286 285 285 285 285 282 280 278 277 277 277 279 280 279 279 280 281 281 282 283 282 282 282 282 282 283 283 284 284 285 286 289 292
282 285 285 282 283 283 283 284 284 285 286 286 282 281 281 284 283 279 282 284 285 284 282 280 279 280 278 277 277 276 276 276 277 276 275 274 275 277 280 281 281 281 281 280 281 281 281 283 283 283 284 285 287 289
282 286 283 283 282 282 285 286 284 284 284 284 284 282 281 280 280 282 283 282 282 281 280 280 279 278 276 276 275 277 276 276 276 276 274 274 274 277 279 279 280 280 280 280 281 280 279 281 282 282 282 282 283 284
286 285 284 284 285 286 285 285 285 285 283 281 282 280 279 280 283 283 281 279 279 279 279 278 278 278 277 276 276 275 275 276 277 278 277 276 276 277 278 278 279 279 279 278 278 278 278 278 279 279 279 279 280 280
284 283 284 282 283 285 288 285 283 282 281 280 278 280 279 279 277 279 282 282 282 281 279 279 278 278 279 279 278 277 277 277 277 278 277 277 277 277 276 277 278 279 277 277 276 276 276 276 275 275 276 277 277 278
283 284 284 283 282 284 285 285 282 280 279 278 279 279 277 275 273 278 284 282 281 280 280 281 279 279 279 279 279 278 277 277 277 276 276 276 275 275 275 276 278 278 276 276 275 275 274 274 273 273 273 274 275 276

GFSWCAN_sfc_thetae_069.txt.gz
Theta_e
308 307 307 307 306 306 306 306 306 306 306 307 306 304 302 301 302 299 296 296 294 288 289 291 291 289 288 288 283 287 287 289 289 286 285 285 284 287 284 287 287 286 285 284 285 282 280 297 296 289 295 298 298 299
308 307 307 307 306 305 305 304 305 306 306 307 306 304 303 301 301 301 295 297 297 291 289 295 294 295 293 292 289 289 288 287 290 288 289 288 286 287 284 282 292 286 289 286 287 289 297 299 297 299 299 297 298 298
309 308 307 306 306 305 304 302 304 305 306 307 306 305 303 302 301 301 298 297 294 291 289 289 290 294 296 296 296 287 290 292 291 296 291 288 283 287 282 286 287 290 293 289 289 292 294 296 298 299 300 300 301 301
308 308 307 306 305 305 302 303 304 305 306 307 306 304 303 302 302 302 299 299 297 291 284 289 296 294 298 296 295 295 294 295 295 296 291 288 286 291 286 289 287 291 292 290 290 293 294 295 297 300 301 301 300 299
307 308 307 306 305 303 302 302 304 303 305 306 307 304 303 302 301 301 299 299 299 291 285 288 294 295 297 297 295 295 293 292 291 289 290 288 291 290 290 290 288 293 291 288 287 293 292 294 300 302 298 296 296 296
307 307 307 306 305 303 302 303 302 302 304 306 307 304 302 301 300 297 290 296 298 297 288 284 293 293 295 295 295 294 293 292 291 290 290 294 297 292 287 286 292 295 295 295 292 297 297 300 302 300 296 296 297 296
306 307 307 306 305 303 303 303 302 303 304 306 305 302 301 301 299 292 289 296 298 298 289 285 287 293 294 295 298 292 292 291 291 291 291 293 293 293 288 286 292 292 293 295 300 301 297 297 295 298 297 298 296 295
306 306 306 305 304 303 304 302 302 303 303 304 301 300 300 301 300 295 299 301 300 294 291 285 286 289 295 293 293 299 291 293 292 292 294 293 293 292 287 291 291 291 294 297 299 300 300 298 297 297 298 295 293 292
306 306 306 304 303 303 303 302 302 303 304 300 298 300 300 297 293 295 301 302 300 294 288 288 284 284 294 294 295 294 297 290 297 292 292 293 290 287 289 288 288 291 292 294 298 300 298 295 294 296 296 293 290 290
305 306 305 304 303 303 303 301 302 303 300 297 297 294 292 295 301 304 298 293 291 293 292 286 290 286 291 292 291 292 293 291 288 293 294 288 288 292 291 291 291 292 295 298 299 296 295 294 294 295 293 292 291 291
305 306 305 304 303 303 302 301 302 299 297 293 291 290 292 298 296 293 288 289 289 286 289 289 289 287 294 287 287 292 289 291 287 288 288 287 287 289 291 290 292 294 297 300 303 299 297 296 295 294 292 291 290 290
305 305 305 304 304 302 302 302 299 295 292 291 291 294 295 292 288 284 284 288 287 285 290 288 290 291 292 294 289 292 288 291 285 293 288 284 289 289 289 289 291 294 296 300 302 299 298 297 296 294 292 289 290 291
305 305 304 304 303 302 302 300 297 296 297 295 291 289 289 288 282 281 280 284 286 290 292 291 289 291 293 292 291 290 287 286 293 287 284 287 289 288 289 290 291 294 297 300 302 299 298 296 297 294 292 291 291 291
305 304 304 303 303 303 301 298 297 297 294 290 288 282 284 283 285 287 287 287 290 291 290 290 289 289 291 289 291 285 288 290 283 280 281 287 287 287 290 291 291 292 295 297 300 299 297 296 295 295 294 293 292 290
304 304 303 302 302 302 300 298 297 296 292 289 289 282 284 289 290 290 290 289 289 291 290 288 290 291 288 286 286 285 283 278 279 280 284 288 289 289 289 290 290 292 294 299 299 298 296 295 295 295 294 294 293 291
304 303 301 302 302 300 299 297 295 294 291 289 288 285 287 286 285 286 288 289 292 291 293 292 287 285 283 283 281 278 278 276 281 284 287 289 289 289 289 290 291 293 295 298 299 298 297 295 295 295 295 293 293 292
299 296 302 301 300 298 297 293 292 289 288 286 284 289 288 287 288 288 290 292 292 290 288 288 282 281 285 281 278 281 280 283 286 288 289 289 289 289 290 290 291 293 294 296 298 298 298 296 296 295 292 293 293 293
295 300 300 299 296 295 294 293 290 288 284 287 285 287 288 289 288 290 293 293 292 290 290 286 288 283 279 278 279 285 287 289 289 289 289 290 290 291 291 290 292 293 294 295 296 298 297 296 294 293 293 293 293 292
298 298 299 297 295 292 288 289 291 286 287 288 289 289 291 290 291 292 292 291 292 293 290 288 283 282 281 285 284 285 288 287 287 288 289 291 291 290 291 291 292 291 292 293 295 295 298 298 297 294 293 294 294 292
299 298 298 296 296 292 287 289 293 288 286 288 290 289 290 289 289 290 290 290 289 288 286 284 283 285 286 288 289 289 290 289 289 287 288 290 291 291 290 291 291 291 291 291 292 292 295 297 298 296 294 292 293 293
296 295 296 295 292 290 290 290 289 289 289 288 290 290 287 289 288 288 287 289 287 285 283 285 286 288 290 291 292 291 289 289 288 288 287 287 290 290 290 290 291 292 289 289 289 290 292 293 296 298 296 294 294 293
293 295 291 292 289 289 288 291 289 290 289 289 289 290 287 287 286 286 288 286 285 286 288 288 288 289 289 289 289 289 289 289 290 289 289 289 288 288 288 289 289 289 288 288 288 288 290 292 294 298 298 296 295 294
294 292 290 289 287 287 287 292 287 287 284 287 290 287 287 286 287 289 284 285 286 288 289 290 291 291 290 290 289 289 288 288 289 289 289 288 289 288 287 288 288 287 285 286 289 288 289 289 291 295 298 299 297 296
295 289 286 285 286 283 289 285 287 287 287 286 286 285 285 285 287 286 283 284 286 288 288 289 290 288 289 289 287 287 286 289 290 288 287 287 286 287 286 286 287 288 286 287 288 288 288 288 289 292 294 296 298 296
283 283 286 282 287 284 283 283 284 285 283 284 285 284 285 288 284 283 283 284 285 286 287 288 289 288 287 287 287 286 286 288 289 286 286 286 286 286 285 285 286 286 286 285 284 286 288 288 288 289 291 291 292 295
280 284 283 284 284 283 283 282 283 284 284 283 286 288 288 287 283 283 285 285 285 287 288 288 288 287 287 288 285 285 284 287 289 286 285 286 285 284 283 283 282 284 286 285 284 284 286 287 287 287 288 289 288 293
278 280 284 289 288 287 285 287 288 286 283 283 286 286 285 282 282 285 285 286 287 288 290 290 289 288 286 284 285 285 285 286 287 286 287 286 286 285 284 282 282 283 285 285 285 284 284 285 286 286 286 288 288 290
283 284 281 284 285 286 284 285 284 283 285 288 288 284 284 285 284 286 287 288 290 290 290 290 290 288 286 285 284 285 284 284 285 286 286 285 286 285 285 285 285 282 284 284 284 285 284 285 285 285 286 285 287 288
283 286 285 282 283 284 285 284 286 287 289 289 286 284 283 285 286 287 287 289 290 289 286 284 283 284 283 283 284 283 284 284 283 280 280 279 280 282 284 284 284 285 285 284 283 283 282 283 284 284 286 285 286 287
282 287 283 283 282 282 286 288 287 287 287 287 286 285 284 283 285 287 288 288 287 286 286 285 283 284 283 283 281 281 282 283 283 282 280 279 279 282 283 283 283 283 284 284 284 284 283 284 284 285 285 286 285 283
286 285 283 283 283 286 286 287 286 286 285 284 284 283 282 283 285 286 286 287 286 286 285 283 284 285 284 283 283 282 280 282 282 282 281 281 281 281 282 282 283 283 283 283 283 282 281 282 282 281 281 281 281 280
284 283 284 281 283 286 289 286 284 283 283 283 281 283 283 283 280 284 285 286 285 285 284 285 285 284 285 285 284 284 282 282 282 281 280 280 280 280 281 282 282 282 282 282 282 282 281 280 280 279 279 278 278 278
284 284 284 284 283 284 287 286 283 281 281 281 281 281 280 280 278 283 286 287 288 286 285 287 287 286 286 285 284 283 282 282 280 278 277 277 276 277 280 281 282 281 281 281 280 280 280 279 278 277 277 277 277 277

GFSWCAN_sfc_thetae_072.txt.gz
Theta_e
309 309 309 308 307 306 307 306 303 303 303 305 307 307 305 303 302 302 301 302 296 291 292 294 294 292 292 292 289 293 292 293 293 288 288 289 288 289 288 290 289 288 287 286 287 284 282 299 298 291 297 302 301 301
308 308 308 308 307 306 307 305 304 303 302 305 306 308 306 304 302 302 297 301 300 293 293 298 298 299 297 296 294 295 293 293 295 291 293 292 287 290 288 283 294 287 292 290 291 291 300 301 300 300 300 298 302 300
309 309 308 308 307 307 306 305 303 302 302 303 305 308 307 304 302 301 299 299 297 292 293 295 295 300 302 301 302 292 296 296 297 300 295 294 287 292 287 289 290 293 296 290 291 295 296 298 300 301 301 300 302 302
308 308 309 308 307 306 306 305 302 302 302 303 304 307 306 304 303 302 299 301 299 294 287 294 300 297 302 302 301 299 297 301 300 300 294 291 289 295 291 292 290 293 294 292 294 296 294 297 299 301 302 303 301 300
307 308 308 308 307 306 306 304 302 303 303 303 303 305 306 303 303 301 301 300 301 294 290 292 298 300 302 301 300 300 298 294 294 291 292 290 295 293 294 292 289 295 291 288 287 292 290 294 300 302 300 300 300 297
307 307 307 308 308 306 305 303 302 303 303 303 304 305 305 302 301 298 293 299 302 299 291 287 298 297 299 300 299 299 296 293 294 291 292 295 299 293 289 289 295 295 297 294 289 294 295 300 302 302 299 298 299 299
307 307 307 308 308 306 305 303 303 303 302 303 304 305 302 301 300 293 292 298 301 301 290 288 293 298 299 300 301 295 295 293 293 293 293 294 296 293 289 287 292 294 292 294 298 301 299 301 298 300 300 299 300 297
306 306 307 307 307 306 305 303 303 303 302 303 303 301 300 300 299 295 299 300 302 296 293 286 290 294 301 298 295 302 294 292 293 293 294 293 294 292 288 292 292 290 292 296 297 300 301 302 300 299 299 298 293 292
305 306 306 307 307 306 304 303 304 302 302 303 300 299 299 296 293 297 302 302 302 296 288 289 287 291 299 297 299 299 298 288 294 291 293 294 290 288 289 289 289 290 291 293 298 301 300 298 296 297 296 293 291 290
305 306 306 306 307 305 304 304 302 302 303 300 298 293 289 296 303 304 297 292 289 292 292 288 295 291 296 296 295 297 298 295 291 294 294 290 289 294 292 290 290 292 294 297 297 296 297 295 295 294 292 291 291 290
305 306 306 306 306 304 304 303 302 302 299 295 291 290 295 299 298 294 290 289 289 287 291 292 294 291 298 290 291 295 291 294 288 290 289 289 290 291 291 290 292 295 297 299 301 300 300 296 296 293 292 292 291 291
305 306 306 306 305 304 304 302 301 297 294 294 293 296 296 292 290 286 287 291 288 287 292 292 295 295 297 299 291 292 290 292 285 296 290 288 290 291 290 290 292 294 296 298 301 301 299 296 297 294 292 292 292 292
305 305 306 305 304 304 302 302 299 297 297 295 292 290 288 288 282 282 282 286 287 293 295 295 292 295 295 296 293 293 287 288 297 290 287 289 292 290 290 291 291 293 294 299 302 301 298 298 297 295 293 293 292 291
305 305 305 304 304 303 303 300 299 297 295 289 287 283 284 284 287 289 290 292 294 294 294 295 293 293 296 291 293 287 291 292 286 284 281 288 290 290 290 291 291 291 294 297 301 300 297 296 297 295 295 294 292 290
305 305 304 303 303 303 300 300 298 297 293 289 290 283 285 291 295 295 294 292 294 296 294 293 294 294 292 289 291 289 285 280 284 284 286 290 290 290 290 291 290 291 293 296 301 300 299 297 296 296 295 295 294 292
305 304 302 303 303 300 300 299 295 294 292 290 290 287 291 291 291 293 292 292 297 296 297 297 292 288 285 287 283 279 282 281 284 286 290 292 291 291 290 291 291 292 294 296 298 300 300 298 297 296 297 295 294 293
303 298 302 302 301 299 296 293 292 289 289 287 287 292 292 293 292 292 294 295 299 294 291 293 286 281 289 284 281 284 283 285 288 289 291 291 291 291 292 291 292 292 293 295 297 300 301 301 299 297 294 296 296 295
299 301 302 300 297 295 294 293 290 288 285 288 287 290 293 295 293 294 297 298 296 295 293 290 293 287 284 281 283 286 289 292 293 291 290 291 293 293 293 293 293 292 292 293 295 295 299 301 298 296 296 296 296 295
300 299 299 297 296 293 290 290 292 286 287 290 291 293 293 295 298 298 298 299 300 300 295 293 288 288 286 288 288 288 290 293 289 290 291 293 294 294 294 295 295 294 292 292 293 293 296 299 299 299 297 296 294 294
299 298 298 297 297 292 289 289 294 290 287 289 293 292 294 295 297 297 296 296 295 294 291 289 291 291 290 290 291 292 294 295 293 290 290 292 293 294 294 293 293 295 294 291 291 290 294 297 298 299 299 296 295 294
296 296 296 296 294 293 293 290 289 292 292 290 293 294 293 295 294 293 293 296 293 292 290 292 290 291 294 294 294 294 293 294 292 293 289 290 293 294 294 294 295 296 293 291 288 288 289 291 294 297 301 299 298 295
293 295 292 293 291 291 292 294 292 293 292 292 293 294 292 291 291 292 293 292 292 293 293 290 290 290 291 290 292 294 293 294 294 294 291 292 292 291 291 292 293 292 292 290 289 288 289 290 291 296 298 301 299 298
295 294 292 291 289 289 288 295 289 290 287 289 292 290 290 291 292 293 290 292 293 295 294 294 293 293 292 292 293 293 293 294 290 292 293 292 293 292 291 291 292 291 289 288 290 290 289 288 290 292 295 297 300 298
296 291 287 287 288 285 291 288 291 289 291 289 288 286 289 290 292 290 288 290 292 293 293 293 293 292 292 291 291 292 293 295 294 294 292 291 290 290 291 291 291 291 291 289 289 289 291 290 289 290 291 292 296 298
286 285 287 283 289 285 284 285 286 287 285 287 287 287 288 291 288 287 288 290 290 291 292 293 292 292 291 292 292 291 291 296 295 291 290 291 290 291 290 291 291 291 291 290 289 289 290 291 291 289 289 290 290 296
282 285 284 285 285 284 285 283 285 285 286 286 287 291 292 290 286 285 291 292 291 292 292 292 291 291 291 292 290 290 289 294 295 291 290 290 289 288 288 288 288 288 290 290 290 289 290 290 290 290 289 288 287 290
281 283 287 292 288 288 287 288 289 287 285 285 288 288 288 284 284 290 292 294 293 293 294 294 293 292 291 290 290 291 291 293 292 290 291 291 290 289 288 286 286 287 289 290 289 289 289 289 289 290 290 290 288 288
286 286 283 286 286 289 285 286 286 285 287 291 290 286 285 286 288 290 293 293 295 295 294 294 294 293 291 291 290 290 289 290 290 290 291 290 291 289 289 289 289 283 289 289 288 289 288 289 289 289 289 290 289 288
285 288 288 284 286 286 286 286 287 290 292 291 288 288 287 287 289 290 292 294 294 293 291 290 289 290 289 290 290 290 291 290 288 285 284 286 286 286 288 288 289 289 289 290 284 285 286 287 288 289 290 291 291 288
284 289 285 285 283 284 288 292 291 292 292 292 291 289 288 287 290 293 293 292 291 290 290 289 289 289 288 287 286 287 288 289 288 288 286 284 284 287 287 287 287 288 288 289 289 289 285 288 288 290 289 290 288 286
288 288 285 286 285 289 291 291 291 290 290 289 290 289 287 286 288 291 292 293 292 291 290 288 289 290 289 288 287 286 285 287 286 285 286 287 286 286 286 286 287 287 288 287 288 288 288 288 288 287 287 286 286 284
286 285 285 283 286 290 292 290 289 287 287 287 286 288 287 286 283 287 289 291 290 289 287 289 289 289 291 291 290 289 286 287 286 285 284 285 285 285 285 286 286 286 286 286 286 286 286 286 286 285 285 283 282 283
286 286 286 286 285 285 288 288 286 283 284 284 283 284 283 284 281 285 288 290 291 290 290 291 291 291 290 289 288 287 286 285 281 279 279 278 278 280 284 284 285 285 285 285 285 285 284 284 283 282 282 281 281 281

GFSWCAN_sfc_thetae_075.txt.gz
Theta_e
309 309 309 309 309 309 308 307 306 305 304 303 304 305 308 306 303 301 300 304 297 295 295 297 299 296 296 296 292 297 295 296 295 291 291 292 289 291 291 293 291 290 289 288 289 285 283 300 299 292 299 303 302 302
309 308 308 309 309 308 308 306 306 305 304 303 304 304 305 307 304 302 297 303 303 295 294 298 300 302 301 300 297 299 296 295 296 294 294 292 291 291 291 287 296 290 293 290 292 292 301 303 302 304 303 302 303 303
309 309 309 308 308 308 308 306 306 305 304 303 303 304 305 307 304 302 300 301 300 294 295 297 298 304 306 304 306 295 297 300 297 302 296 294 289 295 289 290 293 296 298 294 293 297 298 301 303 303 302 302 303 304
308 308 308 308 308 308 308 307 306 306 304 303 303 303 304 306 305 302 298 301 300 294 288 296 303 299 305 306 304 304 302 303 301 298 295 293 291 297 292 294 292 294 297 293 295 297 297 298 300 302 303 301 302 303
307 308 308 308 308 308 308 307 306 305 303 303 304 303 303 305 304 302 301 301 302 293 289 292 301 303 306 305 303 303 301 298 295 292 292 291 296 296 296 296 293 295 291 288 287 293 293 294 301 300 299 300 300 300
307 307 307 308 308 308 308 307 306 304 303 304 304 304 303 305 302 298 292 300 301 301 292 289 301 301 303 304 302 300 299 297 294 294 293 296 300 298 292 291 294 297 298 296 289 294 294 297 300 302 300 300 300 301
306 307 307 308 308 308 308 307 306 304 303 304 304 303 304 303 299 293 293 297 303 302 292 289 294 300 303 302 301 302 300 294 293 293 294 295 297 296 290 288 295 297 294 293 297 298 296 299 299 300 299 300 298 296
306 306 307 307 307 307 307 308 306 304 304 304 303 303 303 301 298 294 299 300 302 297 296 288 291 296 302 297 296 301 295 295 293 294 297 295 295 292 288 294 295 292 291 295 296 296 299 302 300 296 298 295 294 292
306 306 306 306 307 307 307 307 305 304 304 303 303 301 299 296 292 296 302 301 304 297 289 289 288 292 302 298 301 300 300 290 295 290 295 295 291 290 292 291 290 290 290 291 295 300 301 298 295 297 294 292 291 291
305 306 306 306 306 307 307 305 304 304 303 302 299 294 290 295 301 303 296 291 291 292 292 290 296 291 299 299 296 296 299 293 289 294 295 291 291 295 294 291 290 292 294 296 296 298 298 295 295 295 291 291 291 290
305 306 306 306 307 307 306 305 304 303 301 297 292 291 296 300 299 295 291 288 288 287 291 293 294 292 300 292 292 298 295 297 291 291 291 290 290 292 294 291 293 294 295 296 301 302 301 297 296 294 293 292 291 291
305 306 306 306 306 307 305 304 303 299 296 296 295 297 296 292 290 287 286 291 289 288 293 292 294 296 298 301 295 298 291 295 287 298 291 290 291 294 291 291 293 294 294 298 301 301 302 297 297 295 294 293 292 291
305 305 305 306 306 305 304 303 300 299 298 297 294 290 291 290 283 281 282 287 289 294 295 296 293 296 297 298 295 293 290 290 299 292 290 290 293 294 292 292 292 293 295 299 302 302 301 298 299 296 295 295 294 292
305 305 305 306 305 304 303 301 299 298 297 291 288 283 285 284 286 288 289 292 297 296 296 296 294 294 295 293 294 289 294 296 289 286 285 291 293 293 293 293 291 291 294 297 300 300 300 301 298 297 296 296 295 292
304 305 305 305 304 303 302 300 299 299 294 290 290 284 286 292 294 295 298 296 296 298 297 295 296 295 295 291 293 292 287 285 288 286 289 292 294 294 292 292 291 291 294 296 299 300 300 302 299 297 298 297 295 294
304 305 303 304 303 301 300 299 296 295 293 290 290 289 292 291 292 295 295 294 297 298 299 299 293 290 289 290 286 285 285 283 286 290 292 294 293 294 293 292 292 293 294 295 298 298 300 300 300 298 298 298 296 294
304 300 303 302 301 301 298 294 293 290 290 289 289 293 293 293 294 295 296 296 300 296 292 294 288 285 291 286 284 288 285 288 292 291 293 294 293 294 295 294 295 295 295 295 295 297 299 301 302 299 297 297 299 296
300 302 302 301 297 296 294 294 292 289 287 290 288 291 294 296 295 296 299 299 297 296 296 292 296 289 286 282 287 289 292 294 295 294 292 294 294 296 296 296 296 296 295 293 293 294 297 299 300 300 301 299 298 297
301 299 299 298 297 294 291 291 292 288 289 291 293 295 295 295 298 300 300 300 301 301 298 294 290 291 291 294 291 291 295 297 295 294 295 295 295 295 296 296 297 297 298 294 291 291 292 297 299 299 300 301 297 296
299 298 298 299 299 293 290 290 295 291 288 291 293 293 294 295 299 299 299 299 297 296 292 290 294 295 295 294 296 297 297 299 298 294 295 297 298 297 297 297 297 297 297 296 293 290 293 293 296 298 300 299 299 295
296 296 297 298 295 295 294 291 290 293 294 292 294 293 293 297 296 296 296 299 295 294 293 296 296 295 297 298 298 300 296 297 293 293 294 295 297 297 296 297 298 298 295 293 290 290 290 290 291 295 298 300 301 295
293 296 294 295 292 292 293 296 293 295 294 294 293 294 293 293 294 295 298 294 294 296 298 296 295 296 296 295 296 298 296 296 294 294 291 295 295 294 294 295 295 294 295 292 290 290 290 291 292 293 295 297 300 296
296 296 294 293 290 290 289 297 291 292 289 290 293 291 292 293 295 297 292 295 297 298 298 296 296 297 297 296 296 296 297 295 296 297 296 296 296 295 295 295 295 293 293 293 294 292 292 289 291 291 292 296 299 297
296 293 290 290 290 288 293 290 293 291 292 290 290 288 291 293 295 292 289 293 296 297 297 297 296 295 295 295 295 295 296 298 298 295 295 295 294 294 295 295 294 294 294 295 295 296 295 293 292 292 290 290 293 298
288 287 289 285 291 288 287 287 288 289 287 290 289 289 291 294 290 289 289 293 294 295 296 296 296 296 294 295 295 294 295 299 297 293 294 295 294 295 294 295 294 293 294 293 293 293 294 295 294 293 291 289 288 293
284 287 286 287 287 287 287 285 287 288 289 288 289 292 293 290 287 286 292 295 296 296 296 296 295 295 295 296 294 293 293 299 297 293 293 294 293 292 291 291 291 290 293 293 292 292 292 294 294 293 292 291 287 288
283 284 290 295 292 291 289 292 292 290 287 287 290 290 289 285 285 291 299 299 298 298 299 299 298 296 295 295 294 294 295 297 296 294 294 294 293 293 292 290 288 289 293 292 292 292 291 292 293 293 293 294 291 288
288 288 285 288 289 291 288 289 288 287 288 292 291 287 286 286 289 292 297 299 300 299 299 299 299 298 295 294 294 293 294 294 294 293 293 293 293 293 293 293 292 284 291 292 291 292 291 292 292 293 293 293 293 291
287 290 291 287 288 289 289 288 289 292 294 292 289 289 290 290 291 294 297 298 299 297 296 295 295 295 294 294 294 294 294 294 292 289 289 290 290 290 292 292 292 292 293 293 283 287 290 291 291 292 293 294 294 294
287 291 287 287 285 286 290 293 293 295 296 296 295 291 289 290 295 298 297 296 295 295 295 294 293 292 291 291 290 291 293 293 293 292 290 288 288 290 291 291 291 291 292 292 292 292 286 291 290 293 292 292 292 291
292 290 287 288 287 292 294 294 295 294 294 294 295 292 288 289 291 294 295 295 295 294 293 292 292 293 292 291 290 289 288 290 289 289 289 290 290 289 289 290 290 291 291 291 290 290 289 290 290 289 289 288 287 286
289 287 287 284 288 293 294 292 292 290 290 290 289 290 289 288 285 289 292 293 293 292 289 291 292 292 294 294 293 292 288 290 289 288 287 288 287 288 289 289 289 289 289 289 289 289 288 288 287 287 287 285 283 283
288 289 288 288 288 287 290 290 288 286 287 286 286 287 286 286 282 286 290 291 292 292 292 293 293 293 293 292 291 289 287 286 282 280 280 279 279 281 286 286 287 288 288 288 287 287 286 286 285 284 284 283 282 282

GFSWCAN_sfc_thetae_078.txt.gz
Theta_e
309 309 309 309 309 309 309 309 309 308 306 305 305 303 304 305 306 301 300 302 297 292 296 299 298 294 295 295 291 297 295 296 295 291 291 291 290 292 291 293 291 290 288 288 289 285 283 300 299 292 297 302 301 300
308 308 308 308 309 309 309 309 309 308 307 305 305 304 304 304 306 303 296 305 303 294 295 302 301 300 297 298 296 298 297 296 296 293 294 293 291 291 291 287 297 290 293 290 291 292 302 302 300 303 301 300 300 300
307 308 308 308 308 309 308 308 308 308 307 306 305 304 304 305 305 302 299 301 299 293 295 298 297 303 306 303 306 295 298 300 299 302 295 294 290 294 289 290 293 296 298 293 294 297 298 298 301 301 301 300 300 300
307 307 308 308 308 308 308 308 308 308 307 306 305 304 304 304 304 304 298 300 297 294 289 295 305 301 305 306 305 305 302 303 302 299 295 293 291 298 293 294 292 295 297 293 293 296 295 296 298 299 300 301 300 301
306 307 307 308 308 308 308 308 308 308 307 306 305 304 304 304 304 304 301 301 301 293 289 291 298 300 304 304 303 304 302 298 296 294 292 291 296 296 297 296 293 297 292 288 287 294 291 293 297 299 299 298 298 298
306 306 307 307 308 308 308 308 308 308 308 307 305 304 304 304 303 298 292 300 301 300 290 287 299 299 303 304 302 301 300 298 296 294 293 296 299 297 292 291 295 297 298 297 292 294 294 296 301 301 298 296 297 295
306 306 307 307 308 308 308 308 308 308 307 306 304 304 304 304 300 294 293 297 301 301 291 288 291 299 303 303 301 301 302 297 296 293 294 295 297 298 291 288 297 297 296 295 297 299 294 297 295 300 298 298 296 294
305 306 306 307 307 307 307 308 308 308 307 305 304 304 303 303 298 295 300 300 302 296 293 288 289 294 302 297 296 303 297 296 294 294 297 295 297 294 288 294 295 294 293 294 296 296 296 299 300 296 297 296 292 291
305 306 306 306 307 307 307 307 308 308 305 304 303 302 299 296 292 295 302 301 301 295 288 289 287 289 301 298 299 301 298 291 297 292 294 296 292 289 292 293 290 292 290 292 295 297 300 299 295 295 297 294 291 289
305 305 306 306 306 306 306 307 308 305 304 303 299 294 290 295 301 302 296 290 290 292 292 288 293 290 298 296 295 296 299 295 287 291 298 292 290 295 296 294 292 293 294 294 292 294 296 296 296 296 295 294 292 291
305 305 306 306 307 307 307 307 305 304 302 298 293 291 297 302 297 293 288 287 287 286 290 291 291 290 300 293 293 297 295 296 290 291 292 289 289 292 296 295 295 295 295 294 297 300 301 299 299 296 295 294 294 293
305 306 306 306 306 307 307 305 304 299 297 297 296 298 297 293 290 288 287 289 287 287 292 292 293 296 297 300 293 295 292 294 288 297 291 287 290 295 294 294 295 294 294 296 300 300 301 301 302 298 297 296 294 294
305 305 306 306 306 306 305 304 302 301 300 298 293 289 290 290 285 283 282 286 288 294 296 295 294 296 297 297 295 294 290 290 299 292 289 290 294 295 294 294 294 294 295 297 299 300 301 301 302 299 297 298 295 293
305 305 305 305 306 306 304 302 301 300 298 291 289 284 287 285 286 287 289 291 296 297 296 297 295 294 295 293 294 290 295 295 289 287 286 290 293 294 295 294 292 292 294 296 297 298 299 300 301 300 299 298 297 293
304 304 305 305 306 304 302 301 301 300 295 290 290 285 287 291 293 295 296 295 298 298 297 295 295 295 294 292 293 292 289 287 288 286 289 291 294 294 295 293 293 293 295 295 296 296 298 299 300 301 301 300 298 295
304 304 304 305 304 302 301 300 297 296 293 290 290 288 292 291 292 294 296 296 298 297 298 297 293 291 290 291 287 286 286 285 288 291 292 294 293 294 294 296 296 296 296 295 295 295 296 298 299 300 301 301 298 295
303 301 304 303 301 301 299 294 294 291 290 289 289 293 294 294 294 296 297 296 299 296 292 295 289 288 293 287 285 289 287 291 292 293 293 294 294 294 295 296 296 297 297 296 293 293 294 297 300 300 298 300 300 296
301 304 302 300 298 297 294 295 293 290 288 290 289 292 294 296 296 297 298 299 297 295 295 292 296 290 287 285 287 291 293 295 296 295 296 296 296 296 296 296 297 298 297 296 293 293 294 295 296 297 299 301 301 295
302 301 300 299 297 295 291 291 292 288 289 292 293 295 296 296 298 299 299 300 300 300 298 295 290 290 292 295 293 294 296 296 295 296 297 298 298 297 298 299 299 298 297 295 294 292 293 294 294 295 297 298 298 295
301 299 299 300 301 294 290 290 295 291 289 291 294 293 295 295 297 299 299 299 297 296 292 290 292 295 295 296 298 297 297 298 298 296 295 297 299 298 298 298 298 299 298 295 294 291 292 292 293 294 295 296 298 295
298 298 299 299 296 295 294 291 291 293 294 292 294 294 293 296 296 296 296 298 294 293 292 296 296 297 299 299 299 299 297 298 296 296 296 295 297 297 297 297 298 297 296 294 292 292 291 291 292 292 294 297 299 297
294 297 295 296 293 293 293 296 293 296 294 294 294 294 293 293 294 295 298 294 293 296 297 296 296 297 297 296 297 298 298 297 298 296 290 295 295 295 295 295 295 294 295 294 295 294 293 294 293 292 292 295 298 298
298 297 294 294 290 290 289 297 291 293 289 291 293 291 292 293 295 299 293 295 297 299 298 298 298 298 297 297 297 297 298 298 297 297 297 296 295 296 296 295 295 293 293 294 296 295 295 290 294 293 292 294 296 298
299 294 290 290 290 288 293 290 293 292 293 291 290 289 292 293 296 293 289 293 296 298 297 297 296 296 296 296 295 296 297 299 296 295 296 295 294 294 296 295 294 294 295 295 295 295 295 295 293 295 293 291 292 294
288 288 289 286 292 289 288 288 289 290 288 290 290 290 292 295 290 289 289 293 295 295 296 297 296 296 294 295 296 296 298 298 296 293 294 295 295 295 295 295 294 293 295 293 293 293 293 294 295 295 294 291 289 290
284 288 286 288 289 288 288 286 287 288 290 289 291 294 294 291 287 286 291 296 296 296 296 296 296 295 295 297 295 294 296 299 297 293 293 294 294 293 292 291 290 291 294 293 292 291 292 293 293 294 294 294 289 289
284 285 290 296 293 292 290 292 293 291 289 288 291 291 290 286 286 293 299 300 298 299 300 299 298 297 296 296 296 296 297 298 297 295 295 294 294 294 293 290 288 290 294 293 293 292 291 292 292 293 293 294 293 290
289 290 287 290 290 292 288 289 289 289 290 294 293 289 287 288 289 297 299 301 301 301 300 300 300 300 298 296 296 295 296 296 295 295 294 294 294 294 294 294 293 285 292 293 292 292 292 292 292 292 293 293 293 293
288 292 292 288 289 290 290 290 291 293 296 294 291 290 290 291 294 298 299 300 301 299 297 297 297 297 296 296 296 295 295 294 292 290 290 290 291 290 293 293 293 293 293 293 282 287 291 291 292 292 292 292 292 294
289 293 289 288 287 287 291 295 294 295 296 296 294 292 292 294 297 300 299 297 297 296 296 296 296 294 293 292 292 293 295 295 295 293 291 289 289 291 292 291 291 292 292 292 292 292 287 291 290 292 290 290 289 289
292 291 288 289 289 292 294 296 296 296 295 294 295 291 290 291 293 296 296 297 297 297 295 294 293 294 293 292 291 290 289 291 290 290 291 291 291 290 290 291 291 291 291 291 291 290 289 289 289 288 288 287 286 285
290 288 288 286 289 293 295 292 292 291 291 291 290 291 291 290 287 290 291 292 294 293 290 292 293 293 294 294 292 292 288 290 288 288 288 289 288 289 290 290 290 290 290 289 289 288 287 287 286 285 285 284 283 282
289 289 289 289 288 288 291 291 289 288 288 287 286 287 288 286 282 286 290 290 291 293 293 294 295 294 293 291 289 286 284 283 281 281 281 281 280 283 286 286 287 288 289 288 287 286 285 284 283 282 282 282 281 281

GFSWCAN_sfc_thetae_081.txt.gz
Theta_e
307 307 308 309 309 309 309 309 310 310 310 309 307 306 305 304 305 302 300 302 296 290 292 295 297 293 293 292 287 292 292 295 292 287 287 287 285 288 286 290 290 286 285 282 285 283 281 297 296 289 294 295 296 296
306 307 307 306 308 309 309 309 309 309 309 309 308 306 306 304 304 305 296 303 302 293 292 297 297 298 297 297 292 293 292 293 295 288 289 289 285 287 286 279 294 284 290 284 286 283 294 295 296 297 297 295 295 295
306 307 307 306 306 308 308 308 309 309 309 309 308 307 306 305 305 304 299 300 298 292 292 293 295 302 303 301 300 291 296 298 295 297 290 289 285 289 281 285 289 292 295 288 288 293 292 293 295 296 297 296 297 296
304 305 306 305 306 308 308 308 309 309 309 309 308 307 306 304 304 304 298 300 297 293 287 291 303 301 304 303 302 302 300 301 298 295 290 288 285 292 287 289 287 292 292 288 288 291 292 295 295 296 297 299 298 296
304 304 306 306 307 307 308 308 308 308 309 309 309 307 306 304 304 303 301 300 300 293 287 289 294 297 299 301 302 302 300 297 293 290 289 287 291 291 291 291 289 295 291 288 286 291 292 292 294 297 297 297 296 294
305 305 306 306 306 307 307 308 308 308 309 310 309 307 305 304 303 298 292 299 300 299 289 285 295 296 300 300 300 300 299 296 294 293 292 292 295 291 287 286 294 294 295 293 289 294 294 295 297 300 297 296 296 294
305 305 306 306 307 307 307 308 308 309 309 309 309 306 305 304 300 294 293 297 301 299 289 286 288 298 300 300 299 298 299 296 295 292 290 290 292 294 290 284 292 293 293 292 295 295 293 295 294 299 297 297 296 294
305 305 306 306 306 307 307 308 308 309 309 308 306 305 304 304 299 295 299 300 302 295 292 286 287 292 301 295 293 300 295 294 293 291 293 290 295 294 287 292 294 292 293 293 294 295 295 297 299 299 299 296 293 292
304 305 305 306 306 307 307 307 308 308 308 305 304 302 299 296 292 295 302 302 300 294 287 288 286 286 299 295 298 298 297 289 295 289 291 293 290 287 291 290 290 291 291 291 294 294 295 297 297 298 296 294 292 291
304 305 305 306 306 306 306 307 307 307 305 303 299 294 289 294 301 302 294 290 290 290 290 286 292 287 296 296 294 294 296 292 287 290 295 290 289 295 294 293 293 294 294 294 291 291 293 295 297 297 295 295 294 292
305 305 306 306 306 307 307 307 306 304 302 297 292 291 297 302 297 292 288 286 286 285 288 288 289 287 295 290 291 295 290 293 288 289 289 287 288 292 294 294 295 295 294 294 296 297 298 298 297 297 297 295 295 294
304 305 305 306 306 307 307 306 304 299 297 296 296 298 297 293 290 286 286 288 286 284 290 288 290 290 293 299 291 292 289 290 286 294 290 286 290 293 293 293 294 294 294 295 297 297 298 297 298 298 297 295 295 294
304 305 305 306 306 306 306 304 302 301 300 298 294 289 289 289 284 283 281 284 287 291 294 294 292 293 295 296 292 291 288 286 296 289 287 288 291 293 293 293 293 294 295 296 296 297 297 297 298 298 298 297 297 294
304 304 305 305 305 306 306 303 302 301 297 291 288 284 286 284 285 287 287 290 295 296 295 295 294 292 293 290 292 288 292 294 287 286 284 289 291 293 294 294 293 293 295 295 295 296 295 296 296 298 298 298 298 293
303 304 305 305 305 306 303 302 302 300 295 290 290 285 286 291 292 293 294 294 297 299 297 295 294 294 292 290 292 290 288 284 285 284 288 291 293 293 293 295 294 294 294 294 295 294 294 294 295 295 297 297 299 293
303 304 303 305 305 303 302 301 297 297 293 291 290 287 291 291 290 292 294 294 298 297 298 296 292 290 289 289 286 286 284 280 286 290 291 293 292 293 293 295 295 295 295 295 293 293 293 294 293 294 296 296 297 294
304 301 304 304 302 302 300 294 294 291 290 289 287 292 292 293 293 294 296 297 300 295 290 293 289 287 291 285 284 287 284 288 291 291 292 293 293 292 294 294 296 296 296 294 293 293 293 294 294 293 291 294 296 295
300 303 303 301 299 297 295 295 293 290 287 289 288 291 294 295 294 296 298 299 296 294 295 291 295 289 285 284 285 289 291 294 293 292 292 293 293 293 295 294 296 297 295 294 292 292 292 292 291 291 291 294 295 294
302 301 301 300 298 294 290 291 293 286 288 292 292 294 295 295 297 298 298 299 301 300 297 294 290 289 290 293 291 291 293 295 292 292 294 295 296 295 296 296 298 295 293 292 291 291 292 293 292 292 291 292 294 293
302 300 300 300 301 294 290 290 295 290 288 291 293 292 293 295 296 297 298 298 297 294 291 290 292 293 294 295 296 295 296 296 294 293 293 295 296 296 295 294 294 294 292 292 291 291 292 292 293 292 291 291 293 292
298 298 300 299 296 296 293 291 290 292 293 291 294 293 293 296 294 294 296 298 294 291 290 295 294 295 298 298 297 297 295 295 293 293 292 291 293 294 293 293 293 293 291 290 290 290 291 291 293 293 292 292 294 294
296 298 295 297 293 293 292 295 293 296 293 294 293 293 291 291 292 294 297 294 292 294 296 295 295 295 295 295 296 296 296 295 295 293 291 292 291 291 291 291 291 291 291 290 290 290 291 291 292 294 293 292 293 293
298 297 294 294 290 289 289 297 291 292 289 290 292 290 291 293 295 299 292 295 296 298 297 297 297 298 296 297 297 297 297 296 294 293 294 292 292 293 292 291 291 290 289 290 291 291 291 289 291 293 293 293 292 292
299 293 290 289 289 287 293 290 293 291 291 290 289 288 291 293 296 293 290 292 295 297 296 296 296 294 295 295 293 294 295 297 293 293 293 292 291 292 292 291 291 291 291 291 291 291 291 291 291 292 292 290 290 291
288 288 289 285 291 289 287 288 288 289 288 290 289 290 291 295 290 289 289 292 294 294 295 295 295 294 292 293 294 294 297 295 292 290 292 293 292 292 291 291 290 290 291 289 289 289 290 291 291 291 291 290 288 289
284 288 286 287 288 288 288 286 287 288 289 289 290 293 295 291 287 286 292 294 294 295 295 294 294 293 293 295 292 292 294 295 294 291 291 291 291 290 289 287 286 287 290 290 289 289 290 290 290 291 291 291 289 289
283 285 290 294 293 292 290 292 292 290 289 288 291 291 290 285 286 293 298 299 296 297 298 298 297 295 295 294 294 295 295 295 293 292 292 292 292 291 289 286 286 287 291 290 290 290 289 289 290 290 290 290 291 289
289 291 287 289 290 292 288 289 289 288 290 293 293 289 287 288 288 296 298 300 301 299 299 299 299 296 294 294 294 294 293 293 294 293 292 292 292 292 292 291 291 284 290 289 290 290 290 290 289 289 289 288 288 290
288 291 291 287 289 290 290 290 291 293 295 293 291 289 289 291 294 298 299 299 301 299 296 294 294 295 295 294 294 294 293 292 290 288 287 286 286 287 290 291 290 291 291 288 282 285 287 288 288 288 288 287 287 288
289 293 289 289 287 287 291 294 292 295 295 294 293 292 292 293 291 294 295 296 297 296 295 294 294 293 291 291 291 291 292 291 291 291 288 286 286 289 289 289 289 289 290 289 289 288 286 288 287 287 286 284 283 283
293 291 289 289 289 292 294 296 296 295 295 294 293 290 289 291 293 291 289 290 292 296 294 292 292 293 292 291 290 287 286 288 289 289 290 289 288 288 288 289 289 289 289 289 287 286 285 285 284 283 283 282 281 282
290 288 288 286 289 293 295 292 292 291 291 289 288 291 290 289 285 285 287 287 289 293 289 292 292 291 289 287 287 286 284 284 283 283 285 285 285 287 287 287 288 289 288 287 286 284 283 282 281 281 280 280 280 280
289 289 289 288 287 288 291 291 289 287 287 286 285 286 285 284 280 283 287 287 287 289 290 288 287 287 286 284 283 281 281 280 280 280 280 279 279 281 283 284 286 287 286 285 284 282 281 280 279 279 278 278 279 280

GFSWCAN_sfc_thetae_087.txt.gz
Theta_e
305 306 306 306 307 307 307 306 306 309 310 311 311 312 309 307 306 302 300 302 297 291 292 295 294 290 292 292 287 291 289 291 290 286 286 286 285 287 285 288 288 285 284 282 284 281 276 293 292 286 289 291 292 293
304 305 305 305 305 305 305 305 305 306 308 310 311 311 311 308 306 305 297 302 301 294 293 296 296 296 295 295 293 292 289 289 292 289 288 286 284 285 284 279 291 283 287 282 286 281 289 291 291 293 292 292 292 294
304 304 304 303 303 304 304 305 305 306 307 309 310 311 311 309 307 305 299 299 298 293 292 292 290 295 297 297 299 290 291 294 294 295 290 287 283 286 279 283 285 288 291 286 285 288 289 291 292 293 294 292 296 297
304 304 304 304 304 304 304 305 306 307 308 309 310 310 310 310 308 305 299 300 297 293 286 287 295 293 298 298 297 297 296 297 297 296 291 287 283 289 284 286 284 287 289 285 285 287 289 291 293 293 294 296 297 298
302 303 303 303 304 305 305 306 307 307 307 309 310 310 311 310 308 304 301 300 300 293 287 288 292 293 294 295 298 297 295 294 291 290 288 285 287 287 287 286 284 289 289 284 280 287 286 289 292 294 293 294 296 296
303 303 303 303 304 304 305 306 307 307 307 309 311 311 311 309 305 299 293 299 301 299 289 284 288 289 292 295 295 296 296 294 294 291 290 290 291 288 282 281 289 293 294 293 290 289 291 293 294 295 295 295 297 297
302 302 303 303 304 305 306 307 307 307 308 309 310 310 309 305 300 294 292 297 301 299 289 284 284 290 297 296 296 296 297 295 293 292 289 288 288 292 289 284 288 290 289 289 291 293 291 293 292 294 295 297 299 298
302 302 302 302 302 304 305 306 307 308 308 309 309 308 306 303 301 296 299 302 300 294 291 284 283 288 297 292 291 296 292 293 293 292 290 288 288 286 283 286 291 289 289 290 293 294 294 294 294 295 298 296 295 295
303 303 303 303 303 304 305 306 306 307 308 308 306 304 300 297 293 295 303 303 300 294 286 285 282 281 297 295 295 295 295 288 294 289 289 290 287 286 286 290 290 291 291 291 293 294 294 294 294 295 295 294 293 293
303 304 303 303 304 305 305 306 306 308 306 303 299 294 290 294 302 302 296 291 290 291 288 284 288 284 291 290 292 292 293 289 286 289 292 287 287 292 293 292 292 293 294 293 291 290 292 292 293 293 293 293 294 293
304 304 303 303 303 305 306 306 307 305 302 296 292 291 297 302 296 292 287 285 286 282 286 285 287 285 294 286 287 293 288 290 285 287 287 286 287 290 293 293 294 294 294 294 294 295 294 293 293 292 292 293 293 293
304 303 304 303 303 305 306 306 304 300 297 296 295 298 296 292 289 285 284 286 284 279 285 285 287 288 290 293 288 291 288 289 282 290 287 284 288 291 292 292 293 294 294 294 295 294 293 293 293 293 292 292 293 293
303 303 303 303 303 304 305 306 303 302 300 298 293 289 288 287 282 280 279 283 284 286 289 290 288 289 289 291 289 288 285 282 291 286 284 287 290 292 293 293 293 294 295 294 292 292 293 294 294 293 292 293 293 292
303 303 303 302 303 304 305 305 302 301 296 289 287 281 283 282 282 284 284 286 290 293 293 293 291 287 289 287 288 285 289 290 284 283 282 287 290 292 294 294 293 293 293 291 291 291 292 293 292 292 292 292 292 291
302 303 302 302 303 304 306 303 302 299 294 288 288 282 282 285 289 290 291 291 294 296 294 293 291 290 287 286 288 287 285 285 281 283 285 286 290 292 291 292 292 292 290 290 290 290 291 292 291 291 292 292 292 292
302 302 300 302 303 305 304 302 298 297 293 291 288 286 286 288 289 289 291 292 296 294 296 294 289 287 285 283 283 283 280 276 278 281 286 287 290 287 287 289 292 293 290 289 288 291 292 292 291 290 292 291 292 292
302 297 303 303 303 304 301 295 294 291 288 287 286 290 286 289 291 292 294 294 298 295 290 291 287 284 286 280 279 280 277 280 284 285 286 287 286 287 288 290 293 293 290 289 288 289 290 291 291 291 289 290 291 291
298 301 304 304 301 298 295 294 291 288 286 288 285 286 287 290 290 293 296 297 296 294 292 289 292 287 279 280 277 280 285 287 286 286 286 287 288 288 289 288 292 290 289 288 288 288 289 289 289 289 289 289 291 289
301 302 304 301 298 293 289 290 292 285 286 288 287 287 290 290 293 294 296 297 297 296 294 291 288 286 285 286 285 285 286 287 286 286 287 288 289 289 291 291 290 288 287 286 286 286 287 289 289 290 289 289 288 288
303 303 301 300 299 292 288 289 293 287 284 286 287 287 287 289 292 294 295 295 294 293 289 287 286 289 290 291 290 289 289 290 287 286 286 288 289 288 289 288 287 286 285 286 285 287 286 288 290 290 289 288 288 286
299 299 300 299 296 295 290 286 287 288 287 286 288 287 287 290 289 290 293 296 292 290 286 289 290 291 292 291 290 290 290 290 288 288 287 284 285 285 286 286 286 285 284 284 283 284 286 286 287 289 288 288 288 288
297 299 295 297 292 293 291 291 288 289 287 289 292 291 289 288 289 291 295 292 292 291 290 290 290 290 290 290 290 290 289 288 287 287 288 287 284 284 284 284 285 283 283 283 283 283 284 285 287 288 288 288 289 288
298 296 293 293 289 288 288 293 288 289 286 289 291 288 289 290 292 295 290 291 291 291 290 290 290 290 290 291 291 290 290 290 288 287 286 285 284 284 284 284 284 283 282 283 284 284 284 285 287 288 288 288 289 288
298 292 289 288 288 285 291 289 288 289 287 286 289 286 289 291 294 291 288 288 290 289 289 289 290 287 288 288 288 288 289 288 287 287 287 286 283 282 283 283 283 283 283 283 284 284 285 285 287 287 287 288 288 286
286 287 287 284 288 287 285 286 287 287 285 287 288 287 290 292 287 287 286 287 288 288 287 288 287 288 286 286 287 288 288 287 287 286 285 286 284 282 282 282 282 282 283 284 284 284 284 285 285 285 286 287 285 285
280 286 285 285 286 287 285 285 285 286 287 287 288 291 292 289 286 284 287 288 287 288 289 289 287 285 285 287 286 285 285 286 288 285 284 284 284 283 281 280 280 281 283 283 284 284 284 284 284 284 283 284 284 285
281 284 287 292 291 290 289 290 290 288 287 287 289 289 288 283 284 287 291 292 289 290 292 292 290 289 287 285 286 286 285 287 287 286 285 285 284 284 283 281 281 281 284 285 285 284 283 282 282 282 282 282 284 284
287 289 286 287 290 291 287 288 288 287 288 292 292 288 286 285 286 288 291 293 291 292 291 290 291 291 289 286 288 287 287 287 287 286 286 285 284 285 285 284 284 284 285 285 285 284 283 282 281 281 281 280 281 284
286 290 291 287 288 288 288 288 289 292 294 292 288 286 287 286 286 285 286 287 288 288 289 288 287 288 288 287 286 286 287 287 284 281 280 279 280 281 283 284 284 284 284 283 282 282 282 281 280 280 280 280 281 283
287 289 287 289 287 287 290 292 291 292 292 292 291 288 288 287 286 287 286 286 286 286 287 289 288 287 285 285 282 282 282 284 284 284 281 279 280 282 283 283 283 282 282 281 280 279 279 280 279 279 280 279 279 280
291 288 287 287 288 291 293 293 292 292 291 289 290 287 286 286 287 287 285 285 286 287 287 286 285 285 285 284 282 281 279 280 282 283 282 281 280 281 282 282 282 281 280 280 279 278 277 277 277 277 277 278 278 277
287 286 285 285 287 292 294 291 290 288 286 284 283 286 287 282 279 282 284 285 284 283 283 285 284 282 283 282 282 281 280 279 280 281 280 280 279 281 282 282 282 281 279 278 278 277 276 276 276 276 275 275 275 275
287 288 288 287 285 287 287 286 286 283 282 281 280 282 281 280 276 281 285 286 284 281 280 281 282 282 281 280 279 278 278 278 278 278 278 278 278 279 281 281 280 279 278 277 276 276 275 275 274 274 274 274 274 274

GFSWCAN_sfc_thetae_090.txt.gz
Theta_e
304 305 305 305 305 307 307 306 306 304 305 307 310 311 312 308 306 303 300 302 297 292 293 295 295 291 291 290 287 290 289 290 289 285 286 286 285 287 283 287 287 287 284 283 284 280 276 293 291 284 286 289 291 291
304 304 304 305 305 305 305 304 305 304 305 306 307 310 311 310 307 305 297 302 302 294 293 297 296 298 296 295 291 292 290 289 289 287 289 287 284 285 283 280 290 282 286 281 282 281 288 291 289 291 291 291 292 293
303 304 304 304 304 304 303 303 304 304 305 306 307 308 311 311 308 306 299 300 298 293 292 293 291 295 297 296 299 289 292 294 291 295 291 287 282 285 279 282 285 288 290 285 285 287 287 290 291 291 292 293 294 295
303 303 304 304 304 304 304 304 305 305 306 307 308 309 310 311 310 307 299 300 298 294 286 287 294 291 296 295 294 296 296 298 296 295 290 288 284 289 284 285 284 287 288 285 285 287 289 290 291 291 292 294 295 295
303 303 303 303 304 304 304 305 305 306 307 307 308 308 310 311 309 306 301 301 301 293 287 288 292 292 292 293 293 295 295 293 292 290 289 287 287 286 286 286 282 288 287 286 286 287 288 286 291 294 293 293 294 294
302 302 302 303 303 304 304 304 305 306 307 308 308 309 311 310 305 299 293 300 301 299 290 284 287 288 291 293 292 294 294 294 293 291 289 289 291 288 283 282 287 291 293 293 288 292 288 293 295 296 294 294 294 296
301 301 302 302 303 303 303 304 305 306 307 308 308 309 310 305 301 295 293 296 302 299 289 284 283 288 293 296 295 294 297 295 294 292 290 289 288 291 288 281 287 289 288 288 290 293 291 293 292 295 295 296 298 296
302 301 302 302 303 303 303 304 305 306 307 308 308 309 306 303 301 296 300 302 301 294 291 283 282 285 297 292 291 296 293 294 293 292 291 288 290 287 283 285 289 291 291 290 293 294 293 294 295 295 296 295 293 292
303 303 303 304 304 303 303 304 305 307 307 308 307 304 300 297 294 295 304 303 300 294 285 285 281 279 295 293 295 294 294 288 294 289 289 290 285 284 286 289 290 291 291 291 293 294 294 293 292 292 293 292 291 291
303 303 304 304 304 303 303 305 306 307 307 304 300 295 290 294 303 303 298 291 290 291 289 284 289 283 290 289 288 291 293 289 285 289 292 287 283 289 290 291 292 293 293 293 290 290 291 290 290 291 291 292 292 291
304 304 304 304 304 303 304 305 306 306 302 297 293 291 296 303 296 291 286 285 285 283 286 286 286 284 292 286 286 290 288 287 285 287 286 284 286 290 293 292 294 294 294 294 294 294 292 291 291 292 291 292 292 291
304 304 304 304 304 303 303 305 305 300 297 296 295 298 296 292 289 285 283 285 283 280 283 283 285 288 290 293 288 290 287 289 283 290 285 283 288 291 292 292 293 294 294 294 292 291 292 292 294 292 291 291 291 292
303 304 304 303 303 303 303 304 304 301 300 297 293 289 287 287 281 280 278 282 282 285 288 288 287 288 288 289 287 288 284 283 290 286 283 287 290 292 292 293 293 294 293 291 291 292 292 293 294 292 291 292 292 291
302 303 303 303 303 302 303 304 302 301 296 289 287 281 283 281 282 282 284 286 289 291 292 293 291 288 289 287 288 285 288 290 283 281 283 287 290 292 293 294 293 290 289 290 290 290 291 292 291 292 292 292 291 290
302 302 302 302 302 302 303 304 302 299 294 287 288 281 282 285 286 289 290 290 294 295 293 291 292 291 287 285 287 286 284 283 284 279 280 287 291 291 288 291 291 292 289 288 288 289 290 291 291 290 291 291 291 290
302 302 301 303 302 302 303 302 298 297 293 290 288 285 287 286 286 288 290 291 295 294 295 293 288 287 286 283 283 283 280 276 278 280 285 286 287 286 286 291 292 292 288 287 287 289 289 290 289 290 291 291 290 289
302 298 301 302 302 302 302 295 294 291 288 287 286 290 284 288 288 292 293 293 297 293 289 290 286 285 286 280 279 279 277 279 283 284 285 286 285 285 287 288 290 290 288 288 287 288 289 290 291 290 288 289 290 288
298 298 302 303 302 298 295 294 290 287 285 288 286 284 285 288 289 292 295 297 295 294 292 289 291 287 281 280 276 280 283 285 285 286 286 286 287 287 289 288 289 288 286 286 287 287 288 288 289 288 289 289 288 286
300 300 303 301 298 293 290 290 291 286 286 286 287 285 286 290 291 293 296 296 297 297 294 292 288 286 286 287 285 285 286 287 285 286 286 288 288 289 289 289 288 286 285 285 284 285 287 288 288 288 289 289 286 285
302 303 301 300 299 291 288 288 293 287 282 286 286 285 286 288 291 293 294 296 295 293 290 289 287 289 289 289 290 288 289 288 287 286 285 286 287 289 287 286 285 284 284 285 285 286 286 287 289 289 288 288 286 283
300 299 300 299 296 294 291 287 287 288 286 285 287 286 285 288 288 289 291 296 292 291 288 290 290 291 292 291 291 290 289 289 288 288 286 283 284 287 285 284 284 284 283 283 283 285 286 285 287 288 288 288 288 286
297 299 296 297 293 293 290 288 286 289 287 288 290 289 286 286 287 288 294 291 291 291 290 290 291 290 289 289 290 291 291 289 287 287 287 286 284 283 283 283 283 282 282 282 283 284 285 286 287 288 287 288 287 286
298 296 293 293 289 288 288 293 289 289 286 289 291 288 287 289 291 295 290 291 293 294 293 291 290 290 289 290 290 289 290 288 286 286 285 284 284 283 283 283 283 283 282 283 283 284 284 284 286 287 288 287 285 284
298 292 289 288 287 284 290 288 289 288 288 285 287 286 287 291 293 290 288 289 290 290 289 289 290 288 288 288 288 288 288 287 285 284 285 284 283 282 282 282 282 283 283 283 284 284 284 285 285 287 287 286 285 283
286 286 287 284 288 287 285 286 285 285 284 286 286 287 289 293 287 286 287 287 287 288 288 288 288 288 287 286 287 287 286 288 286 285 284 285 283 282 282 282 282 282 283 284 283 283 283 284 284 284 285 284 283 282
279 285 285 285 286 286 285 284 284 285 285 286 286 291 291 288 286 284 286 288 287 288 288 289 287 286 285 286 286 284 284 286 287 284 283 283 283 283 281 280 280 281 283 284 283 282 282 283 283 283 283 284 283 283
281 284 286 291 290 289 288 289 290 288 286 285 288 288 287 283 283 286 290 289 288 290 291 290 289 288 287 285 285 285 285 286 286 285 284 284 284 284 283 282 281 282 284 285 284 282 281 282 282 282 283 283 283 283
286 288 285 287 288 290 287 288 288 287 287 291 290 288 286 285 285 285 288 288 288 289 291 291 290 289 287 285 285 285 284 285 285 285 285 284 284 284 284 285 285 283 285 284 283 283 282 281 281 282 282 283 283 285
286 290 290 287 288 288 288 287 289 291 293 292 287 286 285 284 284 284 285 286 287 288 289 287 286 287 285 284 284 284 285 286 284 281 281 279 280 282 283 284 284 284 283 282 281 281 281 281 281 281 281 283 284 285
287 290 287 288 286 286 290 292 290 291 292 291 289 286 286 285 285 286 285 285 285 285 287 288 287 287 284 284 281 282 282 285 285 284 281 280 281 282 283 282 282 281 281 280 280 279 279 280 280 281 280 280 282 283
291 289 287 287 288 291 291 292 292 291 290 288 289 287 284 285 285 285 284 284 284 286 286 285 285 286 285 284 284 283 282 282 283 283 282 282 282 282 282 281 281 281 281 280 279 278 278 278 278 278 278 278 278 279
288 287 284 284 286 291 293 290 288 286 285 284 282 285 283 282 278 281 284 282 280 280 281 283 283 281 283 282 282 282 281 280 280 281 282 282 281 282 281 281 280 280 279 278 278 277 277 277 276 276 276 276 275 277
287 288 287 285 284 285 286 287 284 281 282 280 279 281 280 279 276 281 285 283 281 279 279 279 280 280 281 280 280 280 279 279 279 279 279 280 280 280 280 279 280 279 278 277 277 276 276 275 275 275 275 275 275 277

GFSWCAN_sfc_thetae_093.txt.gz
Theta_e
304 304 304 304 304 305 305 305 306 305 305 305 305 307 309 311 307 303 302 304 299 293 294 296 296 293 292 291 287 291 289 290 289 286 287 288 286 288 286 289 288 288 282 282 283 280 280 297 295 289 294 298 297 297
303 303 304 304 304 304 305 305 304 304 304 305 305 306 307 309 308 305 298 303 303 295 294 299 299 300 298 297 292 291 290 290 290 288 288 289 287 288 287 283 293 287 291 288 289 289 294 297 297 299 298 297 297 296
302 303 304 304 304 304 304 304 304 304 304 305 306 307 307 309 310 305 300 301 299 294 293 294 294 300 302 301 301 289 292 294 292 295 289 290 286 290 285 286 288 292 295 291 291 293 294 296 297 298 298 297 297 298
302 302 303 303 304 304 304 304 304 305 305 306 307 307 308 309 310 307 300 301 299 294 287 292 298 296 300 300 300 299 297 298 297 294 289 288 287 293 288 289 288 292 292 291 291 294 295 295 297 297 297 296 295 297
302 302 302 303 303 303 303 303 304 304 305 306 308 308 308 309 310 307 302 302 302 294 288 290 296 297 298 298 297 298 296 294 292 288 288 288 292 291 291 290 289 293 291 291 289 292 292 294 297 298 296 295 296 296
301 302 302 302 302 303 303 303 304 304 305 307 308 308 309 309 309 301 294 300 302 300 290 286 295 294 295 295 294 294 296 294 291 289 289 291 295 292 287 286 292 295 294 294 292 294 294 296 298 299 297 296 297 297
301 302 302 302 302 302 302 303 303 304 305 306 308 308 308 308 304 297 294 300 303 301 290 286 287 293 295 297 295 294 295 295 293 291 290 291 292 293 289 286 292 295 295 295 295 295 293 295 294 298 297 297 297 297
301 302 302 302 302 303 303 303 304 304 305 307 307 307 308 304 302 297 300 303 302 295 292 284 285 288 297 294 292 296 292 293 293 292 292 290 292 291 287 292 293 293 293 293 294 296 295 297 297 296 296 295 294 294
302 302 303 304 304 304 304 304 303 304 306 307 307 305 301 298 294 296 304 303 301 296 286 285 283 284 297 293 294 294 295 288 295 290 290 290 289 287 291 292 292 292 292 292 294 295 296 294 294 293 294 294 293 293
302 303 303 304 304 304 304 303 304 305 306 305 300 296 291 295 304 304 296 291 291 291 290 284 290 285 292 292 290 290 293 289 287 290 292 288 287 293 294 294 294 294 294 294 292 292 293 293 292 293 294 294 293 292
303 304 304 304 305 305 304 304 304 305 303 298 293 290 296 303 297 292 287 286 286 283 287 286 286 284 292 286 287 290 287 288 285 288 287 286 286 291 293 293 295 295 295 295 296 296 295 294 292 293 293 293 293 293
303 303 304 304 305 304 304 303 304 301 298 297 295 297 297 292 289 285 284 286 283 282 286 286 287 288 290 292 289 290 287 288 284 291 287 285 290 292 293 293 294 295 295 295 296 294 294 294 295 293 293 292 292 293
303 303 303 304 304 304 303 303 304 302 300 296 292 289 289 287 282 280 279 282 284 287 288 288 287 289 289 290 288 287 286 286 292 286 284 288 291 293 293 294 294 295 296 294 293 294 294 294 294 293 292 293 293 292
302 302 303 303 303 303 303 302 303 301 297 289 286 282 284 282 284 285 285 287 290 291 291 291 289 287 289 286 288 286 290 290 284 283 285 289 293 293 294 295 293 293 294 293 292 293 293 293 293 294 293 293 292 291
302 302 302 302 303 303 302 303 303 300 294 287 288 283 283 288 290 290 291 291 293 295 293 291 291 291 288 288 290 289 286 284 286 286 290 294 294 293 293 293 294 294 293 292 292 292 292 293 293 293 293 293 292 290
302 302 301 303 303 303 302 302 299 298 294 289 288 286 289 288 288 289 291 291 294 294 294 292 288 288 287 288 286 285 284 284 288 292 293 294 294 293 294 294 295 294 293 293 292 292 293 292 292 292 293 292 291 289
301 298 303 303 303 302 302 296 295 291 288 287 287 291 290 290 290 293 292 292 296 293 288 290 286 286 289 286 285 288 287 290 292 292 294 294 294 294 295 295 294 293 292 292 292 292 292 293 293 291 290 290 289 288
298 301 303 303 302 298 295 295 290 288 285 288 287 289 291 292 291 294 296 297 295 292 292 289 292 288 286 284 286 289 291 291 293 293 293 294 295 295 294 293 292 292 292 292 292 292 292 292 290 289 289 290 288 287
301 300 302 301 298 294 290 291 291 286 287 288 290 291 291 292 294 294 297 297 297 297 295 293 289 288 289 292 291 291 292 292 291 292 293 295 296 294 294 293 292 292 292 292 292 292 292 292 291 290 289 289 287 285
302 302 302 301 299 291 287 288 293 288 286 289 290 289 290 291 295 295 295 295 295 293 290 290 290 293 294 296 296 295 295 294 293 292 292 294 296 294 293 292 291 292 292 292 292 290 292 291 291 291 289 288 286 284
299 300 301 299 296 294 291 288 288 288 290 289 292 290 290 292 292 293 293 297 291 290 290 294 294 296 297 297 298 297 295 295 294 294 293 291 293 292 292 291 292 292 291 291 291 291 291 290 290 291 289 288 288 286
297 299 296 297 293 293 291 292 290 292 290 291 291 291 289 290 290 291 295 291 290 293 296 294 296 296 294 295 295 297 296 296 295 292 291 291 290 291 290 291 291 290 291 290 291 291 291 291 290 291 289 288 287 286
298 297 294 294 289 288 288 294 288 290 286 289 292 289 289 290 293 295 290 292 294 298 298 296 295 295 294 294 295 296 296 294 293 292 292 291 291 291 290 290 292 291 290 290 292 292 291 287 290 290 290 288 287 286
299 292 289 288 288 285 291 288 290 289 289 288 287 286 288 291 293 290 288 291 295 296 295 294 294 292 292 294 293 293 292 293 292 291 292 291 289 289 290 290 291 291 291 291 292 292 292 291 288 289 289 288 287 286
287 287 287 284 287 287 285 286 286 286 284 286 285 286 290 292 287 287 288 291 292 293 293 294 294 294 293 292 293 291 293 293 291 289 290 291 289 289 289 289 290 290 292 289 289 291 291 291 290 288 287 287 287 286
281 286 285 285 286 286 285 284 286 285 286 286 287 291 292 288 286 286 289 290 291 292 292 293 293 292 292 294 292 291 292 294 293 290 290 291 291 290 288 288 288 288 291 290 288 289 290 290 289 287 287 286 285 287
283 284 288 292 290 289 288 289 290 288 286 285 288 289 287 285 285 289 292 290 289 290 291 294 295 295 293 293 291 292 293 294 294 292 291 291 291 291 291 289 288 289 291 289 288 288 288 289 288 287 286 286 287 287
287 289 285 288 288 290 287 287 287 287 288 291 290 287 286 285 282 283 288 289 289 289 292 295 296 295 294 292 291 291 291 291 290 290 290 290 290 291 291 290 289 284 288 288 287 287 288 288 288 288 286 285 287 288
287 290 290 286 288 288 288 288 288 291 292 292 288 285 282 283 284 283 286 287 289 290 292 291 290 290 289 290 291 291 291 291 290 288 287 286 287 288 290 290 289 288 287 285 282 284 285 286 287 288 287 286 287 287
288 291 288 288 286 286 290 292 291 292 291 288 287 286 285 284 285 286 285 285 286 288 290 291 291 290 288 288 286 287 289 291 292 291 288 287 288 289 289 289 288 287 287 286 285 284 282 285 284 287 287 287 287 286
291 290 288 288 287 290 291 290 290 290 289 287 289 286 283 285 286 285 283 283 285 287 288 287 288 290 289 288 288 287 286 288 289 290 291 290 290 289 288 288 287 287 286 285 284 284 284 283 283 283 283 283 284 284
289 287 287 285 286 289 291 289 288 286 285 283 283 285 285 282 279 281 282 282 281 281 281 285 285 285 287 287 286 286 285 287 288 289 289 289 288 287 287 286 286 285 284 283 283 283 282 282 282 281 281 280 280 281
288 288 288 287 286 286 286 286 285 283 283 281 280 281 281 280 277 282 284 283 281 280 280 281 282 283 283 283 283 282 283 283 282 282 282 282 283 284 285 285 284 283 282 282 281 281 281 280 280 280 280 279 279 279

GFSWCAN_sfc_thetae_096.txt.gz
Theta_e
303 303 303 304 304 304 304 304 305 306 306 305 305 305 306 307 309 304 303 306 301 296 299 300 299 295 294 293 288 293 292 292 290 287 287 290 289 290 288 290 289 287 285 285 286 283 281 299 298 292 299 303 302 302
303 303 303 303 304 304 304 304 304 304 304 305 305 305 305 307 308 306 300 304 305 297 297 304 304 304 301 299 294 293 293 292 292 289 289 290 289 291 289 286 295 288 292 289 289 291 298 302 301 304 304 301 301 301
302 302 303 303 304 304 304 304 304 304 304 305 305 306 307 307 308 307 303 302 300 295 295 298 298 305 307 305 305 292 293 295 294 298 292 290 288 293 287 289 290 294 297 293 293 297 298 301 302 303 303 302 303 302
302 302 302 303 303 304 304 304 304 304 304 305 305 306 307 308 309 308 301 303 301 296 290 297 304 301 304 306 305 303 300 299 299 296 289 289 288 295 291 293 291 294 295 293 293 297 299 300 301 303 302 303 300 301
302 302 302 302 303 303 303 303 304 304 304 305 306 307 308 308 308 309 305 304 305 298 290 293 301 304 303 304 301 301 299 297 293 289 288 288 293 294 295 294 292 297 293 291 291 297 297 298 302 302 299 297 298 297
301 301 302 302 302 302 303 303 303 303 304 305 306 307 308 308 308 302 295 301 303 302 291 289 300 299 301 300 299 298 298 297 293 290 290 293 297 293 289 289 296 297 299 298 297 300 300 301 302 301 298 298 300 299
301 301 302 302 302 302 302 303 303 304 304 305 306 307 307 307 307 299 296 304 304 303 292 289 293 298 299 300 300 297 298 294 293 290 290 292 294 294 291 288 294 298 299 300 300 298 297 299 295 299 300 300 300 299
302 301 302 302 303 303 303 303 304 304 304 305 306 307 307 305 302 298 303 304 304 297 295 287 291 294 300 295 294 298 292 292 291 291 293 291 293 293 288 295 297 297 296 297 297 299 299 298 300 300 299 298 297 298
302 302 302 302 303 304 304 305 305 304 304 305 306 305 303 300 296 297 305 302 302 297 291 288 286 290 299 297 295 293 295 288 295 290 291 293 290 288 293 295 295 296 296 295 298 298 297 298 297 296 297 297 297 295
303 303 303 303 303 304 305 305 304 304 304 305 303 297 291 297 305 303 296 292 292 292 293 287 292 288 296 294 293 289 293 291 288 291 293 287 289 296 297 298 296 298 297 298 295 295 296 296 294 296 296 298 296 295
302 303 304 304 304 305 305 305 304 304 304 300 294 290 297 303 296 292 288 288 288 286 289 289 290 288 296 288 290 294 288 289 287 289 289 289 291 294 295 294 297 296 297 297 299 299 298 297 296 296 297 296 295 295
301 303 304 304 304 305 305 304 303 302 299 298 296 299 297 292 290 288 287 288 286 286 291 291 291 291 292 295 289 291 288 288 285 293 289 287 291 296 294 295 296 297 297 298 298 296 298 298 298 297 297 295 296 295
301 303 303 303 304 304 305 303 303 302 300 297 292 289 290 288 284 284 282 285 286 291 292 291 289 290 291 291 289 288 286 289 295 289 289 292 294 296 296 297 296 297 298 297 296 297 297 297 298 297 296 296 296 293
301 302 302 303 303 304 304 303 303 301 298 290 288 284 286 284 287 290 291 292 294 293 292 292 289 288 290 288 289 286 292 293 287 285 285 291 294 296 297 298 296 296 297 296 295 296 296 297 296 297 296 296 294 291
301 302 302 302 303 303 303 303 303 301 295 289 289 285 287 294 295 297 297 295 294 295 293 292 292 290 289 288 292 291 288 286 288 289 294 295 298 297 298 297 297 297 296 296 296 296 296 296 296 295 296 296 293 291
302 302 302 303 303 303 303 303 300 299 294 290 288 288 293 292 293 295 296 294 295 294 295 292 289 288 288 290 288 287 287 286 292 297 298 298 297 297 297 298 297 296 296 295 295 296 297 296 295 295 296 294 293 290
302 299 303 303 303 303 302 297 296 291 290 289 289 293 295 296 296 297 299 297 297 293 289 290 287 287 292 289 286 293 290 295 297 298 299 299 298 298 298 296 295 295 295 295 296 297 296 296 296 295 292 293 293 290
299 302 303 303 302 299 296 296 291 289 287 290 289 295 294 296 297 297 298 298 295 292 291 289 292 289 289 285 290 295 297 298 299 298 298 299 299 299 297 296 295 295 296 296 296 297 296 295 294 293 293 293 292 290
301 302 303 301 300 295 291 291 292 288 290 293 292 293 296 297 298 299 300 299 298 297 294 293 291 290 292 296 297 297 297 297 296 297 298 300 300 298 296 296 295 296 296 297 296 295 295 295 295 294 293 292 290 289
302 301 302 301 300 292 288 289 293 290 290 294 296 295 296 297 299 298 298 298 296 293 291 290 293 296 296 300 303 302 299 299 297 295 296 298 299 298 296 295 296 296 296 297 296 292 294 294 295 294 292 291 289 288
300 301 301 300 296 295 292 291 290 292 294 293 297 296 295 297 295 295 295 299 292 290 291 296 298 299 302 304 304 302 299 299 297 297 296 296 297 296 296 296 297 296 295 296 295 294 293 292 294 294 293 292 292 290
298 300 297 298 293 293 292 297 294 296 293 294 293 295 293 292 293 293 297 293 291 293 296 298 298 299 299 300 301 301 300 300 300 297 294 294 294 294 294 295 296 294 295 295 295 294 294 294 293 293 293 293 292 291
299 298 295 295 290 289 289 297 290 291 287 291 294 290 291 292 295 298 292 294 296 300 300 300 300 301 301 301 302 301 301 300 298 297 297 296 295 295 295 295 296 294 294 295 297 296 295 289 293 294 294 293 293 292
299 294 290 289 290 287 292 289 291 290 291 289 290 288 290 293 294 291 289 293 296 299 299 299 299 298 299 300 299 299 300 301 299 297 297 295 294 294 295 294 295 294 295 297 297 296 296 294 291 294 294 293 292 291
288 288 290 285 289 287 286 287 287 288 286 287 286 287 290 295 288 287 288 292 296 297 298 299 300 299 297 298 299 299 301 299 297 295 296 296 294 294 294 294 294 294 296 294 295 295 295 295 294 293 292 292 292 291
283 287 287 288 288 287 288 285 286 287 287 286 288 293 295 290 287 287 289 291 295 296 298 299 299 298 298 299 297 296 298 300 298 295 295 296 296 294 293 292 291 292 295 294 294 294 293 294 293 292 292 292 287 292
284 285 290 295 292 292 289 292 293 291 287 287 290 289 289 286 287 287 291 291 292 294 296 298 300 299 298 298 299 299 299 299 299 297 297 297 296 296 296 293 292 293 294 293 293 293 293 293 292 292 292 293 293 292
289 290 286 289 289 291 288 289 288 287 290 294 293 287 286 283 282 284 287 289 290 294 296 300 302 302 300 297 298 298 297 297 297 297 296 295 296 296 295 294 293 283 291 291 291 292 293 293 293 292 291 292 292 293
288 291 290 287 288 288 288 289 289 291 292 290 288 285 283 285 285 285 287 288 291 294 296 296 296 297 297 297 297 297 296 295 293 292 291 290 291 292 294 294 293 293 292 289 281 285 288 290 292 292 291 291 292 293
289 292 288 288 287 287 290 292 291 291 290 288 287 286 285 285 285 287 287 288 287 290 296 296 296 296 294 293 293 294 296 297 297 295 292 291 292 294 294 293 292 292 292 291 290 289 282 288 287 292 292 292 292 291
292 291 289 289 288 289 289 290 290 290 289 288 289 287 285 285 287 286 284 285 286 287 292 294 295 296 295 294 293 291 290 294 295 296 296 295 295 294 293 292 292 292 291 290 290 289 289 289 289 288 288 288 288 288
290 288 289 286 287 289 291 289 289 288 287 286 285 288 287 285 281 283 284 284 283 282 282 288 290 290 292 292 293 293 289 293 294 295 294 295 293 293 292 291 291 290 289 288 288 288 287 286 286 286 286 284 284 284
289 289 289 289 287 287 288 288 287 285 285 284 283 284 283 283 279 283 286 285 283 282 283 284 285 287 289 289 289 288 288 288 285 283 284 284 284 287 290 290 289 288 287 287 286 286 285 285 285 284 284 284 283 282

GFSWCAN_sfc_thetae_099.txt.gz
Theta_e
303 303 304 304 304 304 305 305 305 305 306 306 306 306 306 306 307 306 304 309 304 298 301 304 304 299 298 298 290 294 294 294 295 287 288 291 291 294 293 294 291 288 288 287 288 286 284 300 299 293 300 304 304 303
303 303 303 303 303 304 305 305 305 305 305 305 305 305 305 306 307 308 302 309 308 298 299 306 308 308 305 304 298 296 296 294 297 290 292 292 292 294 292 287 297 289 294 290 292 293 302 303 302 305 305 303 301 301
302 303 303 303 303 303 304 304 305 304 304 305 305 306 306 306 307 308 304 304 301 297 296 300 302 309 311 309 309 295 295 297 297 300 296 295 288 294 289 291 293 296 299 294 294 298 300 302 303 303 303 301 302 302
302 302 302 303 303 303 304 304 304 304 304 305 305 305 306 307 308 308 305 305 302 297 290 299 309 305 309 308 306 304 302 300 301 299 292 289 289 297 293 294 293 295 297 295 295 298 300 301 303 302 302 303 301 303
302 302 302 302 302 303 303 303 304 304 304 304 304 305 307 308 308 309 311 305 306 298 292 296 306 308 309 306 304 303 303 300 296 291 288 288 294 295 296 296 293 298 295 294 292 298 298 300 303 303 300 300 301 301
303 302 302 302 302 303 303 303 303 304 304 304 305 306 307 308 307 306 298 304 305 304 292 290 304 303 305 304 302 301 299 299 296 291 290 293 298 294 290 291 296 300 301 303 298 301 300 302 302 301 301 301 302 301
303 302 302 302 302 303 303 303 303 303 304 305 305 306 306 307 308 300 297 303 305 304 292 289 297 302 304 302 300 300 301 297 293 290 290 293 295 295 291 289 296 300 301 301 302 301 298 299 297 302 301 303 301 301
303 302 302 302 302 303 303 303 304 305 305 305 305 305 306 306 303 300 305 305 306 299 296 292 294 297 303 296 294 299 295 293 292 291 293 292 296 294 289 296 298 300 300 300 300 300 298 300 302 302 302 300 298 300
301 303 303 302 303 303 304 305 305 305 305 305 305 306 304 301 299 298 305 303 304 299 292 292 292 293 302 298 298 295 294 288 294 289 292 294 291 289 294 298 298 299 299 299 299 299 300 300 300 300 300 298 299 297
301 302 303 303 303 304 304 304 305 305 305 305 304 298 292 298 305 302 297 293 292 293 294 290 296 291 297 297 294 293 292 291 288 292 296 289 290 298 299 300 301 300 300 300 298 297 299 298 299 299 299 300 299 297
300 301 302 304 304 305 305 305 305 305 304 302 294 292 298 302 297 293 289 289 289 287 292 292 294 291 299 291 292 296 290 289 287 290 290 291 292 296 300 299 301 300 301 301 301 300 300 300 298 298 299 299 298 298
301 301 302 303 304 304 305 305 304 303 300 299 297 299 298 293 290 288 289 291 288 288 294 292 293 295 295 298 293 293 289 289 286 295 291 289 295 299 299 298 299 300 300 301 300 298 299 299 299 300 298 297 298 297
301 301 302 303 303 304 304 304 303 302 301 299 294 290 290 290 285 286 284 288 289 294 295 294 292 294 295 294 290 289 287 288 297 290 290 294 297 297 298 299 298 300 300 300 299 298 298 299 300 298 297 298 297 295
301 302 302 303 303 304 304 304 303 302 299 292 290 285 288 287 290 293 293 294 297 297 296 295 291 290 291 288 290 286 293 294 288 287 288 295 298 298 299 298 299 299 299 298 297 297 298 298 297 298 298 298 296 293
301 301 302 302 303 303 303 303 303 301 296 290 290 287 290 296 298 301 299 297 299 299 294 292 291 291 289 289 292 292 289 287 291 288 295 298 298 298 298 299 299 298 298 297 297 298 297 297 297 297 298 297 296 293
302 301 301 303 303 303 303 303 301 300 295 291 290 291 296 295 295 297 298 295 299 296 295 296 290 288 289 292 290 288 288 287 292 297 299 298 298 299 299 300 298 298 298 298 299 298 297 297 297 297 297 296 294 292
302 299 303 303 303 303 303 298 297 293 291 290 290 296 297 296 297 298 299 299 301 293 290 291 288 288 295 290 289 296 292 296 297 299 299 301 300 299 300 298 297 298 298 299 298 298 298 298 298 296 294 294 294 292
300 303 303 303 303 299 298 297 293 290 287 291 292 296 298 300 298 298 300 302 296 292 291 290 293 290 288 288 292 298 299 301 300 300 301 301 301 300 299 298 298 298 299 299 298 298 298 297 296 294 294 294 294 292
301 302 303 302 301 296 292 292 292 288 291 295 296 299 300 299 300 300 303 301 301 298 294 293 291 291 294 298 298 298 300 300 298 299 301 302 301 299 298 298 298 298 299 298 297 297 297 297 297 296 295 294 293 291
302 302 301 301 301 294 289 290 295 292 292 295 299 298 298 298 299 298 299 300 299 294 291 291 295 299 300 301 302 301 301 301 300 298 298 299 300 299 298 298 299 299 299 299 297 293 297 296 296 297 295 294 292 292
301 301 301 301 297 295 293 292 292 294 297 296 298 297 296 298 296 295 295 299 296 291 291 297 300 301 303 304 304 304 302 301 299 299 299 297 298 298 298 298 299 298 298 297 296 295 295 295 296 296 296 295 294 294
299 301 298 299 294 293 292 297 294 297 294 295 296 297 292 292 293 294 298 295 293 294 298 299 300 301 301 302 303 302 302 302 302 299 296 295 296 296 297 298 297 296 297 297 297 296 296 296 296 296 296 296 296 294
300 299 297 295 291 291 291 298 292 293 289 293 296 292 292 294 296 299 294 295 297 300 301 301 302 303 302 303 303 302 303 301 300 299 298 298 297 297 297 298 298 296 296 297 298 298 297 291 295 297 296 296 296 295
299 295 292 291 292 289 295 291 295 293 293 292 291 289 292 295 298 295 290 295 299 301 301 301 302 300 301 302 300 301 302 302 300 299 298 296 295 296 297 297 297 298 298 299 299 298 297 297 293 296 296 295 295 294
291 290 292 288 291 289 287 288 289 290 288 289 287 290 293 298 290 289 289 292 296 298 299 300 301 300 298 299 301 301 303 301 299 297 298 298 296 296 296 296 296 297 298 298 297 297 297 297 297 296 295 294 295 293
285 289 288 289 290 289 289 287 288 288 290 288 290 295 297 293 289 287 289 291 294 297 299 300 300 300 299 300 299 300 301 302 300 297 297 297 297 296 295 293 293 294 297 297 297 296 296 296 296 295 295 294 289 294
284 286 292 297 295 294 293 294 294 292 289 288 292 292 291 286 287 285 289 290 290 296 300 303 302 301 300 300 301 302 303 302 300 298 299 299 299 299 298 296 294 295 297 296 296 296 296 295 295 295 295 295 295 295
291 291 288 291 292 293 289 290 289 288 291 296 294 288 286 284 282 285 288 290 290 293 300 303 305 303 301 301 302 301 301 301 300 300 299 299 299 299 298 296 295 285 293 293 294 296 296 296 295 294 294 294 295 296
289 291 293 288 289 290 290 290 290 291 292 291 289 288 286 286 286 286 288 290 289 291 298 300 301 301 301 301 301 301 300 298 296 294 293 293 293 294 297 296 296 295 294 291 282 287 291 293 294 295 294 294 295 296
290 294 289 290 288 289 291 292 290 290 291 290 290 288 287 286 286 289 288 287 286 288 295 299 300 299 297 297 297 298 299 299 298 297 294 293 294 296 297 296 295 295 295 295 293 292 283 288 289 295 294 294 294 294
292 293 290 290 288 289 289 290 291 290 290 290 291 289 287 286 288 287 286 287 288 289 293 297 298 298 298 297 296 296 295 299 299 299 299 298 297 296 296 295 295 295 294 294 293 292 292 292 292 291 290 290 290 290
293 290 290 288 287 289 291 290 291 289 289 289 288 289 289 288 283 284 285 286 286 286 285 292 294 293 297 299 299 298 291 297 298 297 297 297 296 296 295 294 294 294 293 292 292 291 291 290 290 290 289 288 286 286
290 291 292 290 288 288 289 289 288 287 287 286 285 286 286 284 280 284 288 288 285 285 285 287 289 292 293 294 293 292 289 289 285 283 284 284 284 289 294 293 292 292 291 291 290 290 289 288 288 287 287 286 286 284

GFSWCAN_sfc_thetae_102.txt.gz
Theta_e
303 303 303 303 304 304 304 304 305 305 305 306 307 307 306 306 306 307 305 311 307 300 301 304 303 299 299 297 292 297 296 296 296 290 290 290 290 294 293 294 292 291 288 286 286 284 283 301 300 293 299 303 303 302
303 303 303 304 303 304 304 304 305 305 305 305 305 305 305 305 306 308 302 311 308 301 300 307 308 309 306 305 299 298 298 296 298 294 293 293 291 293 292 287 298 290 294 291 292 292 301 302 302 306 305 302 302 302
303 303 304 304 303 303 303 304 304 305 305 305 305 305 306 306 307 307 307 305 302 296 297 300 301 308 311 310 311 297 297 299 298 302 297 294 289 293 288 290 293 297 299 293 295 298 299 301 304 304 303 303 303 303
303 303 303 303 303 303 303 303 304 304 304 304 305 305 305 306 307 307 305 305 304 298 290 297 309 306 311 311 309 307 303 303 302 301 293 291 288 296 292 293 292 295 296 295 295 298 300 301 302 302 302 303 302 303
303 303 303 303 303 303 303 303 303 304 304 304 304 304 305 306 308 308 309 307 308 299 292 295 302 308 308 308 305 305 303 300 295 291 290 288 293 293 295 294 292 297 296 294 293 298 299 299 302 303 301 300 301 300
301 303 303 303 303 303 303 303 303 303 304 304 305 306 306 307 307 305 298 306 309 305 294 290 305 304 306 307 304 302 302 301 298 291 290 293 297 293 289 289 296 300 300 302 299 301 301 301 302 302 301 302 302 301
301 302 303 303 303 303 303 303 303 303 304 304 305 306 306 307 306 300 298 303 307 305 293 289 296 303 306 304 302 299 302 300 297 291 289 291 293 295 291 287 295 298 300 301 302 300 297 299 298 302 303 303 303 301
300 301 302 303 303 303 303 304 304 304 305 306 305 305 306 306 304 301 306 305 305 299 296 288 294 297 304 297 296 301 296 294 292 291 292 293 296 293 288 295 298 300 301 300 300 301 300 301 302 301 302 302 300 299
300 300 301 303 304 303 303 304 304 305 306 305 305 305 304 302 298 300 306 305 305 299 292 293 292 290 301 299 300 296 294 287 293 289 291 293 291 289 293 297 299 300 298 297 299 300 300 299 299 300 300 299 298 297
300 301 301 302 304 304 304 304 304 305 305 305 303 298 292 298 306 304 298 294 293 293 293 290 297 291 298 299 295 293 292 289 286 290 296 290 289 296 299 300 300 299 299 299 297 296 297 297 297 298 298 299 298 297
300 301 301 302 303 304 305 305 305 305 304 303 295 293 298 302 297 293 288 289 290 288 293 294 295 291 300 292 292 296 290 291 287 290 291 289 291 297 301 301 301 300 300 301 301 299 299 298 297 297 298 297 297 296
300 301 302 302 303 304 304 305 305 303 299 299 297 299 298 293 290 288 288 291 290 289 295 292 293 295 297 299 294 294 289 290 285 293 290 288 295 299 299 298 299 300 300 300 300 298 298 299 299 298 297 297 297 295
300 301 302 302 303 304 304 304 303 302 301 299 295 291 291 290 285 285 285 288 289 294 296 296 292 296 296 297 294 290 286 287 297 290 289 293 297 297 298 299 299 301 300 300 298 298 299 299 298 298 297 297 296 293
301 301 302 302 303 303 304 304 303 301 299 292 289 285 287 287 290 293 293 294 298 298 296 296 292 292 293 290 290 286 291 294 288 287 288 294 297 298 298 300 299 298 298 298 297 298 297 296 297 297 297 296 294 292
301 301 302 302 303 303 303 304 303 302 297 290 291 286 290 296 299 299 300 299 299 299 297 293 291 292 289 288 291 290 289 287 289 286 293 296 298 299 299 299 297 297 297 297 298 297 296 297 296 296 296 295 293 292
302 302 301 303 303 303 303 303 302 300 295 291 291 290 296 296 296 298 299 296 299 298 296 297 290 288 288 290 289 288 288 287 290 295 297 298 299 300 300 298 297 298 298 298 297 296 297 296 295 295 295 294 293 292
301 299 303 303 303 303 303 299 297 293 291 290 290 297 296 298 296 298 301 299 301 295 291 291 287 288 294 290 289 294 292 294 297 298 300 301 300 299 298 297 298 299 298 297 297 297 297 297 296 294 293 294 292 292
298 303 303 303 303 300 298 297 294 291 288 292 292 297 299 300 299 300 302 300 298 294 293 290 295 290 289 288 290 297 299 301 301 300 300 301 301 300 299 298 298 299 298 297 297 297 297 296 295 294 294 295 293 291
301 303 303 303 301 297 292 293 293 288 291 295 297 299 299 299 301 301 304 302 300 299 295 294 290 290 293 297 297 299 300 299 298 299 300 302 301 299 298 299 299 299 297 297 297 296 296 298 296 296 295 294 293 290
301 302 302 301 302 294 291 291 295 292 292 296 298 297 298 298 300 300 302 301 298 295 292 291 294 296 298 301 302 302 301 301 300 297 297 299 300 299 299 299 298 299 298 298 296 294 296 296 296 297 295 293 293 292
301 301 301 302 298 295 293 292 292 294 297 295 297 297 296 298 297 296 296 300 296 295 292 296 299 302 303 305 304 303 301 301 299 299 298 296 298 298 298 299 299 298 297 296 295 295 294 295 296 296 297 296 295 294
299 301 299 298 295 294 291 297 295 296 295 296 295 296 294 293 293 295 299 296 295 297 298 298 301 302 302 302 302 303 303 302 302 299 296 296 296 296 297 298 298 297 296 297 296 295 295 295 296 296 296 296 295 294
300 300 297 295 291 290 290 299 293 294 290 293 296 293 293 294 296 300 295 297 299 301 301 301 302 304 302 303 303 302 303 302 299 298 298 298 298 298 298 298 298 297 296 297 298 297 296 291 295 296 296 296 296 295
300 297 293 292 293 289 294 292 294 293 293 292 292 291 293 295 299 296 292 296 299 302 301 302 302 301 303 302 300 300 301 302 299 299 298 296 296 297 298 297 298 299 299 299 298 298 297 296 294 295 295 295 294 293
289 291 292 287 292 289 288 288 289 290 288 291 289 291 294 298 292 292 291 292 296 299 300 301 301 301 299 300 300 301 304 302 298 296 297 298 297 296 296 296 296 298 299 298 297 297 296 297 297 295 295 294 294 292
286 290 287 289 290 289 290 288 289 289 291 290 291 294 298 294 289 287 288 289 291 294 296 299 300 301 301 301 300 300 301 303 300 296 297 297 298 296 295 294 293 294 298 298 297 296 296 296 296 296 295 294 289 294
286 287 293 297 296 295 293 295 295 293 290 289 293 293 292 287 285 284 288 289 289 292 293 294 302 302 301 302 302 303 303 303 301 298 299 299 299 299 298 295 294 295 297 297 297 297 296 295 295 295 295 295 295 295
292 292 289 293 293 295 290 291 290 289 291 293 293 288 286 285 283 285 287 291 291 290 293 296 302 304 303 302 302 302 301 300 301 300 299 299 299 298 297 296 294 287 294 293 295 297 297 296 295 295 294 294 295 296
290 294 294 289 291 291 291 291 291 291 292 292 289 287 286 286 286 286 287 290 290 290 294 299 302 304 302 302 302 301 300 299 296 294 293 292 292 293 295 295 295 294 293 290 283 288 292 294 295 295 295 295 296 296
291 296 290 290 290 288 289 292 290 291 293 293 292 289 287 286 287 289 288 288 286 286 291 296 300 300 298 298 297 298 300 299 299 297 294 293 294 296 296 296 296 296 296 295 293 292 283 290 289 294 293 293 294 293
294 294 291 291 288 288 290 292 292 292 292 291 292 289 286 286 288 289 287 288 288 288 289 293 298 299 298 297 297 296 296 299 300 300 300 298 297 297 296 296 295 295 295 294 294 293 293 292 292 292 291 290 290 290
293 291 290 287 287 289 291 291 291 290 290 289 288 290 289 288 283 285 287 287 286 286 286 289 292 292 294 295 295 293 290 296 298 299 298 298 297 296 295 295 294 294 293 293 293 292 292 291 291 291 289 287 286 286
292 293 292 290 288 287 290 290 289 287 288 287 286 287 287 285 280 284 288 288 286 285 286 287 289 292 293 293 292 290 288 288 285 284 284 284 284 289 293 293 293 292 292 291 291 291 290 289 288 287 287 286 284 283

GFSWCAN_sfc_thetae_105.txt.gz
Theta_e
304 304 304 304 304 304 304 303 304 305 305 306 306 306 306 306 306 305 304 308 304 298 298 301 303 298 297 295 289 294 291 293 292 285 286 287 285 288 288 293 291 288 284 282 284 282 278 300 298 292 296 300 300 298
303 304 304 304 304 304 304 304 304 304 305 305 305 305 305 305 306 307 301 309 308 300 298 303 303 305 303 303 297 295 294 295 295 289 288 290 287 287 286 280 293 285 290 288 287 285 296 300 298 300 300 299 298 297
302 302 304 304 304 304 304 304 304 304 305 305 305 305 306 306 306 306 303 305 302 297 295 297 298 305 307 305 306 295 295 297 296 299 292 289 286 288 281 284 288 293 297 292 292 295 298 298 300 301 300 300 301 299
301 302 303 303 304 303 303 303 303 304 304 304 305 305 305 306 307 307 303 305 302 297 290 293 305 303 308 308 307 305 300 301 299 295 291 289 286 290 285 287 287 290 293 290 290 295 297 300 298 301 301 302 299 299
301 302 302 303 303 303 303 303 303 303 304 304 304 305 305 305 307 306 305 306 305 298 291 293 298 302 304 306 305 304 300 297 295 290 289 287 290 288 289 290 288 292 291 288 289 295 294 295 298 300 297 297 298 297
301 301 301 303 303 303 303 303 303 304 304 304 305 305 306 306 307 303 297 306 307 304 294 288 299 301 304 305 303 301 300 299 296 291 290 292 293 291 284 283 291 297 299 298 294 299 296 297 298 298 297 299 301 297
300 301 301 302 303 303 303 303 304 304 304 304 305 306 306 306 305 298 296 301 307 304 293 288 291 300 305 303 301 298 300 298 296 291 289 289 289 292 289 283 291 294 296 298 300 297 294 295 294 298 299 301 300 298
300 300 301 301 302 304 303 303 304 305 305 305 306 305 305 306 304 299 305 306 305 297 295 287 289 296 304 296 294 300 294 294 293 291 291 289 291 292 285 290 294 297 299 299 298 296 296 297 297 297 298 297 295 295
300 300 301 301 302 303 304 303 304 305 305 305 305 306 304 301 297 300 307 306 303 298 290 290 289 287 301 297 296 295 295 287 292 288 289 291 288 285 290 293 296 299 295 295 297 297 296 294 295 295 295 295 293 293
300 300 301 302 302 303 304 305 305 305 306 305 304 298 292 297 306 304 298 294 292 293 292 288 294 290 298 296 294 291 292 288 285 288 292 289 287 294 296 298 299 298 298 298 295 293 293 292 293 294 294 295 295 292
300 300 301 302 302 303 304 305 305 305 305 301 295 292 297 303 296 292 288 288 289 287 291 291 292 291 297 290 291 294 287 289 284 288 288 287 287 296 300 299 300 299 299 298 299 296 293 293 293 294 294 295 293 291
300 300 301 302 302 303 304 305 305 302 298 298 297 299 297 293 290 287 286 289 287 287 293 291 293 295 295 297 292 293 289 288 282 292 288 285 293 297 297 298 298 297 299 298 296 295 295 296 295 295 294 293 292 290
300 301 302 302 303 303 304 304 304 303 301 299 295 291 289 288 283 283 283 287 288 293 295 293 292 294 294 295 291 288 284 284 294 288 287 291 295 296 297 298 298 299 297 296 295 296 296 295 296 295 293 292 292 290
300 301 302 302 302 303 304 304 303 301 298 292 288 284 286 285 286 290 290 290 297 296 295 294 292 292 292 289 289 284 289 291 287 285 287 292 295 297 297 299 296 295 295 296 295 295 295 295 294 294 293 292 291 289
301 301 303 302 302 303 303 304 303 301 296 290 290 285 288 293 297 298 297 297 298 298 295 292 291 292 289 287 289 288 287 286 287 285 290 294 295 297 296 296 295 295 295 295 295 295 294 294 293 293 292 291 291 290
301 302 301 303 303 304 303 304 301 299 295 291 290 288 293 295 295 297 297 295 298 297 297 295 289 287 287 288 287 287 287 285 287 293 294 296 296 296 295 296 297 297 296 295 295 295 294 293 292 292 290 290 290 290
301 298 303 303 303 304 303 299 297 293 291 290 288 294 293 294 293 293 296 297 299 295 290 292 286 286 293 288 287 291 287 291 295 295 296 297 296 295 295 296 298 297 296 295 294 294 294 294 294 291 289 289 290 291
298 303 304 303 303 300 298 297 293 291 287 290 289 295 299 300 298 299 299 299 296 294 293 290 294 289 287 287 286 293 296 298 297 297 296 297 298 296 296 296 296 296 296 296 295 294 294 293 291 290 290 290 289 289
300 300 303 303 301 296 292 293 293 287 289 293 296 297 297 299 301 302 301 300 299 299 296 293 290 288 291 293 295 297 298 297 295 297 298 298 297 296 297 298 296 295 294 293 293 293 292 293 293 291 291 291 288 288
300 301 302 302 301 294 291 291 295 290 290 294 298 296 298 298 300 301 301 299 297 295 291 290 291 294 294 296 300 299 300 299 297 295 295 295 297 297 297 296 296 295 293 293 292 292 292 291 293 293 291 290 289 287
300 301 301 301 297 295 293 292 291 293 296 295 298 297 296 299 298 297 297 300 296 294 291 294 296 300 301 302 303 303 301 300 298 297 295 294 295 295 295 295 296 294 293 292 291 291 291 291 291 293 291 290 290 290
299 301 298 298 295 294 291 295 293 297 295 296 296 297 294 292 293 296 299 295 295 296 297 297 299 301 301 301 302 300 300 298 297 296 294 294 293 294 294 294 294 293 293 292 291 290 291 292 292 292 292 290 290 289
301 299 297 295 291 289 289 298 293 294 290 293 296 293 293 293 296 300 294 296 298 301 301 301 302 303 302 303 304 302 302 300 296 295 295 294 295 295 295 295 295 293 292 293 293 292 291 289 291 292 292 292 291 290
300 296 292 291 291 288 294 292 295 293 293 292 291 290 293 295 299 295 292 295 297 301 301 301 302 300 302 302 299 299 299 298 296 295 295 294 293 294 295 295 295 295 295 294 295 294 292 292 291 291 292 291 290 289
288 290 290 285 293 290 288 288 289 289 288 290 289 290 294 298 292 291 290 290 293 293 293 296 299 300 299 299 299 300 302 299 295 293 295 295 294 294 293 293 294 295 296 294 293 293 293 293 292 291 291 291 289 288
285 290 287 289 290 289 290 288 288 289 290 290 291 294 298 294 290 286 286 286 288 291 289 290 290 296 299 300 299 299 300 299 297 294 294 295 294 293 291 290 290 291 296 296 294 294 293 293 293 293 292 291 287 290
285 287 292 296 295 294 292 294 295 292 290 289 292 292 291 287 284 283 287 288 288 290 290 291 292 294 299 301 302 302 301 299 297 297 297 296 295 294 294 292 291 291 294 295 295 295 293 293 292 293 292 292 292 291
291 292 289 293 292 294 290 291 290 290 289 292 292 288 285 284 281 285 286 289 290 289 289 292 295 297 299 303 302 300 297 298 298 297 296 295 294 293 291 291 290 286 289 290 294 295 294 293 292 292 292 291 291 293
290 294 293 290 291 291 291 289 289 290 292 291 288 285 284 284 285 285 287 288 289 288 289 292 295 303 303 304 300 298 297 296 294 292 291 289 289 290 292 292 291 290 289 288 283 287 290 291 292 292 293 292 292 292
291 295 291 290 288 286 288 291 289 292 292 292 289 287 285 285 287 288 287 287 286 285 287 290 295 297 298 297 296 297 298 298 297 295 292 290 291 293 294 294 292 291 291 290 289 289 283 289 288 292 290 290 290 289
295 294 291 290 286 288 290 292 293 293 292 291 291 287 284 285 287 287 286 287 286 286 286 290 292 291 290 295 295 295 294 297 298 300 297 295 295 294 294 294 294 293 293 292 291 290 290 290 289 288 287 286 287 286
293 291 290 287 286 290 291 291 291 290 290 289 288 290 288 286 282 284 286 286 284 283 283 286 287 289 290 288 288 289 286 288 291 296 295 294 294 294 293 293 293 293 292 291 291 290 290 289 288 286 284 283 282 282
292 292 291 289 287 287 289 289 289 287 288 286 286 287 285 283 279 283 288 287 285 285 284 285 287 289 290 290 288 286 286 285 284 284 284 284 284 287 290 292 292 292 291 290 289 288 286 285 284 284 283 281 280 280

GFSWCAN_sfc_thetae_108.txt.gz
Theta_e
303 303 303 303 304 304 304 304 304 304 305 305 306 306 306 306 306 301 299 304 302 294 294 299 300 296 295 293 287 291 289 289 288 281 283 285 282 284 285 290 289 288 284 282 285 281 279 298 296 290 293 298 299 296
302 302 303 303 304 304 304 304 304 304 304 305 305 306 306 306 306 305 295 304 306 298 295 299 300 301 301 300 294 291 290 292 293 288 288 288 285 284 283 277 293 282 288 287 284 282 291 297 295 297 296 295 296 295
302 302 302 303 303 303 303 303 303 304 304 305 305 305 305 306 306 304 297 300 298 293 292 293 294 300 304 302 301 291 290 295 294 297 291 287 282 284 278 281 285 289 293 289 291 293 295 298 299 300 298 296 298 298
301 301 302 302 303 304 303 303 303 303 304 304 305 305 305 305 306 306 298 300 298 294 289 290 301 298 304 302 301 299 299 300 297 294 288 289 285 286 282 284 283 287 289 287 288 292 294 299 299 298 298 299 298 297
301 301 301 301 302 303 304 303 303 304 304 304 305 305 305 306 306 305 303 303 303 296 288 288 294 297 298 302 301 300 299 296 293 290 287 285 286 285 285 285 283 288 286 284 283 294 294 295 298 298 295 295 296 296
301 301 301 301 302 302 304 303 304 304 304 304 305 305 306 306 306 300 295 303 302 303 293 285 293 295 298 302 301 299 299 297 294 291 290 292 293 289 283 280 288 292 297 298 293 297 296 298 296 296 295 297 300 298
301 301 300 301 302 302 304 303 303 304 305 305 305 306 306 305 298 296 295 301 306 303 292 287 287 298 301 301 300 298 297 295 292 291 289 289 290 292 286 283 288 291 293 296 297 296 294 295 292 295 296 297 297 294
301 301 301 301 302 302 304 304 303 304 305 305 306 305 305 305 302 297 300 305 304 296 293 286 286 292 301 295 294 297 292 293 292 291 291 288 287 289 284 287 291 294 296 297 298 297 295 295 292 293 295 294 292 291
301 301 301 301 302 302 303 305 305 305 305 305 305 305 302 300 296 299 307 305 302 297 289 289 287 286 299 296 295 293 293 287 293 288 288 289 285 284 287 288 293 297 296 296 297 296 292 291 292 293 292 292 290 290
301 300 301 301 302 303 303 305 305 305 305 305 302 297 292 296 305 303 297 293 292 292 292 287 288 287 295 292 286 290 291 288 284 287 291 285 282 290 291 294 296 297 298 296 294 293 289 290 291 292 292 291 291 289
300 301 301 302 303 302 303 304 305 305 304 299 294 292 297 303 296 292 288 287 288 286 289 289 288 287 295 289 290 292 287 288 283 286 286 287 283 293 298 296 297 298 298 297 294 292 290 291 291 291 291 291 290 289
300 301 302 302 303 303 303 304 305 301 298 298 296 298 297 293 290 286 284 288 287 283 288 287 287 289 291 293 288 291 288 287 281 291 288 284 291 297 297 297 296 295 295 293 293 292 292 293 293 292 291 290 290 289
300 301 302 302 302 303 304 304 304 303 301 298 294 290 289 287 282 281 280 284 285 287 290 289 287 288 289 290 286 284 283 282 291 287 285 289 291 296 295 295 294 293 294 293 292 292 293 292 293 291 290 292 291 289
300 301 302 302 303 302 303 304 304 301 297 291 288 283 284 283 284 286 288 288 292 292 292 292 290 288 287 285 285 282 286 288 285 284 285 287 293 294 295 295 294 292 292 292 292 293 292 292 292 291 291 292 290 288
300 301 302 302 303 303 303 304 303 300 295 289 289 283 286 290 294 294 294 293 295 292 291 291 290 288 285 286 288 287 285 285 286 284 288 292 292 294 293 293 292 292 292 292 292 291 292 292 291 289 290 290 290 289
301 301 301 303 303 304 303 304 300 298 294 291 289 286 288 290 291 289 293 293 293 293 292 291 288 286 286 286 286 285 286 284 286 291 290 293 293 292 291 294 294 295 292 291 292 292 292 291 290 289 289 289 290 289
300 298 303 303 303 303 303 298 296 292 290 290 288 289 289 290 290 291 295 294 294 290 287 288 285 285 288 284 284 289 286 288 292 289 293 293 291 290 293 294 295 294 293 292 292 292 291 292 291 290 287 288 290 289
297 301 303 303 302 300 297 296 293 290 287 289 284 286 294 296 294 296 297 294 292 292 290 288 291 286 286 285 285 290 294 296 293 291 294 294 291 293 294 292 294 294 293 292 292 292 291 290 289 288 287 288 288 288
300 300 300 303 300 295 292 292 292 286 287 287 288 290 292 294 296 296 295 295 294 294 293 291 288 286 289 290 293 295 294 292 290 291 294 292 292 293 293 294 293 291 291 291 290 289 290 290 289 288 288 288 286 287
301 300 301 302 301 293 290 290 294 288 285 290 293 290 291 293 297 297 293 293 292 290 289 288 287 292 290 294 297 298 298 293 291 288 288 289 291 293 293 291 290 290 289 289 289 290 289 289 290 289 288 287 286 286
298 300 302 300 296 295 292 290 289 288 289 289 293 291 291 294 291 292 292 294 290 289 287 291 293 298 300 300 301 301 299 296 291 291 289 288 291 290 291 292 291 289 288 288 287 288 289 288 289 289 288 287 287 287
298 301 297 297 294 293 290 294 291 294 289 290 291 292 289 288 291 293 293 290 289 291 292 293 295 297 299 299 299 296 298 297 294 293 291 290 288 289 289 291 290 288 287 287 288 288 287 288 289 288 287 287 287 287
299 299 295 295 290 288 289 296 291 290 288 290 292 289 288 287 289 295 288 291 295 299 300 299 300 299 300 301 300 297 295 293 291 290 290 289 288 290 290 290 291 289 287 287 288 288 288 287 288 289 289 288 287 286
299 293 291 289 289 287 292 291 291 291 291 290 289 287 289 290 293 290 290 293 293 294 292 294 299 299 299 298 295 294 293 293 290 290 290 291 290 288 290 290 290 290 290 289 288 288 288 289 288 288 288 288 287 285
287 285 287 283 291 289 288 288 289 289 286 287 287 287 290 295 288 287 288 288 289 290 290 291 292 295 298 297 295 294 294 293 290 288 289 291 289 289 288 289 290 291 293 290 289 289 288 288 288 288 287 286 286 286
284 289 285 289 289 287 288 286 287 287 287 289 289 292 293 291 288 284 284 285 287 289 288 288 288 289 295 299 296 294 294 293 292 289 289 289 290 288 286 286 287 288 290 291 290 290 289 289 289 288 287 287 285 286
282 284 290 294 292 293 291 292 293 291 289 289 290 289 289 286 282 283 286 287 286 288 289 289 289 290 293 296 300 300 296 293 293 291 291 289 289 290 290 288 288 287 291 293 291 291 290 290 289 289 288 288 287 287
289 290 287 291 291 291 289 289 290 288 288 290 291 285 283 282 279 282 285 287 288 288 289 290 292 294 295 297 300 296 294 293 292 292 290 289 289 290 290 288 287 285 290 291 292 291 290 290 289 289 288 288 288 288
288 291 290 287 290 291 290 288 287 289 291 289 286 283 282 283 284 284 285 286 288 287 287 288 291 295 300 300 301 294 293 293 290 287 285 284 284 286 289 287 287 287 287 286 284 287 290 289 289 289 289 288 287 287
289 292 288 289 287 285 287 290 289 291 291 288 285 285 284 284 284 284 284 285 284 284 285 290 291 289 289 293 292 292 293 294 293 290 287 285 286 288 289 287 287 286 287 287 287 286 286 288 286 288 287 286 285 284
292 292 291 289 287 288 290 290 291 291 290 288 288 284 281 283 285 283 284 284 284 285 285 286 287 287 285 286 286 290 290 292 293 294 293 292 290 290 290 290 289 289 289 288 288 288 287 285 284 283 283 282 282 281
289 289 289 286 286 289 291 290 289 288 288 287 286 287 285 283 279 281 283 285 283 282 283 285 284 284 286 285 285 285 283 285 287 293 293 291 290 290 290 290 291 291 290 289 289 288 286 284 282 281 279 279 278 279
289 290 289 287 285 286 288 288 288 285 284 283 284 284 282 279 276 280 281 285 284 283 283 284 285 286 286 286 285 285 285 284 284 283 284 284 285 287 289 290 290 289 287 285 284 283 282 281 279 279 278 278 277 278

GFSWCAN_sfc_thetae_111.txt.gz
Theta_e
303 303 302 302 303 303 304 304 304 304 304 305 306 306 306 306 306 302 297 302 302 296 294 298 298 296 296 291 286 290 289 290 287 280 281 281 281 282 284 290 290 287 285 283 286 282 280 296 295 287 290 293 296 296
302 302 302 302 302 303 304 304 303 304 304 305 305 306 306 306 307 304 294 304 304 298 296 298 299 301 300 298 292 290 290 290 290 284 285 287 286 282 281 277 293 283 286 281 283 282 289 295 295 296 295 294 295 294
302 301 302 302 302 303 304 304 303 303 304 304 305 305 305 305 306 303 297 300 297 291 290 292 292 298 301 301 301 291 290 294 294 294 290 285 281 283 276 280 283 287 291 287 287 290 293 295 296 297 296 297 296 296
302 302 301 302 302 303 303 304 304 304 304 304 305 305 306 306 306 306 298 298 296 292 288 289 299 296 303 300 299 297 295 296 295 294 290 288 285 286 281 282 282 285 287 285 286 288 292 295 297 297 299 298 297 297
301 302 301 301 301 302 303 304 304 304 304 304 305 305 306 306 306 303 302 301 302 296 288 287 292 296 298 300 300 298 295 293 290 288 286 286 284 283 283 283 281 286 284 281 281 288 290 291 296 297 295 294 294 293
301 302 302 301 301 302 303 305 304 304 305 305 305 306 306 306 305 299 294 302 304 303 293 285 291 293 298 300 298 296 296 296 292 287 289 288 289 286 282 278 285 288 292 295 290 294 295 295 297 297 293 294 295 293
301 301 301 301 301 302 303 304 304 304 305 306 306 306 306 305 296 295 295 300 305 303 293 286 286 298 301 298 299 298 297 291 291 291 290 289 289 290 287 282 286 289 293 293 293 294 292 294 291 294 294 294 294 292
300 301 301 301 301 302 303 304 305 305 305 305 305 305 306 305 302 292 301 304 303 296 294 285 287 292 300 295 293 297 293 292 290 290 290 287 287 287 283 286 288 293 293 295 295 297 296 294 293 293 293 292 290 290
301 301 301 301 302 303 303 304 305 305 305 305 306 306 302 299 296 299 307 304 302 296 288 288 286 285 298 295 295 293 294 287 293 288 289 290 287 283 285 287 290 294 294 294 296 295 292 292 293 292 291 289 288 288
301 301 301 302 302 303 303 304 305 305 305 305 301 297 292 296 305 303 297 293 292 292 292 286 289 285 293 290 286 290 290 286 284 287 291 286 285 289 290 291 292 294 297 295 293 290 291 290 290 289 289 289 289 288
300 301 302 302 303 303 303 304 305 305 304 299 293 291 297 302 296 292 288 287 288 286 289 289 289 285 296 290 289 290 285 286 282 282 285 286 284 288 297 295 294 298 295 293 293 290 289 290 290 289 289 290 289 288
300 300 301 302 303 303 303 304 304 300 297 296 296 298 297 293 290 286 284 287 286 282 286 285 286 287 293 293 286 290 286 287 281 289 286 284 291 296 296 295 293 294 294 293 293 291 291 291 290 289 289 289 289 288
300 300 301 302 303 303 303 304 304 302 301 298 294 290 289 287 280 281 280 283 285 286 289 288 285 290 289 290 286 285 283 282 290 286 284 288 292 296 293 293 293 293 292 291 291 291 291 290 290 289 289 291 289 287
300 300 301 302 303 303 303 303 304 301 297 292 288 283 284 282 284 285 286 289 293 293 292 291 288 287 285 284 282 279 283 285 283 282 285 287 291 294 294 294 293 290 290 290 290 290 290 290 289 289 290 291 288 286
300 301 301 302 303 303 303 303 304 299 295 289 289 282 285 289 290 289 291 292 294 294 293 291 290 288 284 285 285 286 285 283 284 285 287 290 291 293 292 291 290 290 289 289 290 290 290 290 288 288 289 290 289 287
300 301 300 302 303 303 303 303 300 298 294 290 289 285 286 288 289 289 293 293 295 294 294 292 286 284 284 284 285 284 285 284 285 288 290 291 292 292 290 292 292 292 290 289 289 290 290 290 288 288 289 290 288 286
300 297 302 303 303 303 302 298 296 292 289 289 285 291 289 289 289 291 294 295 295 291 288 289 285 284 287 284 285 288 285 288 290 288 292 292 289 290 292 293 293 292 291 291 291 291 290 290 290 287 286 287 289 287
297 300 302 303 302 300 297 296 293 290 287 288 283 285 292 294 294 293 293 294 292 290 291 288 290 287 285 285 285 290 293 292 292 292 292 291 290 292 293 292 292 291 291 291 291 290 289 288 287 286 286 287 287 288
299 300 301 302 300 296 292 291 291 286 287 286 286 287 289 291 293 295 293 293 294 294 292 291 287 285 288 290 291 294 292 291 289 291 293 290 291 291 292 292 292 291 290 290 289 288 288 288 286 287 286 286 285 286
301 301 301 301 301 293 290 290 293 288 284 288 290 289 288 291 295 296 292 292 291 290 288 287 286 291 292 294 297 296 298 293 289 287 287 288 290 291 289 290 288 288 288 289 289 289 288 287 287 287 286 286 285 284
299 299 300 300 296 295 292 290 289 286 287 286 290 289 289 294 291 290 293 292 290 289 287 290 293 297 299 298 298 298 298 292 290 289 288 287 289 290 289 288 289 288 287 287 287 288 287 286 286 286 286 286 286 285
298 301 297 298 293 293 290 292 290 293 290 288 289 289 287 286 289 293 291 288 288 293 294 294 295 296 297 297 297 298 299 296 293 290 289 289 288 288 288 288 288 287 287 287 287 287 287 287 287 286 285 285 286 285
299 298 295 294 290 288 287 295 289 290 286 288 290 287 286 286 287 293 287 291 294 294 293 295 296 300 298 299 298 294 298 295 292 290 289 287 288 289 289 288 288 287 286 286 288 287 287 286 287 287 286 286 285 284
299 294 290 289 289 286 291 290 291 291 290 289 289 287 289 290 292 291 289 291 292 292 291 291 292 296 298 297 294 290 292 293 289 288 288 287 287 286 289 289 288 288 288 288 288 287 287 287 287 286 286 285 284 283
288 284 289 282 291 288 287 287 289 288 285 286 286 285 289 292 289 289 287 286 288 289 288 289 290 290 293 297 295 291 291 291 290 288 288 289 287 287 287 287 288 288 290 288 287 287 287 287 286 286 286 285 283 283
285 288 286 288 288 286 288 285 287 285 286 288 289 291 292 289 287 283 284 285 285 287 286 286 286 287 290 295 296 293 294 291 292 288 287 289 291 290 288 287 287 287 289 290 289 288 287 287 286 286 285 285 284 284
282 284 289 293 290 292 290 290 290 290 288 288 289 289 288 285 282 282 286 285 285 286 287 288 288 288 289 291 295 297 291 292 291 290 288 288 287 290 292 289 287 288 290 291 291 291 289 289 287 286 285 285 285 285
286 290 287 288 290 290 287 288 288 287 288 289 289 283 281 280 278 282 284 286 286 287 288 289 291 292 292 294 297 295 289 289 290 290 289 288 288 287 288 288 288 286 290 290 291 291 290 288 288 287 286 285 285 285
287 290 288 286 289 290 289 287 288 289 290 289 285 282 281 282 282 282 284 285 286 286 285 287 290 291 295 299 300 295 290 290 289 286 284 283 284 284 285 287 288 289 289 287 284 287 289 288 288 287 286 285 284 284
287 290 286 287 286 285 287 290 288 290 289 285 284 284 283 282 280 283 284 284 283 283 285 287 288 286 286 288 292 291 291 292 290 288 285 284 285 286 286 286 287 287 289 289 287 286 285 287 285 285 284 283 283 282
291 291 290 288 287 288 289 289 290 288 287 285 286 281 280 282 283 280 283 284 284 285 284 284 285 285 283 283 284 288 288 289 289 292 290 288 288 287 286 287 287 288 289 288 286 285 284 283 283 281 281 280 280 281
287 288 288 285 286 289 290 289 289 286 287 287 285 285 284 280 276 279 282 283 282 281 283 284 283 283 285 286 285 284 283 284 287 291 291 290 289 289 289 290 290 290 289 287 285 283 282 281 280 279 278 278 278 279
290 290 289 287 285 286 287 287 286 283 281 280 283 283 281 277 271 273 277 283 283 283 283 284 285 286 286 286 286 285 284 284 284 284 285 285 286 288 289 288 288 287 286 284 283 282 280 279 278 278 278 277 277 278

GFSWCAN_sfc_thetae_114.txt.gz
Theta_e
301 302 302 302 302 303 304 304 304 304 304 305 306 306 306 307 307 303 298 302 300 295 295 299 299 296 295 291 288 289 289 290 286 280 282 281 281 281 282 289 288 285 283 284 285 282 278 295 294 288 289 291 295 295
301 302 302 302 302 303 304 304 304 304 304 305 305 306 306 306 306 303 294 303 302 297 294 297 300 301 300 300 293 290 288 289 288 283 282 283 280 281 281 277 291 286 285 282 284 283 289 294 292 295 294 294 295 294
301 301 303 302 301 302 303 304 304 304 304 305 305 306 306 306 306 304 297 298 296 290 289 290 292 298 301 300 300 289 289 293 292 291 286 284 280 282 276 280 283 286 290 289 286 288 290 293 295 297 296 295 296 296
300 301 303 302 302 301 303 304 304 304 305 305 305 306 306 307 306 306 298 300 299 291 287 288 298 295 300 299 298 297 295 295 293 291 286 284 279 284 280 281 281 285 285 284 285 287 289 292 294 296 296 297 297 296
300 301 302 302 302 302 303 304 304 304 305 306 306 306 306 306 306 301 301 302 302 296 288 287 291 295 298 297 297 297 295 292 289 286 285 282 284 283 281 281 279 285 283 281 280 286 287 289 294 296 295 294 294 293
300 301 302 302 302 302 302 304 304 305 305 306 306 306 306 306 304 297 294 301 303 302 292 284 290 293 300 300 298 297 295 292 290 286 286 287 290 286 282 279 284 286 289 288 287 291 293 293 295 296 294 294 294 292
300 301 301 302 302 302 303 303 304 306 306 306 305 306 305 305 295 291 294 299 304 303 292 286 286 298 301 300 298 297 296 293 290 290 288 289 289 290 287 281 285 288 289 291 294 292 292 292 291 292 294 294 294 292
300 301 301 302 302 302 303 303 304 305 305 305 305 306 305 304 299 291 298 302 304 296 293 285 286 292 300 295 293 297 293 292 289 289 288 285 287 286 282 285 287 291 294 293 294 294 293 296 294 294 293 292 290 289
301 301 301 302 303 303 304 304 304 305 305 305 306 305 302 299 296 299 306 304 301 296 288 287 285 284 297 294 294 293 293 286 292 287 288 289 287 282 284 285 288 292 293 295 295 295 292 290 291 291 290 289 287 287
301 301 301 302 303 303 304 304 304 305 305 305 301 295 291 296 304 303 297 293 292 292 292 285 286 287 293 289 287 290 291 286 281 286 291 286 283 287 289 290 290 293 297 297 293 289 291 290 290 290 289 289 288 287
300 300 301 302 303 303 303 303 304 305 303 299 293 291 297 302 296 292 288 287 288 285 289 289 286 287 295 290 287 290 284 285 278 281 283 283 284 288 297 293 295 294 297 294 292 291 290 290 289 289 288 289 288 287
299 300 300 301 302 303 303 303 304 299 293 294 296 298 297 293 289 285 284 287 285 283 286 285 286 288 293 293 287 290 283 285 281 288 285 283 289 295 293 290 291 293 291 291 292 290 290 289 288 288 288 288 287 287
299 299 300 301 302 303 303 303 304 302 301 297 294 290 288 287 280 281 280 283 283 287 288 286 282 288 288 288 285 286 283 282 289 286 284 286 293 294 292 292 291 291 291 290 290 290 290 288 288 288 288 289 287 286
299 300 300 301 302 303 303 303 303 301 296 291 288 283 283 282 284 285 285 288 292 293 293 292 287 286 284 283 281 279 282 284 283 280 284 289 293 293 293 292 290 289 289 289 289 289 289 287 287 289 289 289 287 286
300 300 301 302 303 303 303 303 304 299 295 289 288 281 283 288 290 288 290 290 294 294 292 288 289 289 282 283 283 282 283 281 282 284 288 291 292 292 290 290 289 288 288 288 288 288 288 288 288 288 290 288 287 286
300 300 299 303 303 303 304 303 299 297 294 290 288 284 287 288 288 290 292 292 295 293 294 292 286 284 283 283 284 284 283 282 285 289 289 290 292 289 289 290 290 290 289 288 288 289 290 288 287 287 289 289 286 286
300 296 301 303 303 303 302 298 296 291 289 288 283 289 289 288 288 292 292 295 295 293 289 289 284 284 287 284 284 287 285 287 288 288 291 290 288 289 290 291 292 291 290 290 289 289 289 289 288 287 285 287 287 286
296 298 302 302 302 300 297 295 293 290 286 288 283 284 288 292 293 294 293 295 292 291 291 288 291 286 285 284 284 288 292 290 292 291 291 290 290 291 291 290 291 291 290 290 289 288 288 287 286 285 286 287 286 285
298 298 301 301 301 296 292 291 290 285 286 286 285 285 287 288 291 293 292 291 293 294 291 290 287 285 287 290 290 293 291 290 288 290 289 290 290 291 291 291 291 290 289 288 288 287 287 287 286 286 286 286 284 284
301 300 301 301 301 293 289 290 293 288 285 285 287 290 287 289 294 295 290 290 290 289 287 286 287 291 292 294 296 294 295 293 288 286 286 288 289 290 291 290 288 289 289 288 288 288 287 286 287 286 286 285 284 283
299 299 300 299 296 295 292 290 288 286 285 284 288 289 290 294 290 291 293 290 288 287 287 291 293 296 299 299 299 297 295 291 288 288 287 287 289 288 288 288 288 288 288 288 287 287 286 285 286 286 286 285 284 284
297 300 297 298 293 293 290 292 290 291 290 289 287 289 287 285 286 292 292 288 290 289 294 293 294 296 297 298 298 298 298 293 289 288 289 290 287 287 287 288 288 287 287 288 288 287 286 286 286 286 285 285 285 284
299 298 295 294 290 288 287 294 289 290 287 288 289 286 285 285 286 292 286 292 292 293 292 292 292 293 295 298 296 294 299 295 289 289 289 288 288 288 288 288 288 288 286 287 288 288 287 286 286 286 286 285 284 283
299 293 290 288 289 285 290 289 291 290 289 288 287 286 289 290 292 291 289 289 290 291 289 289 290 291 295 297 296 291 295 294 289 288 288 288 287 287 288 288 288 288 288 288 288 288 287 287 286 286 285 284 283 282
288 283 289 283 290 287 286 287 288 288 285 285 285 285 287 290 288 288 286 285 287 287 286 287 288 289 290 294 295 293 292 292 291 288 287 288 287 287 286 287 287 288 289 288 287 287 287 287 287 286 285 284 283 282
284 288 286 287 286 286 286 285 286 286 285 287 289 291 293 289 286 282 283 284 284 285 285 285 285 286 288 291 291 294 295 292 290 288 287 289 290 289 287 286 286 287 289 289 289 287 287 287 287 286 285 285 284 283
281 284 288 291 289 290 288 290 290 289 287 287 289 287 287 285 282 281 284 285 284 285 286 287 287 287 287 289 292 295 293 290 290 290 289 288 288 290 291 288 287 289 290 290 290 289 288 287 287 286 286 286 285 285
286 289 287 287 289 289 288 288 288 286 287 289 288 281 280 279 275 281 284 285 285 286 287 288 290 291 291 292 293 295 288 288 289 289 289 288 288 288 289 289 289 286 290 291 291 290 289 288 288 287 286 285 285 285
285 289 287 285 289 289 288 287 287 288 289 288 285 282 280 281 282 281 283 284 285 285 285 286 287 287 290 296 298 299 289 288 289 288 287 285 285 286 288 289 289 289 289 287 284 288 289 288 288 287 286 286 286 286
285 287 285 286 286 285 288 290 288 288 286 283 283 283 282 279 276 281 283 283 283 283 285 287 286 285 284 285 291 292 291 291 289 289 285 284 285 286 287 288 289 289 289 288 286 285 284 286 285 286 284 284 284 284
291 291 289 288 286 288 289 289 288 287 285 282 282 279 278 280 282 281 282 282 283 284 284 283 284 285 284 284 283 284 288 288 287 289 289 287 286 286 287 288 288 289 288 287 287 286 285 283 283 283 283 282 282 282
288 288 288 285 285 289 290 287 288 284 285 285 283 284 283 278 274 273 281 282 282 281 283 284 283 283 286 287 286 285 284 284 285 286 290 288 287 287 288 289 289 288 287 286 285 284 283 282 281 281 280 280 280 281
289 290 289 287 285 285 287 287 286 284 283 282 283 277 275 274 271 273 279 283 282 282 282 284 285 286 286 286 285 285 285 284 284 284 285 285 285 287 289 289 288 287 285 283 282 282 281 280 280 279 279 279 279 279

GFSWCAN_sfc_thetae_117.txt.gz
Theta_e
300 301 302 302 302 302 302 303 304 305 304 305 306 306 306 307 307 305 301 304 299 295 297 300 299 295 297 294 291 293 292 295 292 289 289 289 289 289 290 291 288 287 285 285 287 284 282 300 299 293 298 301 302 302
300 300 301 303 303 302 302 303 304 305 305 305 306 306 307 307 307 306 300 304 304 297 297 300 300 302 301 302 297 296 294 294 294 291 292 292 289 290 289 286 295 289 293 290 292 291 297 301 300 303 302 302 302 302
300 300 301 303 303 303 302 303 304 305 305 305 305 306 307 307 307 306 302 301 302 296 295 296 296 301 304 303 305 295 297 298 297 297 294 292 288 291 288 289 290 292 296 294 294 296 297 299 302 303 303 303 304 303
299 300 301 302 303 303 303 303 304 305 305 306 306 306 306 307 306 305 302 304 301 296 290 292 301 298 302 303 302 302 300 300 299 298 294 292 290 292 290 289 290 292 293 292 294 295 296 299 299 302 303 303 302 303
299 300 301 302 302 303 303 303 304 305 306 306 306 307 307 307 305 303 304 304 303 297 290 293 297 299 304 301 301 302 300 299 296 294 293 289 291 291 291 291 289 293 291 290 290 294 295 296 299 301 301 301 301 300
299 300 301 302 302 303 303 304 304 305 306 306 306 306 306 306 304 302 296 303 304 304 294 288 296 299 301 302 301 300 299 299 297 294 291 294 294 292 287 285 290 292 294 294 294 297 297 299 301 302 300 299 299 298
299 301 301 302 302 303 303 304 304 305 306 306 306 306 306 306 303 298 295 301 304 305 295 290 291 297 302 302 301 299 299 297 296 294 293 293 293 294 290 285 291 293 294 296 298 298 296 299 298 298 299 298 297 296
300 301 301 302 302 304 303 304 304 305 306 306 306 306 306 304 301 300 303 305 306 299 296 288 288 292 300 296 292 299 296 295 295 292 294 292 293 292 285 291 293 295 296 297 299 300 299 300 298 297 298 297 295 293
300 300 301 302 302 303 304 304 304 305 305 306 305 305 303 300 296 298 306 305 304 300 290 289 287 286 298 294 295 294 296 289 294 290 290 291 288 285 290 292 294 295 297 297 299 299 297 296 296 296 295 294 292 291
299 299 300 301 302 303 304 304 304 305 306 305 303 298 292 297 304 304 300 295 295 294 294 288 292 289 293 291 289 291 292 287 285 289 292 288 288 292 293 297 297 297 297 300 297 296 296 294 294 294 293 293 292 291
299 299 300 300 301 302 303 304 304 304 302 300 296 293 299 303 300 294 289 288 290 287 291 291 292 289 296 290 289 292 288 288 284 287 287 285 285 292 297 298 299 299 298 296 297 296 295 294 292 292 291 292 291 290
299 299 299 300 301 302 303 303 304 302 299 298 297 299 298 294 291 286 285 288 287 285 290 289 291 292 295 296 292 291 288 288 282 290 285 284 291 295 295 295 296 296 296 295 296 294 293 292 292 291 291 291 289 288
299 300 300 300 301 302 303 303 304 304 302 300 295 291 289 289 282 282 281 284 285 289 291 291 291 292 295 295 292 288 284 284 292 287 285 290 293 294 294 295 295 295 295 293 292 294 292 291 292 292 290 288 288 286
300 301 300 300 302 303 304 303 303 302 298 292 289 283 284 284 286 287 288 288 292 292 291 292 290 292 292 291 290 284 288 288 283 282 283 290 293 295 295 295 294 292 292 292 292 292 291 291 290 291 289 288 287 285
301 301 301 301 303 304 304 303 303 301 296 290 289 282 286 289 290 291 291 290 293 295 293 288 290 291 290 287 289 287 283 281 283 285 288 294 296 295 294 293 292 292 292 292 292 291 290 290 289 290 288 288 287 285
301 301 300 302 303 304 304 303 301 299 295 291 289 286 290 288 289 291 292 292 296 295 294 293 288 286 286 288 285 284 284 283 286 291 295 296 295 294 294 293 293 293 293 292 292 292 290 289 288 288 289 287 287 285
300 297 301 303 303 303 302 300 298 293 290 288 288 292 291 290 289 292 294 295 297 294 289 290 285 285 289 286 285 288 285 289 294 294 295 296 295 294 295 294 294 294 293 292 291 291 289 290 289 288 286 287 286 285
298 300 301 302 302 300 299 297 293 291 286 289 287 290 290 293 292 294 296 297 296 293 292 289 292 288 286 285 286 288 293 295 295 295 295 296 296 296 296 295 295 294 292 291 291 291 290 289 287 287 287 286 285 285
299 300 300 302 301 297 293 292 293 286 287 290 291 292 291 293 295 296 298 298 297 297 295 293 289 288 289 292 292 295 296 295 293 294 295 296 297 295 295 295 294 293 292 291 290 288 288 288 288 287 287 286 284 284
301 301 301 301 301 295 290 291 295 289 286 290 291 290 293 294 296 297 297 297 296 294 292 290 289 291 292 295 298 298 300 297 295 294 294 295 296 296 295 294 293 293 291 291 290 289 288 288 289 288 287 286 284 283
299 299 300 299 297 295 293 291 290 290 290 289 292 292 292 295 297 296 296 297 295 292 290 292 293 294 297 301 302 301 301 297 294 295 294 293 295 295 294 294 294 293 292 291 290 288 288 287 287 288 287 286 286 285
297 300 296 297 293 293 291 293 291 292 291 291 292 294 293 292 293 295 295 294 289 288 291 291 292 292 295 297 300 302 303 299 296 294 292 293 293 293 293 293 293 292 292 291 291 289 288 289 289 288 287 286 286 285
299 298 296 294 290 288 288 295 289 291 287 290 293 291 291 292 293 297 293 292 291 292 291 291 292 295 294 298 299 299 302 298 296 296 296 296 295 295 294 294 294 292 292 292 292 291 289 287 288 288 288 287 286 286
299 294 290 288 289 286 291 288 290 289 291 290 290 288 291 293 295 293 289 289 290 291 289 289 291 291 295 298 296 295 297 299 297 296 297 296 294 293 294 294 294 294 294 293 292 291 291 289 288 288 288 287 286 286
288 286 289 285 289 287 286 287 288 289 287 288 287 288 292 294 289 288 286 285 287 288 287 288 289 288 289 293 295 297 298 297 296 296 295 296 295 294 293 293 294 294 294 293 292 292 291 290 289 288 287 287 286 285
285 289 287 288 288 288 288 286 286 287 289 288 290 292 293 290 286 283 283 284 285 286 285 285 285 286 287 291 292 294 296 297 295 296 296 296 296 295 294 292 291 292 295 295 293 292 291 291 290 288 287 286 284 286
284 285 290 294 292 292 290 291 291 290 288 287 289 288 287 285 283 282 286 286 285 286 287 287 287 287 287 289 293 296 298 293 294 296 296 296 297 298 297 294 293 295 296 295 294 293 292 292 291 290 289 289 288 288
289 290 288 291 291 292 288 289 288 287 287 289 288 283 282 281 282 284 286 287 286 287 287 289 290 291 289 289 292 295 298 293 294 294 294 294 295 296 297 297 298 287 296 296 295 295 294 293 292 291 290 289 289 289
288 291 291 288 290 290 289 288 288 289 290 289 286 284 282 283 284 284 285 285 286 286 285 286 287 288 289 290 295 298 298 293 293 292 293 293 293 293 295 296 295 296 297 295 286 291 295 294 293 292 291 290 290 289
289 292 289 288 287 286 288 290 289 289 288 287 287 285 283 283 284 285 284 284 283 283 285 286 287 286 285 285 286 294 294 295 293 292 293 293 294 294 294 295 295 295 296 294 292 289 285 290 288 291 290 290 290 289
293 292 290 289 287 289 290 291 291 290 288 286 286 285 283 283 284 284 283 283 284 285 284 284 285 286 285 284 284 284 290 293 290 291 292 293 293 293 294 294 294 294 294 293 293 292 291 291 291 289 289 288 288 288
290 289 288 286 286 289 291 289 289 288 288 286 284 285 284 283 281 282 282 283 283 282 282 283 283 283 286 287 286 287 285 287 288 290 291 293 293 294 294 294 294 293 293 292 291 290 290 289 288 287 286 286 285 285
290 290 289 287 286 286 288 288 287 285 285 284 284 284 283 282 279 281 283 284 283 282 283 284 286 286 285 285 286 285 285 287 285 284 285 285 286 289 293 293 293 292 291 290 289 288 287 286 285 284 283 283 282 282

GFSWCAN_sfc_thetae_120.txt.gz
Theta_e
300 300 301 302 303 304 303 303 304 305 306 306 306 306 307 308 308 307 305 309 303 298 300 300 298 295 299 298 293 295 295 297 296 294 294 294 294 295 292 294 292 291 290 290 291 288 286 301 301 295 303 306 305 305
300 300 301 302 303 303 303 303 304 305 306 306 307 306 307 308 307 307 301 308 307 298 300 304 304 303 301 304 301 300 299 298 299 299 297 299 295 297 295 288 298 292 296 293 295 297 303 305 306 307 306 303 305 305
300 300 301 302 303 304 304 304 304 305 306 307 306 307 307 307 306 305 305 307 303 300 301 302 300 305 308 307 309 300 302 303 301 304 300 299 292 298 294 293 294 297 300 298 297 300 301 304 306 307 306 305 306 307
299 300 300 302 303 303 304 304 304 305 306 307 307 307 307 307 306 306 305 305 304 300 295 297 307 304 309 309 307 308 306 306 306 304 299 298 296 298 296 294 297 297 299 296 296 300 301 302 303 303 304 305 305 306
299 300 301 302 303 303 304 304 305 305 306 307 307 307 307 306 306 307 310 307 305 299 292 297 303 307 308 307 306 307 307 304 301 299 297 294 298 297 297 297 295 298 296 297 295 299 299 299 303 304 303 303 305 304
299 300 302 302 303 303 304 304 305 305 305 306 307 307 306 306 305 306 300 307 308 309 298 292 300 301 306 307 304 304 305 304 302 299 297 299 298 297 294 293 295 296 297 299 298 300 299 302 304 305 303 304 303 302
300 300 301 302 302 303 304 304 304 305 305 306 306 306 306 305 307 301 298 302 305 308 297 293 295 298 301 304 303 301 305 303 302 301 297 298 297 297 295 292 295 298 299 300 301 300 298 301 300 303 303 303 301 301
300 300 300 301 302 302 303 304 305 305 305 306 306 306 306 305 304 302 307 307 307 303 300 291 290 294 300 296 295 301 301 303 300 299 299 295 296 297 293 295 297 299 300 301 302 304 302 302 302 302 302 301 300 299
299 300 299 300 301 302 303 304 304 305 305 306 306 305 308 305 301 302 306 307 309 302 292 294 290 288 298 295 297 299 300 293 299 293 294 296 293 290 294 296 297 299 299 300 301 302 301 299 298 300 300 299 298 297
299 299 299 300 300 301 303 303 304 305 305 305 306 302 298 303 305 305 303 300 301 302 299 292 298 290 295 293 292 293 295 291 288 290 293 292 292 293 299 302 303 301 301 301 298 296 298 297 297 297 297 297 296 295
300 300 300 300 301 301 302 303 303 304 306 303 298 297 303 305 303 301 294 294 295 290 296 297 296 293 300 292 292 297 292 294 287 289 289 288 291 293 300 300 302 302 301 300 300 299 298 296 295 295 295 295 292 291
300 300 300 301 301 301 302 304 304 305 304 301 299 302 303 299 295 289 290 293 290 288 296 293 294 296 298 300 293 297 290 293 284 295 288 286 292 297 298 298 300 300 299 297 297 296 296 295 295 295 292 291 290 290
300 300 301 300 301 302 303 304 303 304 304 304 298 294 294 295 286 286 284 289 289 291 294 295 293 296 299 299 294 291 286 286 296 290 286 292 297 297 298 298 297 297 296 296 296 296 295 295 294 292 290 289 289 288
300 301 302 302 302 303 304 304 303 305 303 296 291 286 287 288 289 289 289 291 294 293 292 294 296 295 300 293 294 287 291 293 286 284 287 291 295 297 298 297 295 294 295 295 295 295 295 294 292 290 288 289 288 286
300 301 302 302 303 304 304 304 304 306 300 292 292 285 289 290 291 293 294 292 295 296 293 290 293 294 296 292 293 290 284 282 287 287 289 295 299 298 296 295 295 295 294 295 295 294 294 293 291 288 288 288 288 286
301 301 303 302 303 303 303 305 306 305 298 293 292 290 293 292 293 294 293 291 297 296 296 296 291 289 289 292 286 284 286 285 288 292 296 299 298 298 296 296 296 296 295 295 295 294 293 292 290 288 288 287 286 285
300 300 301 302 302 303 303 303 302 294 292 290 292 297 293 291 292 294 296 296 298 294 291 292 287 287 290 287 286 290 287 290 294 296 299 300 299 297 297 297 297 297 295 295 294 293 293 293 291 289 286 286 285 285
299 302 302 301 303 302 305 300 295 293 288 294 293 295 297 295 294 297 299 300 296 294 294 291 295 289 288 285 287 291 296 299 299 299 299 300 299 298 297 298 297 296 295 295 294 293 292 291 290 288 288 287 286 285
301 302 301 301 301 299 294 295 298 289 292 295 298 299 298 300 300 302 303 304 302 301 298 296 291 290 290 292 294 298 298 297 297 298 299 300 299 298 298 298 297 296 295 294 293 291 292 291 290 289 288 287 285 286
301 301 301 301 302 298 291 294 299 291 291 295 297 296 297 300 303 305 304 303 301 299 295 291 289 290 291 294 299 302 301 300 298 295 295 298 299 299 298 298 296 296 295 294 293 290 291 291 291 290 288 287 286 285
299 300 300 301 298 295 293 293 293 295 295 294 298 297 299 301 300 300 302 304 299 292 289 290 288 292 296 301 303 305 303 301 299 296 296 296 298 298 298 298 297 296 295 294 292 290 290 290 290 291 290 289 288 287
299 300 297 297 293 293 292 295 293 296 294 295 296 299 297 296 298 301 303 295 289 289 291 291 293 293 295 298 301 304 305 302 302 299 295 296 297 297 297 297 296 295 295 294 293 291 291 292 292 291 290 289 289 288
299 298 296 294 290 289 289 297 289 291 288 292 297 294 295 297 300 303 294 293 291 293 295 295 295 296 297 302 302 304 306 303 300 300 299 299 300 299 298 297 297 295 294 294 294 293 291 288 289 290 290 290 289 288
300 295 291 289 289 287 292 289 290 290 293 292 292 290 294 297 301 297 289 289 290 293 292 292 293 292 294 299 298 299 301 304 302 301 300 300 298 298 299 298 298 298 297 296 295 294 293 292 290 292 291 290 290 290
289 290 290 286 290 287 287 288 288 291 288 291 289 291 293 296 290 289 287 286 289 291 291 291 291 290 288 292 296 298 303 304 301 299 301 301 301 299 298 298 298 298 298 296 295 294 292 293 292 292 291 291 290 289
286 291 288 290 291 288 289 287 288 288 291 290 291 293 294 292 288 285 285 286 289 290 288 288 287 288 288 290 290 296 299 302 301 300 301 302 301 299 297 295 295 296 299 298 296 294 293 293 292 291 290 288 286 290
285 287 294 299 297 294 291 293 293 291 288 287 290 290 290 286 286 286 289 289 290 291 291 291 289 288 289 289 291 297 300 300 299 301 303 303 303 303 301 298 297 298 300 299 298 296 295 294 293 293 292 292 292 291
291 292 288 293 294 296 290 291 289 287 288 291 291 287 284 285 286 289 290 291 290 290 290 291 291 291 290 290 290 295 300 300 298 299 300 301 302 303 303 302 303 289 300 300 299 299 297 296 295 294 293 293 292 292
290 295 294 290 291 292 291 290 289 291 294 292 290 289 289 290 291 289 291 290 290 289 288 288 290 290 291 291 292 296 301 298 296 295 296 296 297 298 301 301 299 300 301 299 287 293 298 297 297 296 295 295 294 294
291 296 291 290 288 288 290 292 291 293 295 295 294 291 290 289 289 292 290 288 286 286 287 288 289 288 286 286 286 289 299 299 296 296 297 297 298 300 301 301 300 301 301 300 298 296 286 294 291 296 295 294 294 293
296 295 291 291 289 292 293 293 294 294 293 293 293 291 288 286 288 289 288 286 286 286 286 285 286 287 286 285 284 284 288 296 295 296 295 297 300 300 301 301 302 301 301 300 298 297 297 296 296 295 294 293 293 292
292 290 289 287 287 290 291 291 291 290 291 290 289 290 287 286 284 286 285 285 285 284 284 285 284 285 286 287 288 288 285 287 289 294 293 296 300 301 300 300 300 300 300 299 298 297 297 296 295 294 293 292 291 291
292 291 290 289 287 287 289 289 289 287 288 287 287 288 288 287 283 284 287 287 285 284 285 285 286 287 287 287 287 288 286 287 287 284 284 284 285 292 298 300 300 299 298 298 297 296 295 294 292 291 290 289 288 287

GFSWCAN_sfc_thetae_123.txt.gz
Theta_e
301 300 301 302 302 304 304 304 304 305 306 307 307 308 308 309 308 307 307 312 304 298 300 302 300 297 299 299 294 301 301 301 301 297 295 295 293 294 293 295 295 294 293 293 294 291 288 305 303 298 305 308 309 307
301 301 301 302 303 304 304 305 305 305 306 307 308 308 308 308 308 307 302 309 309 303 302 308 308 308 306 304 300 304 302 302 303 300 300 300 295 298 296 290 299 292 297 296 299 299 306 309 308 310 309 307 306 306
301 300 301 302 303 304 304 305 305 305 306 307 307 308 308 308 307 307 307 308 306 300 301 302 302 309 312 310 312 299 304 307 305 308 301 300 296 301 295 295 296 300 303 299 300 303 304 304 307 308 308 306 306 307
301 300 301 302 304 304 304 305 305 305 306 307 307 308 307 307 307 306 307 308 306 302 297 299 309 307 312 312 311 311 309 310 309 306 302 300 296 302 298 299 296 300 301 298 300 302 303 304 304 305 306 307 306 307
300 301 301 302 303 303 304 305 305 306 306 306 307 307 307 307 307 308 310 310 310 300 295 298 304 309 310 310 308 309 309 307 304 301 300 297 300 301 299 301 296 301 299 298 295 302 303 302 304 305 304 305 306 305
300 300 301 301 302 303 303 304 305 306 305 306 307 307 307 307 307 306 305 311 310 310 301 293 304 303 307 308 307 306 307 306 304 302 300 300 302 301 298 293 299 300 302 303 301 303 302 304 304 306 304 304 305 305
299 300 300 300 301 302 303 304 305 306 306 306 306 306 307 307 307 300 299 304 307 310 300 294 296 302 306 307 309 306 307 304 303 301 298 299 299 301 298 292 298 301 302 303 304 303 301 303 301 304 303 304 304 304
299 300 300 300 300 301 302 302 304 305 306 306 306 307 307 306 306 305 309 307 307 304 299 295 297 297 302 299 301 307 300 301 301 297 299 297 301 301 291 296 299 300 302 302 302 303 303 304 305 302 302 303 302 301
299 300 301 300 301 301 302 303 304 305 305 305 306 307 308 306 303 304 307 307 310 303 293 295 292 289 304 301 302 303 302 295 303 295 297 298 295 291 294 296 298 300 300 300 301 302 303 300 301 300 300 299 298 299
300 300 301 301 301 302 302 303 304 305 305 305 307 301 296 304 306 308 305 302 300 298 299 294 299 294 297 297 299 296 299 295 289 296 301 293 295 299 300 302 302 303 303 302 299 298 299 298 298 298 298 298 298 297
299 300 301 301 302 301 302 303 304 305 306 303 299 299 305 307 305 300 294 293 296 292 295 295 299 294 303 296 296 300 294 296 289 293 293 292 292 298 300 300 300 301 301 301 300 300 299 298 297 297 297 297 295 293
300 300 301 302 302 302 303 303 305 304 304 302 301 304 305 299 296 292 291 293 291 289 295 294 295 297 302 304 297 297 292 295 287 298 293 288 295 299 298 298 300 299 298 298 299 298 298 299 298 295 293 292 291 291
300 300 301 302 302 302 303 305 304 304 305 305 300 296 296 297 289 288 287 290 291 293 296 295 295 301 301 300 296 294 288 289 298 290 290 293 298 298 299 298 297 299 299 298 297 298 298 297 295 293 290 290 290 288
300 300 301 302 302 303 304 305 304 305 303 296 292 289 291 290 291 290 290 291 295 294 296 298 296 296 298 297 298 289 292 294 287 288 288 295 298 299 298 298 297 296 298 297 297 297 296 293 290 290 289 289 288 286
300 301 302 302 303 304 304 304 305 307 302 293 293 288 291 293 292 293 296 295 296 297 295 294 298 299 294 293 295 292 288 286 290 288 291 298 299 298 297 297 297 296 297 297 297 296 296 292 290 288 289 288 287 286
301 301 304 302 303 303 304 305 306 306 303 296 294 292 298 295 294 294 294 292 298 297 298 297 294 292 290 292 289 287 287 285 289 293 298 299 298 298 298 298 297 297 297 297 296 296 295 291 289 288 288 287 286 285
301 299 302 301 302 302 304 303 302 296 295 292 293 298 300 300 296 299 300 298 299 295 292 295 289 288 294 289 287 292 287 291 295 298 299 300 299 298 299 298 298 297 297 297 296 296 295 293 290 288 285 285 285 285
300 302 302 301 302 304 304 303 298 294 290 295 292 295 299 303 301 303 302 303 298 298 297 292 295 288 288 287 289 293 296 299 300 299 300 300 300 299 299 299 297 297 296 296 296 296 295 293 290 287 287 288 287 286
302 303 302 301 302 299 296 297 298 290 295 299 297 299 301 301 304 305 306 305 304 304 300 298 293 290 288 294 296 298 299 298 297 297 299 301 300 299 299 299 298 297 296 296 296 294 293 293 291 290 289 288 287 288
301 301 301 301 302 298 293 295 302 293 292 297 299 298 301 299 302 305 304 304 302 300 293 290 290 290 291 295 297 301 300 301 298 297 297 298 299 299 299 298 297 297 296 296 295 292 293 292 292 291 289 288 287 287
299 300 300 301 298 297 295 295 294 294 295 295 298 299 298 301 304 302 301 303 298 291 290 291 289 291 295 299 303 305 302 302 298 298 297 296 299 299 299 298 298 298 295 295 294 292 291 291 291 292 291 290 289 289
299 300 301 300 294 294 294 297 294 297 296 297 296 297 296 296 300 300 302 296 292 292 294 293 294 295 297 301 302 304 305 303 302 298 296 296 297 297 297 298 297 296 295 295 295 294 293 293 292 292 290 290 290 289
300 299 297 295 291 291 291 298 291 293 290 293 296 294 294 296 300 303 296 294 293 298 298 297 297 298 298 303 306 305 305 303 300 299 299 300 300 300 299 298 299 297 295 295 296 295 293 289 290 291 291 291 291 290
300 297 292 290 290 288 293 290 292 292 293 293 293 292 296 297 301 297 289 289 292 298 298 297 297 296 295 298 300 302 304 306 302 301 301 301 299 299 300 299 299 299 298 297 296 295 294 293 291 293 292 292 292 291
292 290 292 287 291 288 287 288 291 292 290 293 292 293 294 301 294 290 288 288 293 296 297 296 295 294 290 292 293 296 303 304 301 299 301 302 301 301 300 300 300 300 299 297 295 294 294 295 294 294 293 292 291 291
286 292 288 292 291 289 291 288 290 290 292 291 292 297 300 293 290 288 289 291 294 296 295 293 291 291 293 291 290 292 297 304 304 301 301 302 301 300 299 298 297 298 300 299 297 295 294 294 294 293 292 290 287 292
286 289 294 298 297 296 294 295 296 294 290 289 291 292 293 288 288 288 290 293 293 295 296 296 293 292 291 293 293 293 298 303 303 303 305 304 303 304 302 300 298 300 301 300 299 297 296 295 294 293 293 294 294 293
292 294 290 294 295 297 291 292 291 289 289 292 293 288 287 288 288 291 292 295 295 296 296 296 296 295 293 294 294 292 298 303 303 302 304 305 307 307 305 304 304 289 301 301 300 299 298 297 296 295 295 294 294 295
290 294 295 292 293 294 293 292 292 293 295 293 291 290 291 294 294 292 295 296 296 295 292 291 293 296 293 292 292 293 296 301 299 297 297 297 299 301 304 303 301 301 301 301 287 294 299 298 298 297 297 296 296 296
291 295 292 291 289 290 294 298 294 297 297 297 298 296 294 290 293 297 296 294 289 289 289 290 291 291 289 288 286 288 295 301 301 299 297 297 299 302 303 302 300 301 301 300 299 298 286 295 293 298 297 297 296 295
297 296 292 293 291 293 294 296 297 296 297 297 298 295 292 289 291 295 294 293 290 289 289 288 288 289 288 288 286 285 286 295 294 296 298 297 301 303 303 303 303 303 302 301 300 299 298 297 297 297 297 296 295 294
295 291 290 289 289 292 295 293 292 291 292 292 290 292 293 290 286 288 289 290 292 287 285 287 286 286 288 289 290 290 286 288 287 290 294 294 297 303 304 304 304 304 303 302 301 300 299 298 298 297 297 296 295 294
293 293 293 291 289 287 289 291 290 289 291 289 289 290 290 288 284 286 289 289 287 286 286 287 288 289 289 289 289 289 287 289 288 285 285 284 284 287 296 303 303 303 302 302 301 300 299 298 297 297 296 295 294 293